GEFSSE_con_prob3kmehi_006.txt.gz
EHI
7 25 50 44 19 5 0 0 0 0 0 0 0 0 0 0 0 0 0 0 0 0 0 0 0 0 0 0 0 0 0 0 0 0 0 0 0 0 0 0 0 0 0
28 40 60 59 32 9 0 0 0 0 0 0 0 0 0 0 0 0 0 0 0 0 0 0 0 0 0 0 0 0 0 0 0 0 0 0 0 0 0 0 0 0 0
63 58 66 73 52 18 2 0 0 0 0 0 0 0 0 0 0 0 0 0 0 0 0 0 0 0 0 0 0 0 0 0 0 0 0 0 0 0 0 0 0 0 0
75 59 59 78 67 31 7 2 1 0 0 0 0 0 0 0 0 0 0 0 0 0 0 0 0 0 0 0 0 0 0 0 0 0 0 0 0 0 0 0 0 0 0
57 43 52 79 77 45 17 6 3 1 0 0 0 0 0 0 0 0 0 0 0 0 0 0 0 0 0 0 0 0 0 0 0 0 0 0 0 0 0 0 0 0 0
33 30 51 81 83 59 31 13 5 1 0 0 0 0 0 0 0 0 0 0 0 0 0 0 0 0 0 0 0 0 0 0 0 0 0 0 0 0 0 0 0 0 0
28 28 49 80 87 70 44 22 8 2 1 0 0 0 0 0 0 0 0 0 0 0 0 0 0 0 0 0 0 0 0 0 0 0 0 0 0 1 2 4 4 2 0
33 31 43 69 82 77 58 35 17 8 5 4 1 0 0 0 0 0 0 0 0 0 0 0 0 0 0 0 0 0 0 0 0 0 0 0 1 4 7 10 11 7 4
34 36 40 49 63 70 65 51 38 29 21 12 5 1 0 0 0 0 0 0 0 0 0 0 0 0 0 0 0 0 0 0 0 0 0 0 2 7 14 15 13 11 9
42 43 41 35 37 46 49 51 53 49 38 22 8 1 0 0 0 0 0 0 0 0 0 0 0 0 0 0 0 0 0 0 0 0 0 0 1 11 23 25 17 12 12
57 46 35 26 20 19 22 30 41 44 36 22 8 1 0 0 0 0 0 0 0 0 0 0 0 0 0 0 0 0 0 0 0 0 0 0 1 10 31 40 28 15 11
64 40 20 14 11 8 9 15 22 24 19 12 6 2 0 0 0 0 0 0 0 0 0 0 0 0 0 0 0 0 0 0 0 0 0 0 0 6 26 45 37 19 11
64 36 11 6 6 6 6 10 14 12 7 4 3 2 1 0 0 0 0 0 0 0 0 0 0 0 1 1 1 0 0 0 0 0 0 0 0 2 15 32 32 18 11
63 37 11 4 4 4 3 6 9 8 4 2 1 2 2 1 0 0 0 0 1 0 0 0 0 0 1 2 1 0 0 0 0 0 0 0 0 0 6 15 17 12 9
55 37 15 4 2 2 3 8 14 13 6 2 0 2 3 2 0 0 0 0 0 0 0 0 0 0 0 1 1 0 0 0 1 0 0 0 0 0 1 5 7 7 7
40 32 19 7 3 4 10 21 31 29 18 8 2 2 4 3 0 0 0 0 0 0 0 0 0 0 0 0 0 0 0 0 0 0 0 0 0 0 0 2 5 6 6
25 24 18 11 10 14 21 33 41 39 29 14 3 1 3 2 0 0 0 0 0 0 0 0 0 0 0 0 0 0 0 0 0 0 0 0 0 0 0 1 3 4 4
18 18 16 13 15 19 22 26 29 28 21 10 2 0 1 1 0 0 0 0 0 0 0 0 0 0 0 0 0 0 0 0 0 0 0 0 0 0 0 0 1 2 3
14 15 14 13 12 12 12 12 11 9 6 3 1 1 1 1 1 0 0 0 0 0 0 0 0 0 0 0 0 0 0 0 0 0 0 0 0 0 0 0 0 1 3
11 12 12 9 5 3 4 3 1 1 0 0 0 1 2 1 1 0 0 0 0 0 0 0 0 0 0 0 0 0 0 0 0 0 0 0 0 0 0 0 0 0 1
6 7 7 4 1 0 1 1 0 0 0 0 0 1 1 1 0 0 0 0 0 0 0 0 0 0 0 0 0 0 0 0 0 0 0 0 0 0 0 0 0 0 0
2 2 2 2 0 0 0 0 0 0 0 0 0 0 0 0 0 0 0 0 0 0 0 0 0 0 0 0 0 0 0 0 0 0 0 0 0 0 0 1 1 1 0
0 0 0 0 0 0 0 0 0 0 0 0 0 0 0 0 0 0 0 0 0 0 0 0 0 0 0 0 0 0 0 0 0 0 0 0 0 0 0 1 1 1 0
0 0 0 0 0 0 0 0 0 0 0 0 0 0 0 0 0 0 0 0 0 0 0 0 0 0 0 0 0 0 0 0 0 0 0 0 0 0 0 0 0 0 0
0 0 0 0 0 0 0 0 0 0 0 0 0 0 0 0 0 0 0 0 0 0 0 0 0 0 0 0 0 0 0 0 0 0 0 0 0 0 0 0 0 0 0
0 0 0 0 0 0 0 0 0 0 0 0 0 0 0 0 0 0 0 0 0 0 0 0 0 0 0 0 0 0 0 0 0 0 0 0 0 0 0 0 0 0 0

GEFSSE_con_prob3kmehi_012.txt.gz
EHI
0 1 7 13 11 6 5 4 7 17 29 34 35 39 41 36 21 7 1 0 0 0 0 0 0 0 0 0 0 0 0 0 0 0 0 0 0 0 0 0 0 0 0
0 2 9 16 15 9 6 4 5 11 18 21 22 23 24 20 12 4 0 0 0 0 0 0 0 0 0 0 0 0 0 0 0 0 0 0 0 1 1 0 0 0 0
3 5 12 23 26 18 9 4 4 5 7 8 8 8 8 6 3 1 0 0 0 0 0 0 0 0 0 0 0 0 0 0 0 0 0 0 0 1 2 1 1 0 0
9 10 21 38 43 29 13 5 3 4 4 5 5 4 2 1 0 0 0 0 0 0 0 0 0 0 0 0 0 0 0 0 0 0 0 0 0 1 2 3 2 1 0
19 19 34 60 64 42 21 7 3 3 4 6 6 3 1 0 0 0 0 0 0 0 0 0 0 0 0 0 0 0 0 0 0 0 0 0 0 1 2 3 3 2 1
35 28 43 75 82 56 27 9 4 3 4 5 5 3 1 0 0 0 0 0 0 0 0 0 0 0 0 0 0 0 0 0 0 0 0 0 0 1 2 2 2 2 1
52 33 41 76 88 62 29 11 6 5 5 4 4 4 2 0 0 0 0 0 0 0 0 0 0 0 0 0 0 0 0 0 0 0 0 0 0 1 1 1 1 1 0
59 38 35 61 72 54 29 13 10 10 10 8 7 6 3 1 0 0 0 0 0 0 0 0 0 0 0 0 0 0 0 0 0 0 0 0 0 0 0 0 0 0 0
62 47 37 41 44 36 25 17 14 16 17 17 17 14 7 1 0 0 0 0 0 0 0 0 0 0 0 0 0 0 0 0 0 0 0 0 0 0 0 0 0 0 0
63 54 46 41 34 24 17 15 16 17 19 23 29 28 17 6 1 0 0 0 0 0 0 0 0 0 0 0 0 0 0 0 0 0 0 0 0 0 0 0 0 0 0
62 55 50 48 41 28 16 13 15 16 18 25 36 41 35 20 7 1 0 0 0 0 0 0 0 0 0 0 0 0 0 0 0 0 0 0 0 0 0 0 0 0 0
53 48 41 38 38 34 25 20 19 20 24 33 44 51 52 39 17 5 3 2 1 0 0 0 0 0 0 0 0 0 0 0 0 0 0 0 0 0 0 0 0 0 0
40 35 27 24 26 30 32 31 30 30 34 39 44 48 52 44 23 10 7 4 2 1 1 2 1 0 0 1 0 0 0 0 0 0 0 0 0 0 0 0 0 0 0
31 25 20 20 21 24 32 37 36 36 36 35 31 31 35 33 21 12 8 4 2 2 2 3 3 2 1 1 1 1 0 0 0 0 0 0 0 0 0 0 0 0 0
28 23 21 23 24 22 25 30 28 27 28 24 18 17 22 22 14 8 5 2 1 1 1 2 3 2 2 2 2 1 0 0 0 0 0 0 0 0 0 0 0 0 0
23 22 22 24 23 19 17 18 16 16 15 13 10 11 14 12 8 5 2 0 0 0 0 0 1 1 1 1 1 1 0 0 0 0 0 0 0 0 0 0 0 0 0
16 18 19 19 18 14 11 10 10 9 7 5 5 6 6 4 4 4 1 0 0 0 0 0 0 1 0 0 0 0 0 0 0 0 0 0 0 0 0 0 0 0 0
10 12 14 14 13 10 7 6 5 5 5 5 4 4 3 2 3 2 1 0 0 0 0 0 0 0 0 0 0 0 0 0 0 0 0 0 0 0 0 0 0 0 0
6 8 9 8 7 5 3 2 1 2 4 4 3 3 3 3 2 1 0 0 0 0 0 0 0 0 0 0 0 0 0 0 0 0 0 0 0 0 0 0 0 0 0
2 3 4 3 3 2 1 0 0 1 3 3 2 1 1 2 1 0 0 0 0 0 0 0 0 0 0 0 0 0 0 0 0 0 0 0 0 0 0 0 0 0 0
0 1 1 1 1 0 0 0 0 1 2 2 1 0 0 1 1 1 0 0 0 0 0 0 0 0 0 0 0 0 0 0 0 0 0 0 0 0 0 0 0 0 0
0 0 0 0 0 0 0 0 0 0 1 1 0 0 0 0 1 1 0 0 0 0 0 0 0 0 0 0 0 0 0 0 0 0 0 0 0 0 0 0 0 0 0
0 0 0 0 0 0 0 0 0 0 0 0 0 0 0 0 1 1 0 0 0 0 0 0 0 0 0 0 0 0 0 0 0 0 0 0 0 0 0 0 0 0 0
0 0 0 0 0 0 0 0 0 0 0 0 0 0 0 0 0 0 0 0 0 0 0 0 0 0 0 0 0 0 0 0 0 0 0 0 0 0 0 0 0 0 0
0 0 0 0 0 0 0 0 0 0 0 0 0 0 0 0 0 0 0 0 0 0 0 0 0 0 0 0 0 0 0 0 0 0 0 0 0 0 0 0 0 0 0
0 0 0 0 0 0 0 0 0 0 0 0 0 0 0 0 0 0 0 0 0 0 0 0 0 0 0 0 0 0 0 0 0 0 0 0 0 0 0 0 0 0 0

GEFSSE_con_prob3kmehi_018.txt.gz
EHI
66 80 62 19 0 0 0 0 0 0 2 7 13 12 8 5 2 1 0 0 0 0 0 0 0 0 0 0 0 0 0 0 0 0 0 0 0 0 0 0 0 0 0
76 81 58 17 0 0 0 0 0 0 1 5 11 13 11 7 4 1 0 0 0 0 0 0 0 0 0 0 0 0 0 0 0 0 0 0 0 0 0 0 0 0 0
80 76 46 11 0 0 0 0 0 0 0 3 8 12 12 8 4 1 0 0 0 0 0 0 0 0 0 0 0 0 0 0 0 0 0 0 0 0 0 0 0 0 0
60 59 34 8 0 0 0 0 0 0 0 1 4 6 7 5 2 1 0 0 0 0 0 0 0 0 0 0 0 0 0 0 0 0 0 0 0 0 0 0 0 0 0
30 35 29 11 1 0 0 0 0 0 0 0 1 1 2 1 1 0 0 0 0 0 0 0 0 0 0 0 0 0 0 0 0 0 0 0 0 0 0 0 0 0 0
9 18 24 14 2 0 0 0 0 0 0 0 0 0 0 0 0 0 0 0 0 0 0 0 0 0 0 0 0 0 0 0 0 0 0 0 0 0 0 0 0 0 0
1 10 20 16 6 2 1 0 0 0 0 0 0 0 0 0 0 0 0 0 0 0 0 0 0 0 0 0 0 0 0 0 0 0 0 0 0 0 0 0 0 0 0
0 7 17 17 12 9 5 2 0 0 0 0 0 0 0 0 0 0 0 0 0 0 0 0 0 0 0 0 0 0 0 0 0 0 0 1 2 1 0 0 0 0 0
5 8 13 17 18 20 19 15 10 6 3 1 0 0 0 0 0 0 0 0 0 0 0 0 0 0 0 0 0 0 0 0 0 0 0 5 9 5 0 0 0 0 0
23 19 17 22 32 38 40 41 36 26 16 9 6 3 1 0 0 0 1 2 2 1 1 0 0 0 0 0 0 0 0 0 0 0 1 10 17 8 0 0 0 0 0
42 32 23 30 45 52 57 65 64 54 42 31 24 19 12 5 2 2 10 16 11 3 2 1 1 0 0 0 0 0 0 0 0 0 5 18 22 9 0 0 0 0 0
34 25 19 27 40 49 58 70 75 71 64 54 45 43 39 30 22 20 31 39 24 8 4 3 2 1 1 4 4 3 1 1 1 0 10 27 26 9 0 0 0 0 0
12 9 9 15 24 33 46 60 69 71 70 64 57 59 65 65 58 51 55 55 39 25 19 17 13 8 7 12 12 6 1 2 2 3 17 35 28 9 1 1 0 0 0
8 7 6 10 15 20 30 45 55 59 59 59 58 60 69 76 71 66 64 57 47 42 40 37 30 20 17 19 14 5 1 2 2 6 21 35 27 9 2 1 0 0 0
17 14 10 9 12 15 23 35 43 45 43 44 46 47 52 58 56 54 54 48 39 37 41 41 32 24 22 18 10 3 1 1 3 6 15 23 18 8 3 2 1 0 0
19 15 9 7 9 14 20 28 33 33 31 29 29 28 30 34 36 36 36 31 23 21 26 26 20 17 17 10 4 1 0 1 3 4 5 7 7 5 4 4 4 3 2
13 11 8 7 10 13 16 19 22 23 23 22 20 16 14 16 21 24 23 16 11 11 14 16 14 11 8 3 1 1 1 2 2 2 1 0 1 1 3 5 6 6 4
12 11 11 10 11 12 12 13 13 15 16 15 13 11 9 8 11 16 16 11 6 5 7 12 13 9 4 1 1 2 2 3 2 1 0 0 0 0 1 2 4 4 4
12 11 10 9 9 10 9 8 8 8 10 9 6 6 8 7 9 14 17 12 7 4 4 8 10 8 3 1 1 1 1 2 2 1 0 0 0 0 0 0 1 1 1
6 6 5 5 5 6 5 5 5 5 6 6 4 5 8 8 12 18 18 12 7 4 2 4 5 4 2 1 0 0 0 0 1 1 0 0 0 0 0 0 0 0 0
1 1 1 1 1 2 2 3 3 4 5 4 3 4 7 9 13 17 14 9 5 3 2 2 2 1 1 0 0 0 0 0 0 0 0 0 0 0 0 0 0 0 0
0 0 0 0 0 0 1 1 1 2 2 2 1 2 4 6 9 11 12 9 4 2 1 1 0 0 0 0 0 0 0 0 0 0 0 0 0 0 0 0 0 0 0
0 0 0 0 0 0 0 0 0 0 0 0 0 0 0 2 3 6 8 9 7 4 2 1 0 0 0 0 0 0 0 0 0 0 0 0 0 0 0 0 0 0 0
0 0 0 0 0 0 0 0 0 0 0 0 0 0 0 0 1 2 5 9 12 11 7 4 1 0 0 0 0 0 0 0 0 0 0 0 0 0 0 0 0 0 0
0 0 0 0 0 0 0 0 0 0 0 0 0 0 0 0 0 1 2 6 13 16 15 12 8 3 1 0 0 0 0 0 0 0 0 0 0 0 0 0 0 0 0
0 0 0 0 0 0 0 0 0 0 0 0 0 0 0 0 0 0 1 3 9 15 19 21 16 8 3 1 0 0 0 0 0 0 0 0 0 0 0 0 0 0 0

GEFSSE_con_prob3kmehi_024.txt.gz
EHI
95 91 81 57 32 19 10 3 0 0 0 0 0 0 0 0 0 0 0 0 0 0 0 0 0 0 0 0 0 0 0 0 0 0 0 0 0 0 0 0 0 0 0
94 87 73 50 30 20 13 6 2 1 0 0 0 0 0 0 0 0 0 0 0 0 0 0 0 0 0 0 0 0 0 0 0 0 0 0 0 0 0 0 0 0 0
88 73 54 38 24 18 13 9 5 3 1 1 1 1 1 1 1 0 0 0 0 0 0 0 0 0 0 0 0 0 0 0 0 0 0 0 0 0 0 0 0 0 0
80 61 44 32 18 11 10 8 6 4 4 5 6 7 6 4 2 0 0 0 0 0 0 0 0 0 0 0 0 0 0 0 0 0 0 0 0 0 0 0 0 0 0
81 67 53 35 16 6 5 5 5 5 5 7 9 11 11 7 2 0 0 0 0 0 0 0 0 0 0 0 0 0 0 0 0 0 0 0 0 0 0 0 0 0 0
90 80 61 41 21 9 4 3 4 5 5 5 7 9 8 5 1 0 0 0 0 0 0 0 0 1 1 0 0 0 0 0 0 0 2 6 6 2 0 0 0 0 0
93 83 63 44 28 15 8 4 3 3 3 3 4 4 3 1 0 0 0 0 1 1 0 0 1 2 2 1 1 0 0 0 0 0 7 21 24 11 2 0 0 0 0
93 81 60 41 27 17 11 6 3 2 2 2 3 3 1 0 0 0 0 1 2 3 2 1 1 3 4 3 2 1 0 0 0 0 13 40 52 35 14 3 0 0 0
86 73 47 29 21 15 10 6 4 3 3 4 4 3 1 0 0 0 1 3 7 10 10 8 5 5 6 5 3 2 1 0 0 0 15 50 75 68 40 15 3 0 0
66 54 35 29 27 17 15 17 15 11 10 10 8 5 3 2 0 0 2 7 13 19 20 17 12 8 8 7 4 3 2 0 0 0 15 52 86 88 65 33 9 1 0
41 36 37 48 46 30 32 43 38 29 26 23 18 17 14 8 2 2 7 15 22 24 24 22 18 12 10 8 5 4 3 1 0 0 19 59 90 94 78 49 21 6 2
34 38 51 64 63 49 50 64 58 47 50 46 40 43 39 23 10 8 18 31 35 32 28 25 22 18 15 11 13 16 10 2 0 2 26 69 95 94 80 56 31 13 6
52 57 64 70 71 64 61 63 58 57 68 70 67 71 67 49 28 18 29 44 48 43 36 30 27 24 18 13 21 30 20 5 1 4 30 71 91 86 72 53 33 17 9
77 73 69 68 68 65 59 54 51 56 68 76 81 84 81 68 48 32 32 41 45 41 34 27 24 20 13 10 19 30 26 10 3 8 31 63 77 72 60 48 35 21 12
84 77 66 59 56 54 48 42 42 47 54 63 74 79 78 72 59 44 34 30 28 25 20 16 13 10 6 5 11 20 22 14 9 14 32 52 61 59 54 47 38 28 19
77 69 57 47 44 42 36 31 31 33 37 46 56 62 64 65 62 53 40 26 17 11 8 6 4 4 3 4 5 10 14 15 17 22 32 42 46 47 47 45 38 30 24
61 59 51 42 37 34 29 23 20 20 23 30 37 41 44 50 54 51 40 27 16 9 5 2 1 2 2 2 1 2 6 12 18 21 26 29 29 28 32 35 32 26 24
51 53 51 42 35 30 24 18 14 13 16 20 26 30 31 32 35 39 35 24 17 10 5 2 1 1 1 0 0 0 2 7 10 12 14 14 12 12 15 19 19 16 15
40 43 41 35 28 22 17 14 12 12 14 19 28 35 34 26 24 29 30 24 17 10 5 2 1 1 1 0 0 0 1 3 3 4 5 5 3 4 5 6 5 5 5
19 21 21 19 16 11 8 9 9 10 12 19 31 37 34 26 24 29 32 29 21 11 5 2 1 2 2 0 0 0 0 0 0 0 1 1 1 2 3 3 1 1 0
5 6 7 8 7 5 6 5 5 6 8 13 22 24 21 17 20 27 35 36 27 15 7 3 2 2 1 0 0 0 0 0 0 0 0 0 0 1 2 3 3 1 1
1 2 4 7 7 7 8 5 3 4 4 6 9 9 6 6 9 16 29 36 32 22 10 4 2 1 0 0 0 0 0 0 0 0 1 0 0 0 1 2 2 2 1
0 1 4 8 10 11 9 5 2 2 2 3 3 2 2 1 2 6 14 24 29 27 16 6 2 1 0 0 0 0 0 0 0 1 2 1 0 0 0 0 1 1 2
0 1 4 8 11 11 7 3 1 1 1 1 1 1 0 0 0 1 3 9 17 22 19 11 7 5 2 0 0 0 0 0 0 0 1 0 0 0 0 0 0 1 2
0 1 3 5 6 6 4 1 0 0 0 0 0 0 0 0 0 0 0 2 6 11 13 14 15 12 7 2 0 0 0 0 0 0 0 0 0 0 0 0 1 2 2
0 1 2 2 2 2 1 0 0 0 0 0 0 0 0 0 0 0 0 0 2 4 6 12 17 16 10 5 1 0 0 0 0 0 0 0 0 0 0 0 1 2 3

GEFSSE_con_prob3kmehi_030.txt.gz
EHI
10 27 56 71 71 67 58 46 30 15 10 12 11 8 7 6 5 4 4 4 4 3 2 2 1 0 0 0 0 0 1 1 1 1 1 1 0 0 0 0 0 0 0
26 38 59 71 70 67 63 55 39 20 10 7 5 4 3 3 2 2 1 2 1 1 1 1 0 0 0 0 0 0 0 0 0 0 0 0 0 0 0 0 0 0 0
53 54 64 72 70 69 71 69 57 37 20 10 5 2 1 0 0 0 0 0 0 0 0 0 0 0 0 0 0 0 0 0 0 0 0 0 0 0 0 0 0 0 0
62 60 65 74 75 75 79 81 74 60 43 27 16 9 5 2 1 0 0 0 0 0 0 0 0 0 0 0 0 0 0 0 0 0 0 0 0 0 0 0 0 0 0
48 47 61 77 80 80 83 85 82 76 65 48 31 20 13 7 3 1 0 0 0 0 0 0 0 0 0 0 0 0 0 0 0 0 0 0 0 0 0 0 0 0 0
30 29 44 68 74 72 75 80 82 79 72 59 43 28 18 10 5 2 1 0 0 0 0 0 0 0 0 0 0 0 0 0 0 0 0 0 0 1 1 0 0 0 0
16 13 24 44 51 49 55 63 66 66 61 49 37 25 15 10 6 3 2 1 0 0 0 0 0 0 0 0 0 0 0 0 0 0 0 0 1 3 3 1 0 0 0
5 4 10 20 24 25 30 36 39 41 38 30 21 14 9 6 4 3 2 1 0 0 0 0 1 1 0 0 0 0 0 0 0 0 0 0 1 5 6 4 1 0 0
1 1 3 6 8 9 11 14 17 19 19 16 11 6 4 3 2 1 1 0 0 0 1 1 2 2 0 0 0 0 0 0 0 0 0 0 2 6 8 5 1 0 0
2 1 1 1 2 3 3 4 6 8 10 9 6 3 1 1 1 0 0 0 0 2 4 5 6 4 2 1 1 1 1 0 0 0 0 0 4 9 9 5 2 1 1
9 7 4 2 1 1 0 1 1 3 5 5 3 1 1 1 1 1 1 0 2 5 8 11 10 8 7 6 3 2 2 1 0 0 0 1 8 18 18 11 8 7 6
29 22 14 8 4 1 0 0 1 3 3 3 3 2 2 2 2 3 2 2 3 7 12 15 14 14 14 11 7 4 2 1 0 0 0 1 12 28 33 25 18 15 14
50 42 32 21 12 7 4 3 4 6 7 6 5 5 6 5 5 5 4 3 5 8 12 15 16 16 16 13 10 7 4 2 1 0 0 2 12 31 42 35 25 22 22
60 55 47 34 21 15 12 10 10 11 12 10 7 8 12 10 7 5 4 3 6 9 10 11 11 12 12 11 9 6 5 4 2 0 1 2 9 22 33 31 25 25 27
60 57 51 39 26 20 20 19 17 14 12 12 9 9 13 12 7 4 2 3 5 7 6 5 5 5 5 5 4 3 3 3 1 0 0 1 5 10 15 18 20 22 23
49 46 40 33 25 22 22 22 19 14 10 9 7 7 9 9 6 2 1 2 3 3 2 2 1 1 1 1 1 0 1 1 0 0 0 0 1 3 6 10 13 15 15
28 27 23 19 18 17 17 17 16 11 7 4 3 3 4 4 3 2 1 2 2 1 0 0 0 0 0 0 0 0 0 0 0 0 0 0 0 1 2 5 7 9 9
13 12 10 8 8 7 8 9 8 6 2 0 0 1 1 1 1 1 1 1 1 0 0 0 0 0 0 0 0 0 0 0 0 0 0 0 0 0 0 1 3 5 5
6 5 4 3 2 1 2 2 2 1 0 0 0 0 0 0 0 0 0 0 0 0 0 0 0 0 0 0 0 0 0 0 0 0 0 0 0 0 0 0 1 2 2
2 2 2 1 0 0 0 0 0 0 0 0 0 0 0 0 0 0 0 0 0 0 0 0 0 0 0 0 0 0 0 0 0 0 0 0 0 0 0 0 0 0 0
0 0 0 0 0 0 0 0 0 0 0 0 0 0 0 0 0 0 0 0 0 0 0 0 0 0 0 0 0 0 0 0 0 0 0 0 0 0 0 0 0 0 0
0 0 0 0 0 0 0 0 0 0 0 0 0 0 0 0 0 0 0 0 0 0 0 0 0 0 0 0 0 0 0 0 0 0 0 0 0 0 0 0 0 0 0
0 0 0 0 0 0 0 0 0 0 0 0 0 0 0 0 0 0 0 0 0 0 0 0 0 0 0 0 0 0 0 0 0 0 0 0 0 0 0 0 0 0 0
0 0 0 0 0 0 0 0 0 0 0 0 0 0 0 0 0 0 0 0 0 0 0 0 0 0 0 0 0 0 0 0 0 0 0 0 0 0 0 0 0 0 0
0 0 0 0 0 0 0 0 0 0 0 0 0 0 0 0 0 0 0 0 0 0 0 0 0 0 0 0 0 0 0 0 0 0 0 0 0 0 0 0 0 0 0
0 0 0 0 0 0 0 0 0 0 0 0 0 0 0 0 0 0 0 0 0 0 0 0 0 0 0 0 0 0 0 0 0 0 0 0 0 0 0 0 0 0 0

GEFSSE_con_prob3kmehi_036.txt.gz
EHI
2 4 8 15 33 54 72 83 90 92 94 94 93 92 90 84 74 59 40 21 9 4 2 1 0 0 0 0 0 0 0 0 0 0 0 0 0 0 0 0 0 0 0
5 6 9 19 35 56 73 83 87 87 88 88 87 85 81 73 61 45 27 14 7 2 1 0 0 0 0 0 0 0 0 0 0 0 0 0 0 0 0 0 0 0 0
13 8 10 20 37 57 73 81 83 82 80 77 73 67 59 49 37 24 13 7 4 1 0 0 0 0 0 0 0 0 0 0 0 0 0 0 0 0 0 0 0 0 0
19 10 9 22 36 53 68 76 78 77 73 66 57 47 36 25 16 10 6 4 3 1 0 0 0 0 0 0 0 0 0 0 0 0 0 0 0 0 0 0 0 0 0
17 9 10 23 34 46 60 67 68 68 65 59 50 39 27 15 7 4 3 2 2 1 0 0 0 0 0 0 0 0 0 0 0 0 0 0 0 0 0 0 0 0 0
11 6 10 21 30 38 48 52 53 55 57 57 50 40 30 18 8 3 2 1 1 0 0 0 0 0 0 0 0 0 0 0 0 0 0 0 0 0 0 0 0 0 0
8 5 6 16 23 29 34 37 40 44 50 53 49 40 31 20 10 4 2 1 0 0 0 0 0 0 0 0 0 0 0 0 0 0 0 0 0 0 0 0 0 0 0
9 6 4 8 15 20 22 25 29 34 41 45 42 35 26 16 9 5 3 1 0 0 0 0 0 0 0 0 0 1 1 0 0 0 0 0 0 0 0 0 0 0 0
8 6 2 3 7 11 13 14 17 22 27 30 29 25 18 10 6 4 2 0 0 0 1 1 1 0 0 0 0 1 1 1 1 0 0 0 0 0 0 0 0 0 0
5 3 1 0 2 4 5 5 6 9 13 15 14 12 9 5 3 2 2 1 0 0 1 2 2 2 3 4 3 1 1 3 3 2 0 0 0 0 0 0 0 0 0
4 2 1 1 1 2 2 1 1 2 4 5 5 4 4 3 1 1 1 1 1 1 2 3 3 5 8 9 6 3 2 4 4 2 0 0 0 0 0 1 1 0 0
5 4 3 2 1 1 2 1 1 1 2 2 3 4 5 4 2 1 1 1 1 1 2 3 3 6 10 9 7 5 4 4 4 2 1 0 0 0 0 1 2 1 1
7 6 5 3 2 2 2 2 2 2 3 3 4 5 6 6 4 2 1 1 1 1 1 1 2 4 7 8 7 5 4 3 3 2 1 0 0 0 0 1 2 2 2
8 8 6 4 1 1 1 1 1 1 2 3 4 4 4 4 3 1 1 1 1 1 0 0 1 2 4 6 6 3 2 1 1 1 0 0 0 0 0 0 1 1 1
10 9 7 3 1 0 0 0 0 0 0 1 2 2 2 2 1 1 0 0 1 1 0 0 1 1 1 2 2 1 0 0 0 0 0 0 0 0 0 0 0 0 0
10 8 5 2 0 0 1 0 0 0 0 0 0 1 1 1 1 1 0 0 0 0 0 0 0 0 0 0 0 0 0 0 0 0 0 0 0 0 0 0 1 1 1
6 4 2 1 0 0 0 0 0 0 0 0 0 0 0 0 0 0 0 0 0 0 0 0 0 0 0 0 0 0 0 0 0 0 0 0 0 0 0 0 0 1 1
2 1 1 0 0 0 0 0 0 0 0 0 0 0 0 0 0 0 0 0 0 0 0 0 0 0 0 0 0 0 0 0 0 0 0 0 0 0 0 0 0 0 1
1 0 0 0 0 0 0 0 0 0 0 0 0 0 0 0 0 0 0 0 0 0 0 0 0 0 0 0 0 0 0 0 0 0 0 0 0 0 0 0 0 0 0
0 0 0 0 0 0 0 0 0 0 0 0 0 0 0 0 0 0 0 0 0 0 0 0 0 0 0 0 0 0 0 0 0 0 0 0 0 0 0 0 0 0 0
0 0 0 0 0 0 0 0 0 0 0 0 0 0 0 0 0 0 0 0 0 0 0 0 0 0 0 0 0 0 0 0 0 0 0 0 0 0 0 0 0 0 0
0 0 0 0 0 0 0 0 0 0 0 0 0 0 0 0 0 0 0 0 0 0 0 0 0 0 0 0 0 0 0 0 0 0 0 0 0 0 0 0 0 0 0
0 0 0 0 0 0 0 0 0 0 0 0 0 0 0 0 0 0 0 0 0 0 0 0 0 0 0 0 0 0 0 0 0 0 0 0 0 0 0 0 0 0 0
0 0 0 0 0 0 0 0 0 0 0 0 0 0 0 0 0 0 0 0 0 0 0 0 0 0 0 0 0 0 0 0 0 0 0 0 0 0 0 0 0 0 0
0 0 0 0 0 0 0 0 0 0 0 0 0 0 0 0 0 0 0 0 0 0 0 0 0 0 0 0 0 0 0 0 0 0 0 0 0 0 0 0 0 0 0
0 0 0 0 0 0 0 0 0 0 0 0 0 0 0 0 0 0 0 0 0 0 0 0 0 0 0 0 0 0 0 0 0 0 0 0 0 0 0 0 0 0 0

GEFSSE_con_prob3kmehi_042.txt.gz
EHI
0 0 0 0 0 0 3 11 24 40 57 69 74 72 66 56 41 24 10 3 0 0 0 0 0 0 0 0 0 0 0 0 0 0 0 0 0 0 0 0 0 0 0
0 0 0 0 0 1 4 11 26 45 62 71 74 74 68 55 38 21 10 3 0 0 0 0 0 0 0 0 0 0 0 0 0 0 0 0 0 0 0 0 0 0 0
0 0 0 0 0 1 5 13 28 48 62 68 69 68 62 47 28 15 7 2 0 0 0 0 0 0 0 0 0 0 0 0 0 0 0 0 0 0 0 0 0 0 0
0 0 0 0 0 1 4 12 23 36 46 50 52 51 43 30 17 9 4 1 0 0 0 0 0 0 0 0 0 0 0 0 0 0 0 0 0 0 0 0 0 0 0
0 1 1 1 0 0 2 7 12 18 23 26 28 27 22 14 9 5 2 0 0 0 0 0 0 0 0 0 0 0 0 0 0 0 0 0 0 0 0 0 0 0 0
0 1 2 1 1 0 0 2 5 7 9 10 11 11 8 5 4 3 1 0 0 0 0 0 0 0 0 0 0 0 0 0 0 0 0 0 0 0 0 0 0 0 0
0 1 3 2 1 1 1 2 3 5 5 5 4 4 3 2 2 2 2 1 0 0 0 0 0 0 0 0 0 0 0 0 0 0 0 0 0 0 0 0 0 0 0
0 1 3 2 1 2 4 6 7 7 6 5 3 1 1 1 1 1 2 1 0 0 0 0 0 0 0 0 0 0 0 0 0 0 0 0 0 0 0 0 0 0 0
1 1 1 1 1 3 6 9 10 8 6 5 3 1 0 0 0 1 1 1 0 0 0 0 0 0 0 0 0 0 0 0 0 0 0 0 0 0 0 0 0 0 0
3 2 1 0 1 3 5 6 6 5 3 3 1 1 1 0 0 0 1 1 1 1 0 0 0 0 0 1 2 2 1 0 0 0 0 0 0 0 0 0 0 0 0
5 4 2 1 2 3 2 2 2 2 1 1 0 0 0 0 0 1 4 4 2 0 0 0 0 1 0 1 5 6 4 2 1 1 1 1 1 0 0 0 0 0 0
7 4 2 3 3 2 2 3 3 2 1 0 0 0 0 1 1 4 8 7 2 0 0 0 0 1 2 5 9 10 7 5 3 2 4 5 3 0 0 0 0 0 0
9 6 4 4 4 2 2 4 5 5 3 2 1 1 1 2 4 8 13 12 7 5 4 4 4 3 4 9 14 12 8 6 3 3 7 10 5 1 0 0 0 0 0
13 10 5 5 5 3 3 5 6 6 6 4 3 3 4 5 6 11 16 15 14 14 12 12 13 9 7 9 11 11 9 7 5 4 9 14 10 3 1 0 0 0 0
18 13 8 7 6 5 6 7 7 6 5 5 5 5 4 4 5 9 13 14 14 17 17 17 17 14 12 9 7 7 9 11 10 7 9 14 13 8 4 1 0 0 0
19 15 11 9 7 6 7 7 6 4 4 3 3 3 2 2 3 5 7 8 10 12 15 16 16 15 14 11 7 6 7 10 11 9 7 9 12 11 8 3 1 1 1
18 15 11 9 8 6 5 4 3 2 1 1 1 1 0 1 2 3 3 5 7 9 10 11 11 12 11 9 8 7 6 6 7 7 5 6 7 9 8 6 3 3 2
15 12 8 6 5 4 3 2 1 0 0 0 0 0 0 1 2 3 3 5 7 6 4 5 6 7 7 7 7 7 6 3 3 3 4 4 4 5 6 7 6 4 3
10 8 5 2 1 1 1 1 0 0 0 0 0 0 0 0 1 2 3 5 5 3 1 1 2 3 4 5 5 5 4 2 1 1 1 2 2 2 3 5 6 3 1
4 4 3 1 0 0 0 0 0 0 0 0 0 0 0 0 0 1 1 2 1 0 0 0 0 1 2 3 2 1 1 0 0 0 0 0 1 1 1 2 3 1 0
1 1 1 0 0 0 0 0 0 0 0 0 0 0 0 0 0 0 0 0 0 0 0 0 0 0 0 1 0 0 0 0 0 0 0 0 0 0 0 0 0 0 0
0 0 0 0 0 0 0 0 0 0 0 0 0 0 0 0 0 0 0 0 0 0 0 0 0 0 0 0 0 0 0 0 0 1 1 0 0 0 0 0 0 0 0
0 0 2 3 4 4 3 1 0 0 0 0 0 0 0 0 0 0 0 0 0 0 0 0 0 0 0 0 0 0 0 0 1 1 1 0 0 0 0 0 0 0 0
0 2 7 12 15 14 10 5 2 0 0 0 0 0 0 0 0 0 0 0 0 0 0 0 0 0 0 0 0 0 0 0 1 1 1 0 0 0 0 0 0 0 0
0 3 13 25 30 26 19 13 6 2 0 0 0 0 0 0 0 0 0 0 0 0 0 0 0 0 0 0 0 0 0 0 0 0 1 1 0 0 0 0 0 0 0
1 4 15 34 42 35 25 17 10 4 1 0 0 0 0 0 0 0 0 0 0 0 0 0 0 0 0 0 0 0 0 0 0 0 0 1 0 0 0 0 0 0 0

GEFSSE_con_prob3kmehi_048.txt.gz
EHI
32 22 18 16 10 5 3 4 4 4 4 4 4 3 3 4 4 4 3 3 3 3 3 3 3 3 3 3 3 3 3 3 3 3 3 3 3 3 3 3 3 3 3
29 21 17 16 10 5 3 3 4 3 3 4 4 4 4 4 4 4 3 3 3 3 3 3 3 3 3 3 3 3 3 3 3 3 3 3 3 3 3 3 3 3 3
17 14 13 13 9 5 3 3 3 3 4 4 6 6 6 4 4 3 3 3 3 3 3 3 3 3 3 3 3 3 3 3 3 3 3 3 3 3 3 3 3 3 3
9 9 11 11 8 4 3 3 3 5 7 9 10 11 9 5 3 3 3 3 3 3 3 3 3 3 3 3 3 3 3 3 3 3 3 3 3 3 3 3 3 3 3
12 12 13 12 8 4 3 3 4 6 9 11 11 12 10 5 3 3 3 3 3 3 3 3 3 3 3 3 3 3 3 3 4 3 3 3 3 3 3 3 3 3 3
19 17 17 17 12 5 3 4 5 6 8 8 8 8 7 5 3 3 3 3 3 3 3 3 3 3 3 3 3 3 3 4 5 4 4 4 3 3 3 3 3 3 3
30 24 20 21 17 8 5 5 5 5 6 5 5 5 5 4 4 3 3 3 3 3 3 3 3 3 3 3 3 3 3 4 6 5 5 6 5 3 3 3 3 3 3
43 31 20 19 17 12 9 7 6 6 6 6 5 5 5 5 4 4 3 3 3 3 3 3 3 3 3 3 3 3 3 4 4 4 6 8 5 3 3 3 3 3 3
52 34 17 13 13 12 11 10 8 8 7 6 6 5 4 4 4 3 3 3 3 3 3 3 3 3 3 3 3 3 3 3 3 4 9 12 9 5 3 3 3 3 3
53 37 18 11 11 10 10 10 10 10 8 6 5 5 4 3 3 4 4 4 4 3 4 3 3 3 4 3 3 4 4 3 3 6 16 24 19 9 5 3 3 3 3
53 41 28 21 16 13 12 11 9 8 7 6 7 8 6 4 4 5 6 7 5 4 5 4 4 5 6 5 7 9 7 4 3 9 27 41 34 17 7 3 3 3 3
52 42 35 32 26 22 17 12 10 10 10 10 12 13 9 6 6 8 11 11 8 5 6 7 8 8 8 8 13 16 11 5 4 12 36 55 50 30 15 8 5 3 3
53 44 38 38 38 35 26 17 15 17 15 14 16 18 15 12 12 16 20 19 13 9 8 11 12 9 8 10 17 19 13 6 4 14 42 65 63 47 32 19 9 5 3
65 56 49 49 49 46 36 24 19 18 16 13 14 17 18 19 19 23 26 24 19 15 14 14 13 11 10 13 17 17 14 10 7 17 44 67 69 59 46 30 16 7 4
77 71 64 58 52 45 36 26 18 14 10 9 9 11 13 17 18 19 21 22 21 22 21 17 13 11 14 16 16 14 16 16 14 20 40 62 68 62 50 36 24 13 7
81 75 63 52 44 34 25 19 13 8 6 5 5 6 6 8 10 10 12 17 20 24 24 18 12 12 14 15 13 12 13 16 16 19 31 49 59 56 47 40 32 23 17
82 71 50 37 32 24 16 11 8 5 3 3 3 3 2 2 3 4 7 10 14 17 19 15 11 12 13 14 14 12 11 11 13 15 21 32 40 42 40 39 37 33 31
81 67 45 31 26 20 14 9 6 4 2 1 1 1 0 0 0 1 4 5 6 7 9 11 11 11 12 13 14 12 10 9 9 11 13 18 24 29 31 33 33 33 33
75 65 49 34 24 17 13 9 6 4 2 1 0 0 0 0 0 1 2 3 2 3 6 9 10 9 9 9 9 8 7 8 8 8 8 11 17 23 24 22 21 21 21
60 54 43 33 23 15 10 7 5 4 3 2 1 1 0 0 0 0 1 2 2 3 5 7 7 7 5 5 4 4 4 5 7 7 7 9 13 18 19 17 13 11 11
42 39 34 28 22 15 10 7 5 4 4 3 2 1 0 0 0 0 1 1 2 2 3 4 5 4 4 3 3 3 3 4 5 7 10 12 12 13 16 18 17 12 9
30 32 31 29 27 21 16 11 9 8 6 5 3 2 1 0 0 0 1 1 1 1 2 3 3 3 3 3 3 3 3 3 4 6 9 11 10 11 14 16 17 14 11
29 33 37 43 44 36 27 19 13 10 8 5 5 5 3 1 0 0 0 0 0 1 2 2 2 3 3 3 3 3 3 3 3 4 5 6 7 7 8 9 10 11 10
26 35 54 67 67 57 44 29 17 11 9 5 5 7 4 1 0 0 0 0 0 1 1 1 1 2 2 3 3 3 3 3 3 3 3 3 4 4 4 4 5 7 8
19 36 65 83 83 74 58 39 24 16 11 8 6 6 4 2 1 0 0 0 1 2 2 1 1 2 2 3 3 3 3 3 3 3 3 3 3 3 3 4 4 5 6
14 33 66 86 87 80 66 46 30 20 14 10 7 5 4 3 2 1 0 0 1 2 3 2 2 3 3 3 3 3 3 3 3 3 3 3 3 3 3 4 4 4 4

GEFSSE_con_prob3kmehi_054.txt.gz
EHI
3 11 32 49 47 33 16 4 0 0 0 0 0 0 0 0 0 0 0 0 0 0 0 0 0 0 0 0 0 0 0 0 0 0 0 0 0 0 0 0 0 0 0
21 25 41 55 52 37 19 7 2 1 0 0 0 0 0 0 0 0 0 0 0 0 0 0 0 0 0 0 0 0 0 0 0 0 0 0 0 0 0 0 0 0 0
52 46 50 59 57 43 26 13 7 4 2 0 0 0 0 0 0 0 0 0 0 0 0 0 0 0 0 0 0 0 0 0 0 0 0 0 0 0 0 0 0 0 0
64 56 55 63 63 53 37 24 15 9 4 1 0 0 0 0 0 0 0 0 0 0 0 0 0 0 0 0 0 0 0 0 0 0 0 0 0 0 0 0 0 0 0
56 55 63 74 74 64 51 38 27 17 8 2 0 0 0 0 0 0 0 0 0 0 0 0 0 0 0 0 0 0 0 0 0 0 0 0 0 0 0 0 0 0 0
53 55 66 79 80 70 59 50 40 25 13 5 1 0 0 0 0 0 0 0 0 0 0 0 0 0 0 0 0 0 0 0 0 0 0 0 0 0 0 0 0 0 0
52 49 57 71 74 67 60 53 42 28 15 9 5 2 1 0 0 0 0 0 0 0 0 0 0 0 0 0 0 0 0 0 0 0 0 0 0 0 0 1 1 0 0
43 38 42 53 57 57 54 47 35 24 15 10 6 4 3 1 0 0 0 0 0 0 0 0 0 0 0 0 0 1 1 1 0 0 0 0 0 0 0 1 2 1 0
27 26 27 30 33 36 38 34 26 18 13 8 5 4 3 1 0 0 0 0 0 0 0 0 0 0 0 0 0 1 2 1 0 0 0 0 0 0 0 1 1 1 0
13 14 15 13 11 13 17 20 19 15 10 5 3 3 2 1 0 0 0 0 0 0 0 0 0 0 0 0 0 1 2 1 0 0 0 0 1 1 1 1 1 0 0
6 6 6 5 3 2 5 11 14 12 8 4 2 1 1 0 0 1 1 1 0 0 0 0 0 0 0 1 0 0 1 1 0 0 0 1 3 5 3 2 1 0 0
7 5 3 2 2 2 3 7 9 8 6 3 1 0 0 0 0 2 3 2 1 0 0 0 1 0 0 0 0 0 0 0 0 0 1 4 10 12 8 5 3 1 0
17 13 8 5 3 3 4 4 3 3 3 1 0 0 0 0 0 1 1 1 0 0 0 0 0 0 0 0 0 0 0 0 0 0 1 7 16 19 12 7 5 2 0
36 28 18 13 9 7 6 3 1 1 1 0 0 0 0 0 0 0 0 0 0 0 0 0 0 0 0 0 0 0 0 1 0 0 1 6 15 20 15 9 5 2 0
52 41 29 21 14 9 6 3 1 0 0 0 0 0 0 0 0 0 0 0 0 0 0 0 0 0 0 0 0 0 0 0 0 0 0 3 9 15 15 11 6 3 1
55 46 34 22 13 8 5 2 0 0 0 0 0 0 0 0 0 0 0 0 0 0 0 0 0 0 0 0 0 0 0 0 0 0 0 1 4 9 12 12 9 6 4
48 40 28 17 9 5 3 1 0 0 0 0 0 0 0 0 0 0 0 0 0 0 0 0 0 0 0 0 0 0 0 0 0 0 0 0 1 4 7 9 9 7 6
35 28 17 10 6 3 2 1 0 0 0 0 0 0 0 0 0 0 0 0 0 0 0 0 0 0 0 0 0 0 0 0 0 0 0 0 0 1 2 4 4 4 4
21 16 9 5 4 3 2 1 0 0 0 0 0 0 0 0 0 0 0 0 0 0 0 0 0 0 0 0 0 0 0 0 0 0 0 0 0 0 0 0 0 0 1
11 8 5 3 3 2 2 1 0 0 0 0 0 0 0 0 0 0 0 0 0 0 0 0 0 0 0 0 0 0 0 0 0 0 0 0 0 0 0 0 0 0 0
5 4 3 2 1 1 1 0 0 0 0 0 0 0 0 0 0 0 0 0 0 0 0 0 0 0 0 0 0 0 0 0 0 0 0 0 0 0 0 0 0 0 0
3 2 1 1 0 0 0 0 0 0 0 0 0 0 0 0 0 0 0 0 0 0 0 0 0 0 0 0 0 0 0 0 0 0 0 0 0 0 0 0 0 0 0
1 0 0 0 0 0 0 0 0 0 0 0 0 0 0 0 0 0 0 0 0 0 0 0 0 0 0 0 0 0 0 0 0 0 0 0 0 0 0 0 0 0 0
0 0 1 1 0 0 0 0 0 0 0 0 0 0 0 0 0 0 0 0 0 0 0 0 0 0 0 0 0 0 0 0 0 0 0 0 0 0 0 0 0 0 0
0 1 2 2 1 0 0 0 0 0 0 0 0 0 0 0 0 0 0 0 0 0 0 0 0 0 0 0 0 0 0 0 0 0 0 0 0 0 0 0 0 0 0
1 2 3 3 1 0 0 0 0 0 0 0 0 0 0 0 0 0 0 0 0 0 0 0 0 0 0 0 0 0 0 0 0 0 0 0 0 0 0 0 0 0 0

GEFSSE_con_prob3kmehi_060.txt.gz
EHI
3 4 12 24 42 60 70 70 61 49 37 25 18 13 8 3 1 0 0 0 0 0 0 0 0 0 0 0 0 0 0 0 0 0 0 0 0 0 0 0 0 0 0
10 9 12 23 40 59 71 72 64 49 33 21 15 10 5 1 0 0 0 0 0 0 0 0 0 0 0 0 0 0 0 0 0 0 0 0 0 0 0 0 0 0 0
26 18 13 21 40 60 73 75 67 49 29 18 12 6 2 0 0 0 0 0 0 0 0 0 0 0 0 0 0 0 0 0 0 0 0 0 0 0 0 0 0 0 0
40 27 19 27 44 62 72 74 65 46 29 18 10 4 1 0 0 0 0 0 0 0 0 0 0 0 0 0 0 0 0 0 0 0 0 0 0 0 0 0 0 0 0
46 35 33 43 54 63 70 70 61 46 30 17 8 3 1 0 0 0 0 0 0 0 0 0 0 0 0 0 0 0 0 0 0 0 0 0 0 0 0 0 0 0 0
56 47 48 59 64 67 70 68 60 48 31 14 5 1 0 0 0 0 0 0 0 0 0 0 0 0 0 0 0 0 0 0 0 0 0 0 0 0 0 0 0 0 0
67 60 58 64 69 70 70 66 58 46 30 13 3 0 0 0 0 0 0 0 0 0 0 0 0 0 0 0 0 0 0 0 0 0 0 0 0 0 0 0 0 0 0
71 67 61 60 63 67 67 62 52 40 27 13 3 0 0 0 0 0 0 0 0 0 0 0 0 0 0 0 0 0 0 0 0 0 0 0 0 0 0 0 0 0 0
70 67 60 54 55 57 58 55 49 39 28 15 4 0 0 0 0 0 0 0 0 0 0 0 0 0 0 0 0 0 0 0 0 0 0 0 0 0 0 0 0 0 0
59 56 51 47 46 45 46 49 47 39 29 16 6 1 0 0 0 0 1 0 0 0 0 0 0 0 0 0 0 0 0 0 0 0 0 0 0 0 0 0 0 0 0
37 35 33 33 34 35 37 40 37 29 20 12 4 1 0 0 0 1 2 1 1 0 1 1 1 0 0 1 0 0 0 0 0 0 0 0 0 0 0 0 0 0 0
16 15 14 17 22 26 29 27 20 13 8 4 2 0 0 0 0 0 1 2 1 1 1 2 1 0 0 0 0 0 0 0 0 0 0 0 0 0 0 0 0 0 0
6 5 5 8 13 15 15 12 7 4 2 1 0 0 0 0 0 0 0 1 1 1 1 1 1 0 0 0 0 0 0 0 0 0 0 0 0 0 0 0 0 0 0
2 2 2 4 6 5 4 3 2 1 1 0 0 0 0 0 0 0 0 0 0 0 0 0 0 0 0 0 0 0 0 0 0 0 0 0 0 0 0 1 1 0 0
0 0 1 1 2 1 0 0 0 0 0 0 0 0 0 0 0 0 0 0 0 0 0 0 0 0 0 0 0 0 0 0 0 0 0 1 1 1 1 1 1 0 0
0 0 0 0 1 0 0 0 0 0 0 0 0 0 0 0 0 0 0 0 0 0 0 0 0 0 0 0 0 0 0 0 0 0 0 1 1 1 1 1 0 0 0
0 0 0 1 1 0 0 0 0 0 0 0 0 0 0 0 0 0 0 0 0 0 0 0 0 0 0 0 0 0 0 0 0 0 0 0 0 1 1 0 0 0 0
1 1 1 1 1 0 0 0 0 0 0 0 0 0 0 0 0 0 0 0 0 0 0 0 0 0 0 0 0 0 0 0 0 0 0 0 0 0 1 0 0 0 0
4 3 2 1 0 0 0 0 0 0 0 0 0 0 0 0 0 0 0 0 0 0 0 0 0 0 0 0 0 0 0 0 0 0 0 0 0 0 0 0 1 1 0
5 5 3 1 0 0 0 0 0 0 0 0 0 0 0 0 0 0 0 0 0 0 0 0 0 0 0 0 0 0 0 0 0 0 0 0 0 0 0 0 1 1 1
5 5 3 1 1 0 0 0 0 0 0 0 0 0 0 0 0 0 0 0 0 0 0 0 0 0 0 0 0 0 0 0 0 0 0 0 0 0 0 0 1 2 2
4 4 3 2 1 0 0 0 0 0 0 0 0 0 0 0 0 0 0 0 0 0 0 0 0 0 0 0 0 0 0 0 0 0 0 0 0 0 0 0 0 1 2
4 3 1 1 1 0 0 0 0 0 0 0 0 0 0 0 0 0 0 0 0 0 0 0 0 0 0 0 0 0 0 0 0 0 0 0 0 0 0 0 0 1 1
3 1 0 0 0 0 0 0 0 0 0 0 0 0 0 0 0 0 0 0 0 0 0 0 0 0 0 0 0 0 0 0 0 0 0 0 0 0 0 0 0 0 0
2 1 0 0 0 0 0 0 0 0 0 0 0 0 0 0 0 0 0 0 0 0 0 0 0 0 0 0 0 0 0 0 0 0 0 0 0 0 0 0 0 0 0
1 0 0 0 0 0 0 0 0 0 0 0 0 0 0 0 0 0 0 0 0 0 0 0 0 0 0 0 0 0 0 0 0 0 0 0 0 0 0 0 0 0 0

GEFSSE_con_prob3kmehi_066.txt.gz
EHI
0 0 1 0 0 2 13 31 46 50 43 33 20 9 4 2 0 0 0 0 0 0 0 0 0 0 0 0 0 0 0 0 0 0 0 0 0 0 0 0 0 0 0
0 0 1 1 1 3 11 26 39 42 36 27 17 9 4 2 0 0 0 0 0 0 0 0 0 0 0 0 0 0 0 0 0 0 0 0 0 0 0 0 0 0 0
0 0 1 3 3 3 9 20 27 29 26 20 14 7 3 1 0 0 0 0 0 0 0 0 0 0 0 0 0 0 0 0 0 0 0 0 0 0 0 0 0 0 0
0 1 4 9 9 7 9 16 21 23 20 15 9 4 1 0 0 0 0 0 0 0 0 0 0 0 0 0 0 0 0 0 0 0 0 0 0 0 0 0 0 0 0
1 3 10 17 17 14 13 18 23 23 18 12 5 1 0 0 0 0 0 0 0 0 0 0 0 0 0 0 0 0 0 0 1 0 0 0 0 0 0 0 0 0 0
2 3 11 20 24 23 23 25 27 25 18 11 5 1 0 0 0 0 0 0 0 0 0 0 0 0 0 0 0 0 0 1 2 1 0 0 0 0 0 0 0 0 0
2 3 8 18 26 30 31 31 30 26 19 11 5 1 0 0 0 0 0 0 0 0 0 0 0 0 0 0 0 0 0 1 1 0 0 0 0 0 0 0 0 0 0
1 1 5 11 19 26 31 32 31 27 19 10 4 1 0 0 0 0 0 0 0 0 0 0 0 0 0 0 0 0 0 1 0 0 0 0 0 0 0 0 0 0 0
0 0 2 4 7 14 23 28 31 27 16 7 2 1 1 1 1 0 0 0 0 0 0 0 0 0 0 0 0 0 0 0 0 0 0 0 0 0 0 0 0 0 0
3 2 1 0 1 4 11 20 24 21 11 4 2 2 2 2 1 1 0 0 0 0 0 0 0 0 0 0 0 0 0 0 0 0 0 0 0 0 0 0 0 0 0
10 6 3 2 1 1 5 11 13 11 6 1 1 1 1 1 0 0 0 0 0 0 0 0 1 0 0 0 0 0 0 0 0 0 0 0 0 0 0 0 0 0 0
16 11 6 4 3 3 7 9 7 4 3 1 0 0 0 0 0 0 0 0 0 0 0 1 2 1 0 0 0 0 0 0 0 0 0 0 0 0 0 0 0 0 0
17 13 9 8 7 8 11 10 6 3 2 1 0 0 0 0 0 0 0 1 0 0 1 2 3 2 1 0 1 1 1 0 0 1 2 2 1 1 0 0 0 0 0
18 15 13 11 11 13 13 10 4 2 1 1 0 0 0 0 0 0 0 0 0 0 1 2 2 1 1 0 1 2 3 2 1 3 6 5 2 1 0 0 0 0 0
20 19 15 11 12 16 14 8 3 1 1 1 0 0 0 0 0 0 0 0 0 0 1 1 0 0 0 1 1 2 3 2 2 4 6 5 3 2 1 0 0 0 0
18 17 14 10 11 14 12 5 2 1 1 1 0 0 0 0 0 0 0 0 0 0 0 0 0 0 0 1 2 2 2 2 2 3 3 2 1 2 2 1 0 0 0
14 12 10 7 8 10 8 4 1 1 1 1 0 0 0 0 0 0 0 0 0 0 0 0 0 0 0 1 1 1 1 0 1 1 1 0 0 1 2 2 1 1 1
13 11 8 6 8 10 8 5 2 1 0 0 0 0 0 0 0 0 0 0 0 0 0 0 0 0 0 0 0 0 0 0 0 0 0 0 0 0 1 2 2 2 3
12 11 10 9 10 11 9 5 2 0 0 0 0 0 0 0 0 0 0 0 0 0 0 0 0 0 0 0 0 0 0 0 0 0 0 0 0 0 0 1 1 2 2
12 13 12 12 12 10 6 3 1 0 0 0 0 0 0 0 0 0 0 0 0 0 0 0 0 0 0 0 0 0 0 0 0 0 0 0 0 0 0 0 1 1 1
13 15 14 12 11 7 3 1 1 1 1 0 0 0 0 0 0 0 0 0 0 0 0 0 0 0 0 0 0 0 0 0 0 0 0 0 0 0 0 0 0 1 1
12 14 13 10 7 4 1 0 1 1 1 0 0 0 0 0 0 0 0 0 0 0 0 0 0 0 0 0 0 0 0 0 0 0 0 0 0 0 0 0 0 0 1
8 9 8 7 6 3 1 1 0 0 0 0 0 0 0 0 0 0 0 0 0 0 0 0 0 0 0 0 0 0 0 0 0 0 0 0 0 0 0 0 0 0 0
6 6 4 4 6 5 3 2 1 0 0 0 0 0 0 0 0 0 0 0 0 0 0 0 0 0 0 0 0 0 0 0 0 0 0 0 0 0 0 0 0 0 0
4 4 3 3 5 6 4 3 2 1 0 0 0 0 0 0 0 0 0 0 0 0 0 0 0 0 0 0 0 0 0 0 0 0 0 0 0 0 0 0 0 0 0
2 3 3 4 5 6 5 4 2 1 0 0 0 0 0 0 0 0 0 0 0 0 0 0 0 0 0 0 0 0 0 0 0 0 0 0 0 0 0 0 0 0 0

GEFSSE_con_prob3kmehi_072.txt.gz
EHI
34 29 26 16 4 1 1 1 1 1 1 0 0 0 0 0 0 0 0 0 0 0 0 0 0 0 0 0 0 0 0 0 0 0 0 1 2 1 0 0 0 0 0
46 35 28 16 4 1 1 2 2 2 1 0 0 0 0 0 0 0 0 0 0 0 0 0 0 0 0 0 0 0 0 0 0 0 0 1 1 1 0 0 0 0 0
46 33 22 14 4 0 0 1 2 2 1 0 0 0 0 0 0 0 0 0 0 0 0 0 0 0 0 0 0 0 0 0 0 0 0 0 0 0 0 0 0 0 0
29 21 15 11 4 0 0 0 1 1 0 0 0 0 0 0 0 0 0 0 0 0 0 0 0 0 0 0 0 0 0 0 0 0 0 0 0 0 0 0 0 0 0
18 15 14 11 4 0 0 0 0 0 1 1 0 0 0 0 0 0 0 0 0 0 0 0 0 0 0 0 0 0 0 1 1 0 0 0 0 0 1 0 0 0 0
17 14 13 10 4 1 0 0 0 1 2 2 1 0 0 0 0 0 0 0 0 0 0 0 0 0 0 0 0 0 2 5 4 2 2 1 0 0 0 0 0 0 0
18 13 9 8 5 1 0 0 0 1 2 3 1 0 0 0 0 0 0 0 0 0 0 0 0 0 0 0 0 0 4 10 8 4 5 3 0 0 0 0 0 0 0
24 16 9 8 6 3 1 0 0 1 2 3 2 0 0 1 1 1 0 0 0 0 0 0 0 0 0 0 0 0 4 10 8 6 7 4 1 1 1 0 0 0 0
35 22 9 5 5 3 1 0 0 1 3 3 1 0 0 1 2 1 0 0 0 0 0 0 0 0 0 0 0 0 2 6 7 5 5 4 3 4 1 0 0 0 0
42 26 8 3 2 1 1 1 1 2 3 2 1 0 0 1 1 1 0 0 0 0 0 0 0 0 0 0 0 0 1 3 4 3 4 5 6 5 2 0 0 0 0
49 31 12 5 2 0 0 1 2 2 2 2 1 0 0 0 0 1 2 1 0 1 1 1 0 0 0 0 0 0 0 1 1 2 5 9 11 8 3 1 1 0 0
57 43 27 17 11 9 7 4 1 1 1 1 1 1 0 0 1 2 3 2 1 2 2 1 0 0 0 0 0 0 0 0 1 2 6 12 14 10 4 2 2 1 0
63 56 47 42 38 33 22 9 3 3 3 4 5 4 3 2 2 3 4 3 2 1 1 0 0 0 0 0 0 1 1 1 2 3 6 13 16 11 6 4 2 1 0
71 67 67 69 70 63 43 20 12 11 8 7 8 7 5 3 3 3 4 4 3 1 1 1 1 1 1 0 0 1 2 3 5 6 8 14 18 14 8 4 2 1 1
79 79 82 85 84 77 61 38 25 20 13 9 8 6 3 2 1 1 3 3 3 4 4 3 2 1 1 0 0 1 3 5 8 9 9 10 14 14 10 5 3 2 2
84 86 87 85 80 74 64 48 30 18 13 10 6 3 1 0 0 0 1 1 2 4 6 5 3 1 0 0 0 0 1 3 7 10 7 5 6 8 8 6 4 3 3
84 84 79 72 68 63 54 39 23 12 9 8 5 1 0 0 0 0 0 0 1 2 3 3 1 0 0 0 0 0 0 1 4 6 5 2 1 2 4 4 4 3 4
77 74 67 60 57 53 42 28 16 10 7 5 3 1 0 0 0 0 1 0 0 0 0 0 0 0 0 0 0 0 0 1 1 1 1 1 1 0 1 1 2 4 5
65 63 58 56 51 43 34 25 16 11 7 2 1 1 0 0 0 0 0 0 0 0 1 1 0 0 0 0 0 0 0 1 0 0 0 0 1 0 0 0 1 3 4
54 52 51 49 44 36 29 22 15 10 6 2 0 1 0 0 0 0 0 0 0 0 1 1 0 0 0 0 0 0 0 1 1 0 0 0 0 0 1 1 1 1 1
46 45 43 39 34 29 23 18 12 7 3 1 0 1 0 0 0 0 0 0 0 0 1 1 0 0 0 0 0 0 0 0 1 0 0 0 0 0 1 1 1 0 0
39 39 38 33 26 21 18 13 8 4 2 1 1 1 0 0 0 0 0 0 0 0 0 0 0 0 0 0 0 0 0 0 0 0 0 0 0 0 0 0 1 1 1
30 31 31 30 23 19 16 10 5 3 3 4 4 2 1 0 0 0 0 0 0 0 0 0 0 0 0 0 0 0 0 0 0 0 0 0 0 0 0 0 1 1 1
23 22 24 27 26 22 16 9 5 4 4 6 8 7 3 0 0 0 0 0 0 0 0 0 0 0 0 0 0 0 0 0 0 0 0 0 0 0 0 0 0 0 0
23 22 24 30 32 26 18 11 6 4 4 6 10 11 6 2 1 0 0 1 1 0 0 0 0 0 0 0 0 0 0 0 0 0 0 0 0 0 0 0 0 0 0
26 25 27 34 37 29 20 14 9 5 5 7 12 12 7 3 2 1 1 2 2 1 0 0 0 0 0 0 0 0 0 0 0 0 0 0 0 0 0 0 0 0 0

GEFSSE_con_prob3kmehi_078.txt.gz
EHI
9 10 19 23 17 10 5 1 0 0 0 0 1 2 4 4 2 1 0 0 0 0 0 0 0 0 0 0 0 0 0 1 2 2 1 0 0 0 1 1 1 0 0
21 19 25 28 19 10 4 1 0 0 0 0 0 1 1 1 1 0 0 0 0 0 0 0 0 0 0 0 0 0 0 0 1 1 0 0 0 0 0 0 0 0 0
43 35 35 37 26 12 4 1 0 0 0 0 0 0 0 0 0 0 0 0 0 0 0 0 0 0 0 0 0 0 0 0 0 0 0 0 0 0 0 0 0 0 0
56 46 43 46 35 17 7 2 0 0 0 0 0 0 0 0 0 0 0 0 0 0 0 0 0 0 0 0 0 0 0 0 0 0 0 0 0 0 0 0 0 0 0
56 51 51 53 41 21 8 3 1 0 0 0 0 0 0 0 0 0 0 0 0 0 0 0 0 0 0 0 0 0 0 0 0 0 0 0 0 0 0 0 0 0 0
54 53 55 55 42 21 8 3 1 0 0 0 0 0 0 0 0 0 0 0 0 0 0 0 0 0 0 0 0 0 0 0 0 0 0 0 0 0 0 0 0 0 0
55 52 51 49 38 20 7 2 0 0 0 0 0 0 0 0 0 0 0 0 0 0 0 0 0 0 0 0 0 0 0 0 0 0 0 0 0 0 0 0 0 0 0
57 50 43 39 29 17 7 2 0 0 0 0 0 0 0 0 0 0 0 0 0 0 0 0 0 0 0 1 1 1 2 1 0 0 0 0 0 0 0 0 0 0 0
55 50 40 29 19 10 5 1 0 0 0 0 0 0 0 0 0 0 0 0 0 0 0 0 0 0 1 2 3 3 2 1 0 0 0 0 0 0 0 0 0 0 0
47 43 35 23 12 5 2 0 0 0 0 0 0 0 0 0 0 0 0 0 0 0 0 0 0 0 1 3 5 3 1 1 0 0 0 0 1 1 0 0 0 0 0
34 30 24 17 9 4 1 0 0 0 0 0 0 0 0 0 0 0 0 0 0 0 0 0 0 0 0 2 4 3 1 0 0 0 0 1 3 3 2 1 0 0 0
24 20 15 12 9 5 2 1 0 0 0 0 0 0 0 0 0 0 0 0 0 0 0 0 0 0 0 1 1 1 0 0 0 0 0 2 4 5 4 3 1 0 0
20 16 11 9 9 6 3 1 0 0 0 0 0 0 0 0 0 0 0 0 0 0 0 0 0 0 0 0 0 0 0 0 0 0 0 2 4 5 6 5 3 1 0
22 17 11 9 7 5 3 1 0 0 0 0 0 0 0 0 0 0 0 0 0 0 0 0 0 0 0 0 0 0 0 0 0 0 0 1 4 6 7 5 3 1 0
26 21 16 11 7 5 3 2 0 0 0 0 0 0 0 0 0 0 0 0 0 0 0 0 0 0 0 0 0 0 0 0 0 0 0 1 3 6 6 4 1 0 0
28 26 23 18 13 8 5 3 1 0 0 0 0 0 0 0 0 0 0 0 0 0 0 0 0 0 0 0 0 0 0 0 0 0 0 0 2 3 4 3 1 0 0
31 30 27 23 17 11 7 4 2 1 0 0 0 0 0 0 0 0 0 0 0 0 0 0 0 0 0 0 0 0 0 0 0 0 0 0 0 1 2 2 1 0 0
33 31 28 25 19 12 7 4 3 2 1 0 0 0 0 0 0 0 0 0 0 0 0 0 0 0 0 0 0 0 0 0 0 0 0 0 0 0 0 0 0 0 0
29 27 27 25 19 12 6 4 3 2 1 0 0 0 0 0 0 0 0 0 0 0 0 0 0 0 0 0 0 0 0 0 0 0 0 0 0 0 0 0 0 0 0
21 23 25 23 17 12 7 4 3 1 0 0 0 0 0 0 0 0 0 0 0 0 0 0 0 0 0 0 0 0 0 0 0 0 0 0 0 0 0 0 0 0 0
15 19 22 21 16 11 7 4 2 1 0 0 0 0 0 0 0 0 0 0 0 0 0 0 0 0 0 0 0 0 0 0 0 0 0 0 0 0 0 0 0 0 0
13 16 19 19 14 8 5 4 2 1 0 0 0 0 0 0 0 0 0 0 0 0 0 0 0 0 0 0 0 0 0 0 0 0 0 0 0 0 0 0 0 0 0
14 15 16 15 12 8 5 3 1 0 0 0 0 0 0 0 0 0 0 0 0 0 0 0 0 0 0 0 0 0 0 0 0 0 0 0 0 0 0 0 0 0 0
14 13 11 10 8 6 4 2 1 0 0 0 0 0 0 0 0 0 0 0 0 0 0 0 0 0 0 0 0 0 0 0 0 0 0 0 0 0 0 0 0 0 0
13 10 7 5 4 2 1 1 0 0 0 0 0 0 0 0 0 0 0 0 0 0 0 0 0 0 0 0 0 0 0 0 0 0 0 0 0 0 0 0 0 0 0
12 9 5 3 2 1 0 0 0 0 0 0 0 0 0 0 0 0 0 0 0 0 0 0 0 0 0 0 0 0 0 0 0 0 0 0 0 0 0 0 0 0 0

GEFSSE_con_prob3kmehi_084.txt.gz
EHI
6 10 19 26 33 40 45 48 47 42 38 33 24 14 7 3 1 0 0 0 0 0 0 0 0 0 0 0 0 0 0 0 1 2 2 1 0 0 0 1 2 1 0
16 16 22 30 39 46 48 46 40 33 29 24 17 10 5 2 1 0 0 0 0 0 0 0 0 0 0 0 0 0 0 0 0 1 1 0 0 0 0 1 2 1 0
34 26 25 35 44 49 47 40 29 21 17 14 11 6 2 1 0 0 0 0 0 0 0 0 0 0 0 0 0 0 0 0 0 0 0 0 0 0 0 1 1 0 0
46 33 28 36 45 47 42 31 21 13 9 8 7 4 1 0 0 0 0 0 0 0 0 0 0 0 0 0 0 0 0 0 0 0 0 0 0 0 0 0 0 0 0
48 37 31 38 43 41 35 25 14 7 4 5 5 3 1 0 0 0 0 0 0 0 0 0 0 0 0 0 0 0 0 0 0 0 0 0 0 0 0 0 0 0 0
51 41 37 41 41 36 32 22 10 3 2 3 3 2 1 0 0 0 0 0 0 0 0 0 0 0 0 0 0 0 0 0 0 0 0 0 0 0 0 0 0 0 0
59 51 46 45 39 32 29 20 9 2 1 1 1 1 0 0 0 0 0 0 0 0 0 0 0 0 0 0 0 0 0 0 0 0 0 0 0 0 0 0 0 0 0
70 65 59 49 35 27 24 17 8 2 0 0 0 0 0 0 0 0 0 0 0 0 0 0 0 0 0 0 0 0 0 0 0 0 0 0 0 0 0 0 0 0 0
78 76 69 55 37 24 18 12 6 2 0 0 0 0 0 0 0 0 0 0 0 0 0 0 0 0 0 0 0 0 0 0 0 0 0 0 0 0 0 0 0 0 0
79 78 74 65 48 30 16 9 3 0 0 0 0 0 0 0 0 0 0 0 0 0 0 0 0 0 0 0 0 0 0 0 0 0 0 0 0 0 0 0 0 0 0
72 70 70 68 56 37 20 9 4 1 0 0 0 0 0 0 0 0 0 0 0 0 0 0 0 0 0 0 0 0 0 0 0 0 0 0 0 0 0 0 0 0 0
62 60 59 59 51 36 21 13 7 3 0 0 0 0 0 0 0 0 0 0 0 0 0 0 0 1 2 1 1 1 0 0 0 0 0 0 0 0 0 0 0 0 0
57 54 50 47 40 30 21 16 10 4 0 0 0 0 0 0 0 0 0 0 0 0 0 0 1 2 3 2 2 2 1 0 0 0 0 0 0 0 1 1 0 0 0
52 49 45 40 33 25 21 18 11 4 0 0 0 0 0 0 0 0 0 0 0 0 0 0 1 2 2 2 2 2 1 0 0 0 0 0 0 0 1 1 0 0 1
41 40 39 35 26 20 19 17 10 4 1 0 0 0 0 0 0 0 0 0 0 0 0 0 0 1 1 0 1 1 0 0 0 0 0 0 0 0 1 1 0 0 1
28 28 29 26 17 12 13 12 8 3 1 0 0 0 0 0 0 0 0 0 0 0 0 0 0 0 0 0 0 0 0 0 0 0 0 0 0 0 0 0 0 0 1
15 16 17 16 11 7 6 5 4 2 1 0 0 0 0 0 0 0 0 0 0 0 0 0 0 0 0 0 0 0 0 0 0 0 0 0 0 0 0 0 0 0 0
7 7 9 10 7 3 1 1 1 1 0 0 0 0 0 0 0 0 0 0 0 0 0 0 0 0 0 0 0 0 0 0 0 0 0 0 0 0 0 0 0 0 0
3 4 6 7 6 2 0 0 0 0 0 0 0 0 0 0 0 0 0 0 0 0 0 0 0 0 0 0 0 0 0 0 0 0 0 0 0 0 0 0 0 0 0
2 4 6 7 5 2 0 0 0 0 0 0 0 0 0 0 0 0 0 0 0 0 0 0 0 0 0 0 0 0 0 0 0 0 0 0 0 0 0 0 0 0 0
4 5 5 5 3 1 1 0 0 0 0 0 0 0 0 0 0 0 0 0 0 0 0 0 0 0 0 0 0 0 0 0 0 0 0 0 0 0 0 0 0 0 0
7 6 4 3 2 1 1 0 0 0 0 0 0 0 0 0 0 0 0 0 0 0 0 0 0 0 0 0 0 0 0 0 0 0 0 0 0 0 0 0 0 0 0
8 5 3 3 2 1 0 0 0 0 0 0 0 0 0 0 0 0 0 0 0 0 0 0 0 0 0 0 0 0 0 0 0 0 0 0 0 0 0 0 0 0 0
7 6 4 3 1 0 0 0 0 0 0 0 0 0 0 0 0 0 0 0 0 0 0 0 0 0 0 0 0 0 0 0 0 0 0 0 0 0 0 0 0 0 0
7 7 6 5 1 0 0 0 0 0 0 0 0 0 0 0 0 0 0 0 0 0 0 0 0 0 0 0 0 0 0 0 0 0 0 0 0 0 0 0 0 0 0
7 7 7 5 2 0 0 0 0 0 0 0 0 0 0 0 0 0 0 0 0 0 0 0 0 0 0 0 0 0 0 0 0 0 0 0 0 0 0 0 0 0 0

GEFSSE_con_prob3kmehi_090.txt.gz
EHI
8 11 9 4 1 4 9 19 29 32 24 14 6 1 0 0 0 0 0 0 0 0 0 0 0 0 0 0 0 0 0 0 0 0 0 0 0 1 1 1 0 0 0
17 17 13 6 4 6 11 20 29 31 23 12 4 0 0 0 0 0 0 0 0 0 0 0 0 0 0 0 0 0 0 0 0 0 0 0 0 0 0 0 0 0 0
27 23 16 10 8 8 13 20 25 23 16 8 2 0 0 0 0 0 0 0 0 0 0 0 0 0 0 0 0 0 0 0 0 0 0 0 0 0 0 0 0 0 0
30 28 21 15 11 9 12 17 18 14 9 5 2 0 0 0 0 0 0 0 0 0 0 0 0 0 0 0 0 0 0 0 0 0 0 0 0 0 0 0 0 0 0
30 31 31 22 13 10 12 15 14 10 7 5 2 0 0 0 0 0 0 0 0 0 0 0 0 0 0 0 0 0 0 0 0 0 0 0 0 0 0 0 0 0 0
27 29 33 26 15 12 12 12 11 9 7 5 3 1 0 0 0 0 0 0 0 0 0 0 0 0 0 0 0 0 0 0 0 0 0 0 0 0 0 0 0 0 0
18 22 29 27 19 13 10 8 8 8 6 5 3 1 0 0 0 0 0 0 0 0 0 0 0 0 0 0 0 0 0 0 0 0 0 0 0 0 0 0 0 0 0
13 19 25 24 18 13 8 5 5 5 4 3 1 0 0 0 0 0 0 0 0 0 0 0 0 0 0 0 0 0 0 0 0 0 0 0 0 0 0 0 0 0 0
11 18 22 17 11 9 7 4 4 4 3 2 1 1 0 0 0 0 0 0 0 0 0 0 0 0 0 0 0 0 0 0 0 0 0 0 0 0 0 0 0 0 0
14 18 18 11 6 4 3 3 4 4 3 3 3 2 1 0 0 0 0 0 0 0 0 0 0 0 0 0 0 0 0 0 0 0 0 0 0 0 0 0 0 0 0
25 23 19 13 7 3 2 2 3 3 3 3 3 2 1 0 0 0 0 0 0 0 0 0 0 0 0 0 0 0 0 0 0 0 0 0 0 0 0 0 0 0 0
39 32 23 16 11 7 4 4 4 3 2 2 3 3 1 0 0 0 0 0 0 0 0 0 0 0 0 0 0 0 0 0 0 0 0 0 0 0 0 0 0 0 0
46 38 26 21 18 14 10 10 9 6 2 1 2 3 2 1 0 0 0 0 0 0 0 0 0 0 0 0 0 0 0 0 0 0 0 0 0 0 0 0 0 0 0
46 39 31 29 29 26 22 17 12 6 2 1 1 2 2 2 1 1 1 1 0 0 0 0 0 0 0 0 0 0 0 0 0 0 1 0 0 0 0 0 0 0 0
47 41 37 37 39 40 35 24 13 6 2 1 0 0 1 2 2 2 2 1 0 0 0 0 0 0 0 0 0 0 0 0 0 0 0 0 0 0 0 0 0 0 0
49 45 42 42 43 43 36 26 15 7 3 1 0 0 1 2 3 2 2 1 0 0 0 0 0 0 0 0 0 0 0 0 0 0 0 0 0 0 0 0 0 0 0
46 45 43 41 40 38 30 22 16 9 5 2 1 1 1 2 3 3 2 0 0 0 0 0 0 0 0 0 0 0 0 0 0 0 0 0 0 0 0 0 0 0 0
38 39 39 36 35 34 31 24 15 10 7 4 3 2 1 2 3 2 1 0 0 0 0 0 0 0 0 0 0 0 0 0 0 0 0 0 0 0 0 0 0 0 0
30 31 32 33 34 34 33 28 17 11 8 5 3 2 2 3 3 1 0 0 0 0 0 0 0 0 0 0 0 0 0 0 0 0 0 0 0 0 0 0 0 0 0
25 26 28 31 35 36 33 27 19 12 8 3 1 1 2 2 2 1 0 0 0 0 0 0 0 0 0 0 0 0 0 0 0 0 0 0 0 0 0 0 0 0 0
24 24 24 25 29 34 30 25 19 13 6 2 1 0 1 1 1 0 0 0 0 0 0 0 0 0 0 0 0 0 0 0 0 0 0 0 0 0 0 0 0 0 0
21 20 19 18 20 23 25 23 19 13 6 2 2 1 0 0 0 0 0 0 0 0 0 0 0 0 0 0 0 0 0 0 0 0 0 0 0 0 0 0 0 0 0
16 15 13 12 13 15 17 17 14 9 4 2 3 2 1 0 0 0 0 0 0 0 0 0 0 0 0 0 0 0 0 0 0 0 0 0 0 0 0 0 0 0 0
12 11 10 10 11 12 12 10 6 4 2 2 3 3 1 0 0 0 0 0 0 0 0 0 0 0 0 0 0 0 0 0 0 0 0 0 0 0 0 0 0 0 0
8 7 8 9 10 11 9 5 3 2 1 1 2 3 2 0 0 0 0 0 0 0 0 0 0 0 0 0 0 0 0 0 0 0 0 0 0 0 0 0 0 0 0
6 5 6 8 9 9 7 3 2 2 1 1 2 2 1 0 0 0 0 0 0 0 0 0 0 0 0 0 0 0 0 0 0 0 0 0 0 0 0 0 0 0 0

GEFSSE_con_prob3kmehi_096.txt.gz
EHI
61 60 61 50 27 9 2 1 0 0 0 0 0 0 0 0 0 0 0 0 0 0 0 0 0 0 0 0 1 2 2 3 5 6 4 1 1 2 1 0 0 0 0
70 68 67 56 32 13 4 1 1 0 0 0 0 0 0 0 0 0 0 0 0 0 0 0 0 0 0 0 0 1 1 1 2 4 3 1 1 2 1 0 0 0 0
74 69 67 62 44 22 9 3 1 0 0 0 0 0 0 0 0 0 0 0 0 0 0 0 0 0 0 0 0 0 0 0 0 1 1 0 0 1 1 0 0 0 0
62 59 62 63 50 30 16 6 1 0 0 0 0 0 0 0 0 0 0 0 0 0 0 0 0 0 0 0 0 0 0 0 0 0 0 0 0 0 0 0 0 0 0
52 56 63 61 47 30 17 7 2 0 0 0 0 1 1 1 0 0 0 0 0 0 0 0 0 0 0 0 0 0 0 0 0 0 0 0 0 0 0 0 0 0 0
56 59 62 57 43 26 13 6 3 1 0 0 1 2 2 2 1 0 0 0 0 0 0 0 0 0 0 0 0 0 0 0 1 0 0 0 0 0 0 0 0 0 0
64 61 56 50 40 23 11 6 4 3 1 0 1 2 2 2 1 0 1 1 0 0 0 0 0 0 0 0 0 0 0 1 2 1 0 0 0 1 1 0 0 0 0
72 62 49 42 34 19 9 6 5 3 1 0 0 1 1 1 0 1 2 2 1 0 0 0 0 0 0 0 0 0 1 2 2 1 1 0 1 2 1 0 0 0 0
76 61 41 32 25 14 7 5 4 3 1 0 0 0 0 0 1 2 2 2 1 0 0 0 0 0 0 0 0 0 1 3 2 1 1 0 1 2 1 0 0 0 0
74 56 34 24 19 10 4 3 3 2 1 0 0 0 0 0 1 1 1 1 0 0 0 0 0 0 0 0 0 0 1 2 2 1 1 0 1 1 1 0 0 0 0
71 55 35 25 18 8 3 1 1 1 0 0 0 0 0 0 0 1 2 2 1 0 0 0 0 0 0 0 0 0 1 1 1 2 1 1 1 0 0 0 0 0 0
69 57 44 33 19 8 6 4 1 0 0 0 0 0 0 0 2 4 4 3 1 0 0 0 0 0 0 0 0 1 1 1 2 3 3 2 1 0 0 0 0 0 0
67 60 52 42 25 15 15 9 3 2 1 1 1 1 1 1 4 7 6 3 1 1 1 0 0 0 0 0 0 1 1 1 2 4 5 5 3 0 0 0 0 0 0
64 62 59 52 40 35 31 18 8 5 4 5 7 4 2 3 5 7 6 4 2 2 2 1 0 0 0 0 0 0 1 1 3 5 6 7 5 2 0 0 0 0 0
65 65 66 63 59 58 50 31 16 10 8 13 15 9 5 5 7 9 9 6 4 4 4 2 1 0 0 0 0 0 1 3 5 5 4 4 5 3 1 0 0 0 0
71 70 69 67 67 67 58 40 23 12 13 19 19 12 8 10 14 16 12 7 5 6 5 3 2 1 0 0 0 1 1 5 8 6 3 2 3 2 1 0 0 0 0
74 71 65 61 63 64 56 42 25 14 16 22 22 17 14 16 18 17 12 6 5 6 5 3 1 0 0 0 1 1 2 5 8 8 5 3 2 1 0 0 0 0 1
70 67 59 56 58 60 55 45 31 23 24 29 28 22 19 18 16 11 6 5 4 4 4 2 0 0 0 0 1 1 2 5 7 6 5 4 3 1 1 1 0 0 1
65 62 57 57 59 57 55 51 43 38 37 35 32 27 22 17 11 6 4 6 5 3 3 2 1 1 0 0 0 0 1 3 4 3 3 3 3 2 1 1 0 0 1
59 57 55 57 60 56 53 53 51 46 42 37 34 30 22 14 8 4 5 7 5 2 2 3 2 1 1 0 0 0 0 1 1 1 1 2 3 3 3 2 1 0 0
53 52 52 53 55 53 52 54 52 47 40 35 32 27 19 12 8 4 4 6 5 3 3 3 2 1 0 0 0 0 0 0 0 1 1 1 1 3 4 4 2 1 1
48 49 48 48 48 48 50 53 51 47 39 31 27 21 14 11 9 5 4 5 5 5 4 3 2 1 0 0 0 0 0 0 0 1 2 1 2 4 5 4 2 2 2
47 47 46 43 41 42 45 44 42 39 32 26 22 16 11 9 7 4 4 6 6 5 4 3 2 1 0 0 0 0 0 0 0 0 1 2 4 5 4 3 3 3 4
42 43 43 41 38 39 39 34 31 27 23 19 17 13 9 5 3 4 5 7 6 6 5 3 2 2 1 0 0 0 0 0 0 0 0 1 2 3 3 3 4 5 5
33 35 39 40 39 38 35 31 27 23 21 18 15 12 7 3 1 2 6 7 6 5 3 2 3 3 2 1 1 0 0 0 0 0 0 0 0 2 3 4 5 6 8
27 29 34 40 42 38 34 31 28 26 24 21 18 12 6 2 1 2 5 7 5 4 2 2 3 4 2 2 2 1 0 0 0 0 0 0 1 2 5 6 5 7 10

GEFSSE_con_prob3kmehi_102.txt.gz
EHI
9 19 35 46 46 38 24 12 9 9 8 7 4 2 1 0 0 0 0 0 0 0 0 0 0 0 0 0 0 0 1 1 0 0 0 0 0 0 0 0 0 0 0
27 31 46 56 54 43 27 13 7 5 5 4 2 1 0 0 0 0 0 0 0 0 0 0 0 0 0 0 0 0 1 1 0 0 0 0 0 0 0 0 0 0 0
56 54 59 68 66 52 32 14 5 2 1 1 0 0 0 0 0 0 0 0 0 0 0 0 0 0 0 0 0 0 1 1 0 0 0 0 0 0 0 0 0 0 0
76 69 69 76 75 60 37 16 4 1 0 0 0 0 0 0 0 0 0 0 0 0 0 0 0 0 0 0 0 0 0 0 0 0 0 0 0 0 0 0 0 0 0
80 75 76 80 78 63 40 16 4 0 0 0 0 0 0 0 0 0 0 0 0 0 0 0 0 0 0 0 0 0 0 0 0 0 0 0 0 0 0 0 0 0 0
78 76 78 82 78 63 40 17 4 0 0 0 0 0 0 0 0 0 0 0 0 0 0 0 0 0 0 0 0 0 0 0 0 0 0 0 0 0 0 0 0 0 0
79 75 76 81 78 63 39 17 5 1 0 0 0 0 0 0 0 0 0 0 0 0 0 0 0 0 0 0 0 0 0 0 0 0 0 0 0 0 0 0 0 0 0
81 75 71 73 71 57 36 17 6 2 0 0 0 0 0 0 0 0 0 0 0 0 0 0 0 0 0 0 0 0 0 0 0 0 0 0 0 0 0 0 0 0 0
78 73 64 57 52 43 28 15 7 2 0 0 0 0 0 0 0 0 0 0 0 0 0 0 0 0 0 0 0 0 0 1 0 0 0 0 0 0 0 0 0 0 0
65 61 53 44 37 29 20 12 7 3 0 0 0 0 0 0 0 0 0 0 0 0 0 0 0 0 0 1 1 0 0 0 0 0 0 0 0 0 0 0 0 0 0
50 48 44 38 31 23 16 10 6 3 1 0 0 0 0 0 0 0 0 1 1 0 0 0 0 0 1 1 0 0 0 0 0 0 0 0 0 0 0 0 0 0 0
41 39 38 34 27 19 14 10 7 4 1 0 0 0 0 0 0 0 0 1 1 0 0 0 0 0 0 0 0 0 0 0 0 0 0 1 2 1 0 0 0 0 0
35 33 30 27 21 14 11 10 8 4 1 0 0 0 0 0 0 0 0 1 1 0 0 0 0 0 0 0 0 0 0 0 0 0 0 2 2 2 0 0 0 0 0
33 30 25 21 16 10 7 6 4 3 1 0 0 0 0 0 0 0 0 0 0 0 0 0 0 0 0 0 0 0 0 0 0 0 0 1 2 1 0 0 0 0 0
37 32 25 19 14 9 5 3 1 1 0 0 0 0 0 0 0 0 0 0 0 0 0 0 0 0 0 0 0 0 0 0 0 0 0 0 0 0 0 0 0 0 0
40 34 26 19 15 10 6 3 1 0 0 0 0 0 0 0 0 0 0 0 0 0 0 0 0 0 0 0 0 0 0 0 0 0 0 0 0 0 0 0 0 0 0
39 35 28 22 17 12 7 3 2 1 0 0 0 0 0 0 0 0 0 0 0 0 0 0 0 0 0 0 0 0 0 0 0 0 0 0 0 0 0 0 0 0 1
40 36 31 26 20 14 8 5 3 2 1 2 2 1 0 0 0 0 0 0 0 0 0 0 0 0 0 0 0 0 0 0 0 0 0 0 0 0 0 0 0 1 1
42 38 34 29 23 16 11 8 7 6 5 4 3 2 1 1 0 0 0 0 0 0 0 0 0 0 0 0 0 0 0 0 0 0 0 0 0 0 0 0 1 1 1
41 38 36 31 23 16 13 12 12 10 7 5 4 3 2 2 1 0 0 0 0 0 0 0 0 0 0 0 0 0 0 0 0 0 0 0 0 0 0 0 0 0 0
38 37 35 30 22 16 15 15 14 10 6 4 4 3 3 2 1 0 0 0 0 0 0 0 0 0 0 0 0 0 0 0 0 0 0 0 0 0 0 0 0 0 0
36 34 32 28 21 17 16 15 13 8 4 3 3 3 3 2 1 0 0 0 0 0 0 0 0 0 0 0 0 0 0 0 0 0 0 0 0 0 0 0 0 0 0
34 31 28 25 20 16 12 11 10 8 4 3 3 3 2 1 0 0 0 0 0 0 0 0 0 0 0 0 0 0 0 0 0 0 0 0 0 0 0 0 0 0 0
31 28 24 21 17 12 9 8 7 6 4 3 3 1 1 0 0 0 0 0 0 0 0 0 0 0 0 0 0 0 0 0 0 0 0 0 0 0 0 0 0 0 0
29 25 22 19 15 9 6 6 5 4 3 3 2 1 0 0 0 1 0 0 0 0 0 0 0 0 0 0 0 0 0 0 0 0 0 0 0 0 0 0 0 0 0
28 25 21 19 15 9 5 4 4 4 3 3 1 0 0 0 0 1 0 0 0 0 0 0 0 0 0 0 0 0 0 0 0 0 0 0 0 0 0 0 0 0 0

GEFSSE_con_prob3kmehi_108.txt.gz
EHI
14 19 27 36 49 58 56 53 50 49 47 41 32 20 10 5 2 0 0 0 0 0 0 0 0 0 0 0 0 0 0 0 0 0 0 0 0 0 0 0 0 0 0
26 28 36 46 56 62 60 53 47 44 40 34 27 18 10 5 2 0 0 0 0 0 0 0 0 0 0 0 0 0 0 0 0 0 0 0 0 0 0 0 0 0 0
45 41 45 58 66 67 64 54 44 36 28 24 20 13 7 4 1 0 0 0 0 0 0 0 0 0 0 0 0 0 0 0 0 0 0 0 0 0 0 0 0 0 0
59 51 52 66 72 69 63 51 38 28 20 16 13 8 4 1 0 0 0 0 0 0 0 0 0 0 0 0 0 0 0 0 0 0 0 0 0 0 0 0 0 0 0
65 58 59 71 76 70 59 43 29 21 16 12 9 6 2 0 0 0 0 0 0 0 0 0 0 0 0 0 0 0 0 0 0 0 0 0 0 0 0 0 0 0 0
70 64 65 75 77 69 53 35 23 16 13 10 8 5 1 0 0 0 0 0 0 0 0 0 0 0 0 0 0 0 0 0 0 0 0 0 0 0 0 0 0 0 0
77 71 70 75 76 66 48 31 20 14 11 9 7 3 0 0 0 0 0 0 0 0 0 0 0 0 0 0 0 0 0 0 0 0 0 0 0 0 0 0 0 0 0
84 79 73 71 67 57 42 28 19 13 10 6 4 1 0 0 0 0 0 0 0 0 0 0 0 0 0 0 0 0 0 0 0 0 0 0 0 0 0 0 0 0 0
85 83 75 64 53 44 33 24 17 12 8 4 1 0 0 0 0 0 0 0 0 0 0 0 0 0 0 0 0 0 0 0 0 0 0 0 0 0 0 0 0 0 0
79 79 74 61 47 33 23 17 12 8 5 3 1 0 0 0 0 0 0 0 0 0 0 0 0 0 0 0 0 0 0 0 0 0 0 0 0 0 0 0 0 0 0
69 67 64 55 43 31 21 14 9 5 3 1 0 0 0 0 0 0 0 0 0 0 0 0 0 0 0 0 0 0 0 0 0 0 0 0 0 0 0 0 0 0 0
57 51 46 40 33 27 21 16 10 6 2 0 0 0 0 0 0 0 0 0 0 0 0 0 0 0 0 0 0 0 0 0 0 0 0 0 0 0 0 0 0 0 0
47 41 34 28 23 20 20 18 14 9 3 1 0 0 0 0 0 0 0 0 0 0 0 0 0 0 0 0 0 0 0 0 0 0 0 0 0 0 0 0 0 0 0
38 35 31 26 20 16 17 18 16 10 4 1 0 0 0 0 0 0 0 0 0 0 0 0 0 0 0 0 0 0 0 0 0 0 0 0 0 0 0 0 0 0 0
32 30 28 25 20 15 13 15 14 8 2 0 0 0 0 0 0 0 0 0 0 0 0 0 0 0 0 0 0 0 0 0 0 0 0 0 0 0 0 0 0 0 0
30 27 24 22 18 13 11 10 8 4 1 0 0 0 0 0 0 0 0 0 0 0 0 0 0 0 0 0 0 0 0 0 0 0 0 0 0 0 0 0 0 0 0
29 27 23 19 14 10 8 6 4 1 0 0 0 0 0 0 0 0 0 0 0 0 0 0 0 0 0 0 0 0 0 0 0 0 0 0 0 0 0 0 0 0 0
29 26 22 17 12 8 6 4 1 0 0 0 0 0 0 0 0 0 0 0 0 0 0 0 0 0 0 0 0 0 0 0 0 0 0 0 0 0 0 0 0 0 0
27 25 21 15 11 8 5 2 1 0 0 0 0 0 0 0 0 0 0 0 0 0 0 0 0 0 0 0 0 0 0 0 0 0 0 0 0 0 0 0 0 0 0
23 23 20 15 12 9 5 2 1 0 0 0 0 0 0 0 0 0 0 0 0 0 0 0 0 0 0 0 0 0 0 0 0 0 0 0 0 0 0 0 0 0 0
17 17 17 14 12 10 6 3 1 0 0 0 0 0 0 0 1 1 0 0 0 0 0 0 0 0 0 0 0 0 0 0 0 0 0 0 0 0 0 0 0 0 0
13 13 13 12 10 8 6 3 2 1 1 0 0 0 1 1 1 1 0 0 0 0 0 0 0 0 0 0 0 0 0 0 0 0 0 0 0 0 0 0 0 0 0
13 12 11 11 9 7 4 3 3 3 3 1 0 0 1 1 1 1 0 0 0 0 0 0 0 0 0 0 0 0 0 0 0 0 0 0 0 0 0 0 0 0 0
15 14 13 12 10 8 5 4 5 5 4 3 1 0 1 1 0 0 0 0 0 0 0 0 0 0 0 0 0 0 0 0 0 0 0 0 0 0 0 0 0 0 0
18 17 16 13 12 11 9 6 4 4 4 4 2 0 0 0 0 0 0 0 0 0 0 0 0 0 0 0 0 0 0 0 0 0 0 0 0 0 0 0 0 0 0
19 19 17 14 13 14 12 7 4 3 4 3 2 1 0 0 0 0 0 0 0 0 0 0 0 0 0 0 0 0 0 0 0 0 0 0 0 0 0 0 0 0 0

GEFSSE_con_prob3kmehi_114.txt.gz
EHI
15 18 17 12 10 14 22 27 30 29 26 20 14 8 3 1 0 0 0 0 0 0 0 0 0 0 0 0 0 0 0 0 0 0 0 0 0 0 0 0 0 0 0
18 20 19 15 14 18 25 30 34 33 30 24 15 7 2 0 0 0 0 0 0 0 0 0 0 0 0 0 0 0 0 0 0 0 0 0 0 0 0 0 0 0 0
20 21 19 18 20 22 27 33 36 35 31 23 12 5 2 0 0 0 0 0 0 0 0 0 0 0 0 0 0 0 0 0 0 0 0 0 0 0 0 0 0 0 0
20 20 21 24 27 26 27 31 32 29 24 16 8 3 1 0 0 0 0 0 0 0 0 0 0 0 0 0 0 0 0 0 0 0 0 0 0 0 0 0 0 0 0
20 23 29 31 30 29 26 25 24 20 14 9 6 3 1 0 0 0 0 0 0 0 0 0 0 0 0 0 0 0 0 0 0 0 0 0 0 0 0 0 0 0 0
20 24 33 34 28 24 21 17 15 12 8 6 4 2 1 0 0 0 0 0 0 0 0 0 0 0 0 0 0 0 0 0 0 0 0 0 0 0 0 0 0 0 0
21 24 32 34 25 17 12 10 9 7 5 3 2 1 0 0 0 0 0 0 0 0 0 0 0 0 0 0 0 0 0 0 0 0 0 0 0 0 0 0 0 0 0
22 24 30 30 21 12 7 6 6 5 2 1 0 0 0 0 0 0 0 0 0 0 0 0 0 0 0 0 0 0 0 0 0 0 0 0 0 0 0 0 0 0 0
23 27 29 23 14 8 6 5 5 3 1 0 0 0 0 0 0 0 0 0 0 0 0 0 0 0 0 0 0 0 0 0 0 0 0 0 0 0 0 0 0 0 0
27 29 27 18 10 5 3 3 2 1 0 0 1 1 0 0 0 0 0 0 0 0 0 0 0 0 0 0 0 0 0 0 0 0 0 0 0 0 0 0 0 0 0
37 32 26 19 12 6 2 1 0 0 0 0 1 1 0 0 0 0 0 0 0 0 0 0 0 0 0 0 0 0 0 0 0 0 0 0 0 0 0 0 0 0 0
51 38 25 20 16 10 5 3 2 1 0 0 1 1 0 0 0 0 1 0 0 0 0 0 0 0 0 0 0 0 0 0 0 0 0 0 0 0 0 0 0 0 0
56 43 27 20 17 14 11 8 5 3 1 0 0 0 0 0 0 0 0 0 0 0 0 0 0 0 0 0 0 0 0 0 0 0 0 0 0 0 0 0 0 0 0
53 44 31 23 19 17 16 13 8 5 3 1 0 0 0 0 0 0 0 0 0 0 0 0 0 0 0 0 0 0 1 1 1 0 0 0 0 0 0 0 0 0 0
50 43 33 27 23 21 19 16 10 6 5 2 0 0 0 0 0 0 0 0 0 0 0 0 0 0 0 0 0 0 1 1 1 0 0 0 0 0 0 0 0 0 0
47 43 34 27 24 22 20 17 11 7 6 4 2 1 0 0 0 0 0 0 0 0 0 0 0 0 0 0 0 0 0 0 0 0 0 0 0 0 0 0 0 0 0
47 45 36 27 22 20 19 17 12 7 5 5 4 2 0 0 0 0 0 0 0 0 0 0 0 0 0 0 0 0 0 0 0 0 0 0 0 0 0 0 0 0 0
50 46 37 26 21 20 18 17 14 9 6 6 5 2 0 0 1 1 1 0 0 0 0 0 0 0 0 0 0 0 0 0 0 0 0 0 0 0 0 0 0 0 0
49 44 34 24 21 21 19 18 16 12 8 6 4 2 1 0 1 2 1 0 1 1 0 0 0 0 0 0 0 0 0 0 0 0 0 0 0 0 0 0 0 0 0
44 40 33 26 23 23 22 19 16 12 8 5 4 2 1 0 1 2 2 1 2 2 1 0 0 0 0 0 0 0 0 0 0 0 0 0 0 0 0 0 0 0 0
40 38 34 29 27 25 22 17 13 9 7 5 3 2 1 1 2 2 2 1 2 3 2 1 0 0 0 0 0 0 0 0 0 0 0 0 0 0 0 0 0 0 0
36 36 34 31 28 24 19 15 12 9 7 5 4 3 1 1 1 1 1 1 2 3 2 1 0 0 0 0 0 0 0 0 0 0 0 0 0 0 0 0 0 0 0
32 33 33 30 26 21 18 14 11 9 8 6 6 5 2 1 1 1 1 2 2 2 1 1 1 0 0 0 0 0 0 0 0 0 0 0 0 0 0 0 0 0 0
31 32 32 29 24 21 18 14 10 8 7 7 6 5 2 1 0 0 1 1 2 2 1 1 0 0 0 0 0 0 0 0 0 0 0 0 0 0 0 0 0 0 0
31 31 29 26 22 20 18 14 10 8 8 7 6 5 3 2 1 1 1 2 3 4 2 0 0 0 0 0 0 0 0 0 0 0 0 0 0 0 0 0 0 0 0
31 30 26 23 20 19 18 14 10 9 9 8 6 5 5 4 2 1 2 4 6 6 3 1 0 0 0 1 1 1 0 0 0 0 0 0 0 0 0 0 0 0 0

GEFSSE_con_prob3kmehi_120.txt.gz
EHI
32 30 32 26 13 6 3 2 1 0 0 0 0 0 0 0 0 0 0 0 0 0 0 0 0 0 0 0 0 0 0 0 1 1 1 0 0 0 0 0 0 0 0
35 33 35 29 16 7 3 1 1 0 0 0 0 0 0 0 0 0 0 0 0 0 0 0 0 0 0 0 0 0 0 0 1 1 0 0 0 0 0 0 0 0 0
35 32 32 31 21 10 4 2 2 1 0 0 0 0 0 0 0 0 0 0 0 0 0 0 0 0 0 0 0 0 0 0 1 0 0 0 0 0 0 0 0 0 0
27 25 29 33 26 14 7 4 2 1 0 0 0 0 0 0 0 0 0 0 0 0 0 0 0 0 0 0 0 0 0 0 0 0 0 0 0 0 0 0 0 0 0
25 29 36 37 28 16 8 4 1 0 0 0 0 0 0 0 0 0 0 0 0 0 0 0 0 0 0 0 0 0 0 0 0 0 0 0 0 0 0 0 0 0 0
38 40 42 40 30 17 9 3 1 0 0 0 0 0 0 0 0 0 0 0 0 0 0 0 0 0 0 0 0 0 0 1 1 0 0 0 0 0 0 0 0 0 0
52 48 45 40 29 17 10 5 2 1 0 0 0 0 0 0 0 0 0 0 0 0 0 0 0 0 0 0 0 0 2 3 3 0 0 0 0 0 0 0 0 0 0
61 55 47 38 26 16 10 5 3 1 0 0 0 0 0 0 0 0 0 0 0 0 0 0 0 0 0 0 0 0 3 7 4 0 0 0 0 0 0 0 0 0 0
70 59 43 30 21 15 10 5 2 1 0 0 0 0 0 0 0 0 0 0 0 0 0 0 0 0 0 0 0 0 3 6 3 0 0 0 0 0 0 0 0 0 0
75 61 39 24 17 13 9 5 2 1 0 0 0 0 0 0 0 0 0 0 0 0 0 0 0 0 0 0 0 1 2 3 2 0 0 0 0 0 0 0 0 0 0
75 60 39 26 16 9 6 5 2 0 0 0 0 0 0 0 0 0 0 0 0 0 0 0 0 0 0 0 1 2 3 2 1 0 0 0 0 0 0 0 0 0 0
72 59 46 34 18 7 6 6 3 1 0 0 0 0 0 0 1 1 1 0 0 0 0 0 0 0 0 0 1 3 4 2 1 0 0 1 0 0 0 0 0 0 0
70 62 53 43 28 17 14 9 4 2 0 1 1 1 0 1 2 3 1 0 0 0 0 0 0 0 0 0 0 1 2 2 1 0 1 2 1 0 0 0 0 0 0
72 66 60 54 45 37 28 15 7 4 2 4 7 4 1 1 3 4 2 0 0 0 0 0 1 0 0 0 0 0 0 2 2 1 1 2 2 1 0 0 0 0 0
76 73 69 66 61 54 42 25 13 10 8 11 13 7 3 2 4 5 3 1 1 1 0 0 1 0 0 0 0 0 1 2 2 1 1 1 1 1 0 0 0 0 0
78 78 76 73 66 59 47 32 21 16 15 17 17 13 7 6 8 9 5 2 3 3 3 2 1 0 0 0 0 0 0 1 0 1 1 1 0 0 0 0 0 0 0
75 75 73 68 61 54 42 30 23 18 18 23 26 23 16 13 16 13 6 3 3 5 5 3 1 0 0 0 1 1 1 1 1 1 2 2 1 0 0 0 0 0 0
71 70 67 60 54 47 36 27 22 22 28 35 38 33 25 22 20 14 7 6 5 5 3 1 0 0 0 1 2 3 2 3 3 2 2 3 2 1 0 0 0 0 0
71 69 64 59 53 45 36 29 27 32 40 46 45 39 32 26 20 13 10 12 11 6 3 3 4 4 2 1 3 3 2 5 7 4 2 2 2 2 1 1 0 0 0
71 69 66 61 55 48 39 34 33 36 43 48 46 42 36 28 20 14 13 17 15 9 5 6 9 8 4 1 1 1 2 5 8 6 3 2 3 4 4 4 2 1 1
70 69 67 62 56 49 42 36 33 34 39 42 43 42 37 29 21 15 15 19 17 13 9 8 9 8 4 1 0 0 1 4 7 7 5 4 4 6 7 8 7 5 3
71 69 65 60 54 48 41 35 31 31 34 36 39 41 36 28 21 16 16 17 17 16 14 12 11 7 4 3 2 0 0 2 4 4 4 4 5 6 7 9 11 10 7
71 67 61 57 51 44 37 31 27 27 28 31 38 41 36 29 24 21 20 18 17 18 18 16 13 9 6 5 4 2 1 1 1 1 1 3 6 7 6 6 10 13 12
67 63 58 54 49 41 35 30 26 24 23 26 34 39 35 30 27 27 26 24 21 20 19 16 13 11 9 7 6 4 3 1 0 0 0 1 5 7 6 4 7 12 14
59 57 55 52 47 41 34 29 26 25 24 24 29 33 30 25 23 26 29 28 24 21 19 16 13 10 8 7 6 6 4 2 1 0 0 0 2 5 7 7 7 9 10
54 54 53 51 46 40 34 28 26 28 29 27 27 28 24 19 17 20 27 30 25 22 20 18 13 9 6 7 7 6 5 3 2 1 0 0 1 4 6 9 8 6 6

GEFSSE_con_prob3kmehi_126.txt.gz
EHI
7 12 21 24 18 14 13 10 10 9 6 3 3 4 3 2 1 0 0 0 0 0 0 0 0 0 0 0 0 0 0 0 0 0 0 0 0 0 0 0 0 0 0
19 21 29 32 24 17 14 11 8 6 4 2 2 2 1 1 0 0 0 0 0 0 0 0 0 0 0 0 0 0 0 0 0 0 0 0 0 0 0 0 0 0 0
39 34 36 39 31 22 15 10 6 3 2 1 1 1 0 0 0 0 0 0 0 0 0 0 0 0 0 0 0 0 0 0 0 0 0 0 0 0 0 0 0 0 0
50 43 42 44 37 25 16 10 6 3 1 0 0 0 0 0 0 0 0 0 0 0 0 0 0 0 0 0 0 0 0 0 0 0 0 0 0 0 0 0 0 0 0
51 47 49 53 45 29 17 11 7 4 1 0 0 0 0 0 0 0 0 0 0 0 0 0 0 0 0 0 0 0 0 0 0 0 0 0 0 0 0 0 0 0 0
54 52 57 61 52 34 19 11 8 5 3 1 0 0 0 0 0 0 0 0 0 0 0 0 0 0 0 0 0 0 0 0 0 0 0 0 0 0 0 0 0 0 0
63 58 60 64 55 37 21 12 8 5 2 1 0 0 0 0 0 0 0 0 0 0 0 0 0 0 0 0 0 0 0 0 0 0 0 0 0 0 0 0 0 0 0
66 60 57 57 50 36 22 12 7 4 1 0 0 0 0 0 0 0 0 0 0 0 0 0 0 0 0 0 0 0 0 0 0 0 0 0 0 0 0 0 0 0 0
63 59 52 45 40 32 21 11 6 3 1 0 0 0 0 0 0 0 0 0 0 0 0 0 0 0 0 0 0 0 0 0 0 0 0 0 0 0 0 0 0 0 0
59 56 49 40 33 28 19 10 5 3 1 0 0 0 0 0 0 0 0 0 0 0 0 0 0 0 0 0 1 1 1 0 0 0 0 0 0 0 0 0 0 0 0
57 52 46 39 30 24 16 8 3 1 0 0 0 0 0 0 0 0 0 0 0 0 0 0 0 0 0 0 1 1 1 0 0 0 0 0 0 0 0 0 0 0 0
57 50 42 33 24 18 13 7 2 0 0 0 0 0 0 0 0 0 0 0 0 0 0 0 0 0 0 0 0 0 0 0 0 0 0 0 0 0 0 0 0 0 0
57 49 37 25 17 12 10 7 2 0 0 0 0 0 0 0 0 0 0 0 0 0 0 0 0 0 0 0 0 0 0 0 0 0 1 1 1 0 0 0 0 0 0
59 49 36 23 13 8 7 5 2 0 0 0 0 0 0 0 0 0 0 0 0 0 0 0 0 0 0 0 0 0 0 0 0 0 1 1 1 0 1 0 0 0 0
60 52 39 27 15 8 5 3 2 1 0 0 0 0 0 0 0 0 0 0 0 0 0 0 0 0 0 0 0 0 0 0 0 0 0 1 1 1 1 0 0 0 0
60 55 45 32 20 12 7 4 2 1 0 0 0 0 0 0 0 0 0 0 0 0 0 0 0 0 0 0 0 0 0 0 0 0 0 0 1 1 0 0 0 0 0
59 57 50 39 28 19 11 6 2 1 0 0 0 0 0 0 0 0 0 0 0 0 0 0 0 0 0 0 0 0 0 0 0 0 0 0 1 1 0 0 0 0 0
60 58 52 45 37 27 18 11 6 3 2 1 2 1 0 0 0 0 0 0 0 0 0 0 0 0 0 0 0 0 0 0 0 0 0 0 0 0 0 0 1 1 0
58 56 52 48 43 35 25 17 12 8 5 5 6 4 1 0 0 0 0 0 0 0 0 0 0 0 0 0 0 0 0 0 0 0 0 0 0 0 0 0 1 1 1
56 54 52 49 43 36 27 21 16 12 9 9 8 6 3 0 0 0 0 0 0 0 0 0 0 0 0 0 0 0 0 0 0 0 0 0 0 0 0 0 0 0 0
57 55 51 45 39 32 25 21 16 11 10 11 9 7 4 2 1 1 1 0 0 0 0 0 0 0 0 0 0 0 0 0 0 0 0 0 0 0 0 0 0 0 0
59 55 47 39 33 28 24 19 14 9 9 10 8 6 6 4 3 2 1 1 0 0 0 0 0 0 0 0 0 0 0 0 0 0 0 0 0 0 0 0 0 0 0
55 50 42 35 29 26 22 17 12 7 6 8 8 7 6 5 4 3 1 1 0 0 0 0 0 0 0 0 0 0 0 0 0 0 0 0 0 0 0 0 0 0 0
47 42 36 31 27 24 21 18 12 6 4 6 7 7 5 3 2 2 1 0 0 0 0 0 0 0 0 0 0 0 0 0 0 0 0 0 0 0 0 0 0 0 0
42 38 33 28 24 22 20 18 12 6 4 5 5 4 3 1 0 1 1 0 0 0 0 0 0 0 0 0 0 0 0 0 0 0 0 0 0 0 0 0 0 0 0
39 36 31 27 22 19 18 16 12 7 4 4 4 3 2 2 1 0 0 0 0 0 0 0 0 0 0 0 0 0 0 0 0 0 0 0 0 0 0 0 0 0 0

GEFSSE_con_prob3kmehi_132.txt.gz
EHI
1 3 6 8 9 13 20 29 36 39 35 27 19 12 6 2 1 0 0 0 0 0 0 0 0 0 0 0 0 0 0 0 0 0 0 0 0 0 0 0 0 0 0
6 6 9 11 12 15 19 23 26 27 25 20 15 9 4 1 0 0 0 0 0 0 0 0 0 0 0 0 0 0 0 0 0 0 0 0 0 0 0 0 0 0 0
16 13 14 17 17 18 18 17 16 14 13 11 9 5 1 0 0 0 0 0 0 0 0 0 0 0 0 0 0 0 0 0 0 0 0 0 0 0 0 0 0 0 0
26 21 21 24 24 22 20 17 13 10 8 6 3 1 0 0 0 0 0 0 0 0 0 0 0 0 0 0 0 0 0 0 0 0 0 0 0 0 0 0 0 0 0
31 26 26 31 32 28 24 19 13 9 6 4 1 0 0 0 0 0 0 0 0 0 0 0 0 0 0 0 0 0 0 0 0 0 0 0 0 0 0 0 0 0 0
35 30 32 38 39 34 28 21 14 9 6 3 1 0 0 0 0 0 0 0 0 0 0 0 0 0 0 0 0 0 0 0 0 0 0 0 0 0 0 0 0 0 0
41 37 39 44 44 38 30 23 16 11 7 3 0 0 0 0 0 0 0 0 0 0 0 0 0 0 0 0 0 0 0 0 0 0 0 0 0 0 0 0 0 0 0
48 45 44 44 43 37 31 24 17 12 7 3 0 0 0 0 0 0 0 0 0 0 0 0 0 0 0 0 0 0 0 0 0 0 0 0 0 0 0 0 0 0 0
51 51 47 42 36 31 26 22 16 10 5 2 0 0 0 0 0 0 0 0 0 0 0 0 0 0 0 0 0 0 0 0 0 0 0 0 0 0 0 0 0 0 0
45 46 44 37 29 22 18 16 13 6 2 0 0 0 0 0 0 0 0 0 0 0 0 0 0 0 0 0 0 0 0 0 0 0 0 0 0 0 0 0 0 0 0
41 39 36 31 24 18 12 10 7 3 0 0 0 0 0 0 0 0 0 0 0 0 0 0 0 0 0 0 0 0 0 0 0 0 0 0 0 0 0 0 0 0 0
42 36 29 25 22 18 12 6 3 1 0 0 0 0 0 0 0 0 0 0 0 0 0 0 0 0 0 0 0 0 0 0 0 0 0 0 0 0 0 0 0 0 0
43 37 29 23 21 18 13 7 3 1 0 0 0 0 0 0 0 0 0 0 0 0 0 0 0 0 0 0 0 0 0 0 0 0 0 0 0 0 0 0 0 0 0
40 36 30 25 20 15 11 8 4 1 0 0 0 0 0 0 0 0 0 0 0 0 0 0 0 0 0 0 0 0 0 0 0 0 0 0 0 0 0 0 0 0 0
34 33 30 25 18 11 8 7 4 1 0 0 0 0 0 0 0 0 0 0 0 0 0 0 0 0 0 0 0 0 0 0 0 0 0 0 0 0 0 0 0 0 0
29 30 30 25 16 8 6 5 3 1 0 0 0 0 0 0 0 0 0 0 0 0 0 0 0 0 0 0 0 0 0 0 0 0 0 0 0 0 0 0 0 0 0
26 28 29 25 14 5 4 4 3 1 0 0 0 0 0 0 0 0 0 0 0 0 0 0 0 0 0 0 0 0 0 0 0 0 0 0 0 0 0 0 0 0 0
30 28 28 24 13 6 3 3 2 1 0 0 0 0 0 0 0 0 0 0 0 0 0 0 0 0 0 0 0 0 0 0 0 0 0 0 0 0 0 0 0 0 0
37 32 28 23 14 8 5 3 2 1 0 0 0 0 0 0 0 0 0 0 0 0 0 0 0 0 0 0 0 0 0 0 0 0 0 0 0 0 0 0 0 0 0
43 39 32 24 16 10 6 3 2 1 0 0 0 0 0 0 0 0 0 0 0 0 0 0 0 0 0 0 0 0 0 0 0 0 0 0 0 0 0 0 0 0 0
46 43 36 27 20 12 7 4 2 1 0 0 0 0 0 0 0 0 0 0 0 0 0 0 0 0 0 0 0 0 0 0 0 0 0 0 0 0 0 0 0 0 0
45 42 36 29 22 15 9 5 2 0 0 0 0 0 0 1 1 1 0 0 0 0 0 0 0 0 0 0 0 0 0 0 0 0 0 0 0 0 0 0 0 0 0
40 39 35 29 23 17 12 8 4 2 1 1 1 1 1 2 2 1 0 0 0 0 0 0 0 0 0 0 0 0 0 0 0 0 0 0 0 0 0 0 0 0 0
35 35 32 28 23 19 16 12 7 4 3 2 2 2 3 3 3 2 1 0 0 0 0 0 0 0 0 0 0 0 0 0 0 0 0 0 0 0 0 0 0 0 0
30 29 26 24 21 19 17 15 11 7 4 3 3 3 3 3 3 3 2 1 0 0 0 0 0 0 0 0 0 0 0 0 0 0 0 0 0 0 0 0 0 0 0
25 24 22 20 17 16 16 15 12 8 5 3 3 3 3 3 3 3 3 2 1 0 0 0 0 0 0 0 0 0 0 0 0 0 0 0 0 0 0 0 0 0 0

GEFSSE_con_prob3kmehi_138.txt.gz
EHI
0 0 1 2 2 4 10 18 23 20 14 9 5 3 1 0 0 0 0 0 0 0 0 0 0 0 0 0 0 0 0 0 0 0 0 0 0 0 0 0 0 0 0
1 1 2 4 4 5 10 19 22 20 15 10 6 3 1 0 0 0 0 0 0 0 0 0 0 0 0 0 0 0 0 0 0 0 0 0 0 0 0 0 0 0 0
2 2 4 7 7 6 10 17 20 17 13 8 4 2 1 0 0 0 0 0 0 0 0 0 0 0 0 0 0 0 0 0 0 0 0 0 0 0 0 0 0 0 0
3 3 6 10 10 8 10 13 14 12 8 4 2 1 0 0 0 0 0 0 0 0 0 0 0 0 0 0 0 0 0 0 0 0 0 0 0 0 0 0 0 0 0
4 7 11 14 12 11 12 11 8 6 4 2 1 0 0 0 0 0 0 0 0 0 0 0 0 0 0 0 0 0 0 0 0 0 0 0 0 0 0 0 0 0 0
9 11 16 16 13 13 13 11 7 3 2 1 0 0 0 0 0 0 0 0 0 0 0 0 0 0 0 0 0 0 0 0 0 0 0 0 0 0 0 0 0 0 0
12 15 19 18 14 12 11 8 5 2 1 0 0 0 0 0 0 0 0 0 0 0 0 0 0 0 0 0 0 0 0 0 0 0 0 0 0 0 0 0 0 0 0
12 16 20 19 15 11 8 5 3 1 0 0 0 0 0 0 0 0 0 0 0 0 0 0 0 0 0 0 0 0 0 0 0 0 0 0 0 0 0 0 0 0 0
11 15 18 17 14 10 6 4 2 1 0 0 0 0 0 0 0 0 0 0 0 0 0 0 0 0 0 0 0 0 0 0 0 0 0 0 0 0 0 0 0 0 0
12 14 14 14 12 9 6 4 2 1 0 0 0 0 0 0 0 0 0 0 0 0 0 0 0 0 0 0 0 0 0 0 0 0 0 0 0 0 0 0 0 0 0
17 17 16 14 12 8 5 3 2 0 0 0 0 0 0 0 0 0 0 0 0 0 0 0 0 0 0 0 0 0 0 0 0 0 0 0 0 0 0 0 0 0 0
24 22 19 16 13 8 5 3 2 0 0 0 0 0 0 0 0 0 0 0 0 0 0 0 0 0 0 0 0 0 0 0 0 0 0 0 0 0 0 0 0 0 0
30 26 23 21 16 10 5 3 1 0 0 0 0 0 0 0 0 0 0 0 0 0 0 0 0 0 0 0 0 0 0 0 0 0 0 0 0 0 0 0 0 0 0
35 30 26 24 19 14 8 4 1 0 0 1 1 0 0 0 0 0 0 0 0 0 0 0 0 0 0 0 0 0 0 0 0 0 0 0 0 0 0 0 0 0 0
39 35 30 27 23 19 13 6 3 1 1 1 1 0 0 0 0 0 0 0 0 0 0 0 0 0 0 0 0 0 0 0 0 0 0 0 0 0 0 0 0 0 0
41 39 34 30 28 24 15 8 5 3 2 1 1 0 0 0 0 0 0 0 0 0 0 0 0 0 0 0 0 0 0 0 0 0 0 0 0 0 0 0 0 0 0
43 42 37 31 30 26 17 10 8 5 2 1 0 0 0 0 0 0 0 0 0 0 0 0 0 0 0 0 0 0 0 0 0 0 0 0 0 0 0 0 0 0 0
44 45 40 32 30 28 19 12 9 6 3 1 0 0 0 0 0 0 0 0 0 0 0 0 0 0 0 0 0 0 0 0 0 0 0 0 0 0 0 0 0 0 0
48 48 44 36 31 28 20 13 8 4 2 1 0 1 1 0 0 0 0 0 0 0 0 0 0 0 0 0 0 0 0 0 0 0 0 0 0 0 0 0 0 0 0
52 52 48 41 36 31 23 15 8 3 1 0 1 1 1 0 0 1 1 0 0 0 0 0 0 0 0 0 0 0 0 0 0 0 0 0 1 0 0 0 0 0 0
54 54 52 48 44 39 29 19 11 5 2 2 2 2 1 0 0 2 2 1 0 0 0 0 0 0 0 0 0 0 0 0 0 0 0 0 0 0 0 0 1 0 0
57 56 54 52 50 45 35 22 13 6 4 4 4 3 1 1 1 2 3 2 1 1 1 1 1 1 1 0 0 0 0 0 0 0 0 0 0 0 0 0 0 0 0
59 56 52 51 49 45 37 26 16 9 6 6 6 5 4 3 3 3 3 3 4 3 2 2 2 3 2 1 2 1 0 0 0 0 0 1 0 0 0 0 0 0 0
57 53 48 47 46 42 37 30 21 13 9 7 7 8 7 5 4 3 3 4 5 4 4 3 3 4 4 4 4 2 0 0 0 0 0 0 0 0 0 0 0 0 0
50 48 47 45 43 39 34 29 21 14 10 8 8 9 8 6 4 4 4 5 6 5 5 4 3 4 7 7 6 4 2 2 2 1 0 0 0 0 1 1 0 0 0
44 46 47 44 40 36 32 25 17 12 10 11 10 9 7 6 6 5 5 6 6 6 6 5 4 5 9 10 8 6 4 4 3 2 1 0 0 0 1 1 1 0 0

GEFSSE_con_prob3kmehi_144.txt.gz
EHI
13 13 16 13 5 1 0 0 0 0 0 1 2 3 3 3 3 2 2 1 0 0 0 0 0 0 0 1 0 1 2 2 1 2 3 2 0 0 0 0 0 0 0
15 15 16 14 7 2 0 0 0 0 0 1 2 3 3 3 3 1 1 0 0 0 0 0 0 0 0 1 0 0 1 1 0 1 1 1 0 0 0 0 0 0 0
12 11 12 11 7 3 1 1 1 0 0 1 2 3 2 2 2 1 0 0 0 0 0 0 0 0 0 0 0 0 0 0 0 0 0 0 0 0 1 1 2 1 1
7 8 9 9 7 5 3 2 1 0 0 1 1 1 1 1 1 0 0 0 0 0 0 0 0 0 0 0 0 0 0 0 0 0 0 0 0 0 1 2 3 2 1
11 11 12 11 9 6 4 2 1 0 0 0 0 0 0 0 0 0 0 0 0 0 0 0 0 0 0 0 0 0 0 0 0 0 0 1 1 2 1 1 2 2 1
18 17 15 15 12 7 3 1 0 0 0 0 0 0 0 0 0 0 0 0 0 0 0 0 0 0 0 0 0 0 1 1 1 1 1 2 3 3 2 1 1 1 0
22 19 17 17 13 7 3 1 0 0 0 0 0 0 0 0 0 0 0 0 0 0 0 0 0 0 0 0 0 1 2 3 2 1 1 2 3 3 2 1 0 0 0
27 22 18 16 13 7 3 1 1 1 0 0 0 0 0 0 0 0 0 0 0 0 0 0 0 0 0 0 0 1 4 6 3 0 0 1 2 3 2 1 0 0 0
34 27 19 14 11 7 4 3 2 1 0 0 0 0 0 0 0 0 0 0 0 0 0 0 0 0 0 0 1 2 6 7 4 0 0 0 1 2 1 0 0 0 0
38 30 20 15 12 9 6 5 3 1 0 0 0 0 0 0 0 0 0 0 0 0 0 0 0 0 0 0 1 2 5 5 3 0 0 1 2 1 0 0 0 0 0
35 29 23 20 16 12 8 6 2 0 0 0 0 0 0 0 0 0 0 0 0 0 0 0 0 1 1 0 0 1 3 3 1 0 2 4 3 1 0 0 0 0 0
34 28 24 23 20 15 11 7 4 1 1 1 1 1 1 0 1 1 1 0 0 0 0 0 0 1 1 0 0 0 2 2 1 0 3 6 5 2 0 0 0 0 0
34 28 24 24 21 16 13 10 5 2 2 3 4 3 1 1 2 3 2 1 1 0 0 0 0 1 1 0 0 0 1 2 2 1 3 6 5 3 1 0 0 0 0
36 31 29 31 30 25 19 12 5 2 1 5 8 4 1 1 2 3 2 2 2 1 1 0 0 0 0 0 0 0 1 2 3 2 2 4 5 3 1 0 0 0 0
43 39 40 46 47 40 27 15 6 3 2 6 9 4 1 2 2 3 3 3 3 3 3 1 0 1 1 1 0 0 1 1 2 3 3 4 6 5 3 1 0 0 0
56 53 53 57 56 44 26 13 6 5 5 8 10 7 3 5 7 5 2 2 2 3 3 1 0 0 0 0 0 1 1 1 2 3 3 5 7 6 4 1 0 0 0
70 66 61 58 53 40 22 10 6 6 7 11 16 15 9 9 12 8 2 2 3 4 3 1 0 0 0 0 0 1 2 3 3 3 3 5 6 6 5 4 2 1 0
77 72 62 55 53 45 29 15 8 8 10 17 25 26 17 12 13 10 4 4 6 5 4 2 1 0 0 0 0 0 2 5 6 5 5 6 6 5 6 7 6 4 3
76 72 63 58 59 52 38 23 14 12 14 21 30 35 27 17 13 10 8 8 7 5 5 5 4 2 0 0 0 0 1 5 8 8 6 7 6 5 5 8 9 8 8
75 73 67 65 63 57 44 33 25 20 17 20 29 36 33 23 17 12 12 14 11 7 7 9 8 4 1 0 0 0 1 5 9 9 6 5 6 6 7 9 9 9 9
76 75 72 70 69 62 51 43 37 29 21 18 26 32 31 26 22 16 15 19 17 11 10 10 8 5 2 1 0 0 1 4 7 7 6 6 5 6 10 12 11 9 9
76 75 74 74 73 66 57 50 43 34 26 23 28 32 30 29 26 20 17 21 21 16 13 11 9 5 3 1 0 0 0 2 4 5 6 7 7 8 11 13 14 14 12
76 75 75 76 75 70 61 52 45 38 31 28 31 33 32 31 28 24 23 25 25 21 17 16 12 7 5 3 2 1 2 2 2 3 5 7 9 11 12 12 15 20 21
73 74 77 78 77 73 64 53 45 38 32 28 29 32 32 31 28 27 29 30 28 24 21 19 17 13 10 7 6 5 4 4 3 3 4 6 10 12 12 11 15 23 26
72 75 78 80 79 74 65 54 45 37 30 24 24 26 28 28 25 24 28 31 29 25 22 22 23 21 16 14 12 8 8 8 6 5 4 5 8 10 10 11 15 22 25
72 75 80 82 80 74 65 55 46 38 30 23 20 22 24 25 22 19 23 30 29 25 22 25 28 25 21 19 15 11 10 11 8 5 4 4 5 8 10 12 16 20 22

GEFSSE_con_prob3kmehi_150.txt.gz
EHI
4 6 9 9 8 6 4 4 3 1 0 0 1 2 4 5 4 3 2 1 0 0 0 0 0 0 0 0 0 0 1 0 0 0 0 0 0 0 0 0 0 0 0
7 7 10 12 10 7 5 3 2 1 0 1 2 3 4 4 3 2 1 0 0 0 0 0 0 0 0 0 0 0 1 1 0 0 0 0 0 0 0 0 0 0 0
10 9 12 15 14 10 6 4 1 0 0 2 3 3 3 3 2 1 0 0 0 0 0 0 0 0 0 0 0 0 0 1 1 0 0 0 0 0 0 0 0 1 1
10 9 13 19 18 13 9 5 1 0 0 2 3 3 3 2 2 1 0 0 0 0 0 0 0 0 0 0 0 0 0 0 0 0 0 0 0 0 0 0 1 2 2
9 9 14 20 19 15 11 6 2 0 0 1 2 2 1 1 1 0 0 0 0 0 0 0 0 0 0 0 0 0 0 0 0 0 0 0 0 0 0 0 1 2 2
10 10 14 19 18 15 12 7 2 0 0 1 1 1 0 0 0 0 0 0 0 0 0 0 0 0 0 0 0 0 0 0 0 0 0 0 0 0 0 0 1 2 2
14 12 13 17 17 15 12 7 3 1 0 0 0 0 0 0 0 0 0 0 0 0 0 0 0 0 0 0 0 0 0 0 0 0 0 0 0 0 0 0 0 1 1
15 14 14 15 16 15 12 7 4 1 0 0 0 0 0 0 0 0 0 0 0 0 0 0 0 0 0 0 0 0 0 0 0 0 0 0 0 0 0 0 0 0 0
15 14 12 12 13 14 12 7 3 1 0 0 0 0 0 0 0 0 0 0 0 0 0 0 0 0 0 0 1 1 1 0 0 0 0 0 0 0 0 0 0 0 0
14 13 10 9 9 11 11 7 3 0 0 0 0 0 0 0 0 0 0 0 0 0 0 0 0 0 0 0 1 1 1 0 0 0 0 0 0 0 0 0 0 0 0
14 12 9 7 7 8 8 6 2 0 0 0 0 0 0 0 0 0 0 0 0 0 0 0 0 0 0 0 0 0 0 0 0 0 0 1 1 1 0 0 0 0 0
17 13 9 7 7 5 5 4 2 0 0 0 0 0 0 0 0 0 0 0 0 0 0 0 0 0 0 0 0 0 0 0 0 0 0 2 3 1 0 0 0 0 0
23 17 10 8 7 5 3 2 1 0 0 0 0 0 0 0 0 0 0 0 0 0 0 0 0 0 0 0 0 0 0 0 0 0 1 4 4 2 0 0 0 0 0
30 24 16 12 9 5 1 1 0 0 0 0 0 0 0 0 0 0 0 0 0 0 0 0 0 0 0 0 0 0 0 0 0 0 1 4 5 3 1 0 0 0 0
35 31 25 19 14 8 3 0 0 0 0 0 0 0 0 0 0 0 0 0 0 0 0 0 0 0 0 0 0 0 0 0 0 0 1 3 5 4 2 1 0 0 0
41 39 33 27 22 15 7 2 0 0 0 0 0 0 0 0 0 0 0 0 0 0 0 0 0 0 0 0 0 0 0 0 0 0 0 2 3 4 3 2 1 1 0
48 45 40 36 31 22 12 4 1 0 1 1 0 0 0 0 0 0 0 0 0 0 0 0 0 0 0 0 0 0 0 0 0 0 0 0 1 2 2 3 3 2 1
55 51 46 42 37 27 16 7 2 1 1 1 0 0 0 1 1 1 0 0 0 0 0 0 0 0 0 0 0 0 0 0 0 0 0 0 0 0 1 3 4 3 3
58 55 49 45 40 30 19 10 4 1 1 1 1 1 1 2 3 2 1 0 0 0 0 0 0 0 0 0 0 0 0 0 0 0 0 0 0 0 0 1 2 3 3
58 56 51 47 42 33 23 13 8 4 2 1 2 3 2 3 4 3 1 0 0 0 0 0 0 0 0 0 0 0 0 0 0 0 0 0 0 0 0 0 1 1 2
59 56 52 49 44 36 27 18 12 8 4 2 2 4 4 4 4 3 2 1 0 0 0 0 0 0 0 0 0 0 0 0 0 0 0 0 0 0 0 0 0 0 1
63 58 54 52 46 38 29 22 16 11 5 1 1 4 6 7 6 4 3 2 1 1 1 1 1 0 0 0 0 0 0 0 0 0 0 0 0 0 0 0 0 0 0
65 61 57 53 46 37 29 25 21 15 8 3 1 2 6 7 7 5 4 3 2 2 2 2 2 1 1 0 0 0 0 0 0 0 0 0 0 0 0 0 0 0 0
63 62 58 53 46 37 30 27 24 19 13 7 3 1 3 4 5 6 5 4 2 1 2 3 3 3 2 1 0 0 0 0 0 0 0 0 0 0 0 0 0 0 1
63 62 57 52 45 37 31 27 23 19 14 9 5 2 2 3 4 5 5 4 2 1 2 3 3 3 3 2 1 0 0 0 0 0 0 0 0 0 0 0 0 0 1
65 63 57 50 44 37 31 27 22 16 12 9 6 3 3 3 4 5 4 3 3 2 3 3 3 3 3 3 2 1 0 0 0 0 0 0 0 0 0 0 0 0 1

GEFSSE_con_prob3kmehi_156.txt.gz
EHI
1 3 4 4 4 5 6 8 10 12 10 6 3 3 1 0 0 0 0 0 0 0 0 0 1 2 1 0 0 0 0 0 0 0 0 0 0 0 0 0 0 0 0
2 3 5 6 7 7 6 6 7 7 5 3 1 1 0 0 0 0 0 0 0 0 0 0 1 1 1 0 0 0 0 0 0 0 0 0 0 0 0 0 0 0 0
3 4 7 9 10 9 8 6 4 3 1 0 0 0 0 0 0 1 0 0 0 0 0 0 0 0 0 0 0 0 0 0 0 0 0 0 0 0 0 0 0 0 0
4 4 8 11 12 10 9 7 4 2 0 0 0 0 0 0 0 0 0 0 0 0 0 0 0 0 0 0 0 0 0 0 0 0 0 0 0 0 0 0 0 0 0
5 4 8 13 13 10 8 7 4 2 1 0 0 0 0 0 0 0 0 0 0 0 0 0 0 0 0 0 0 0 0 0 0 0 0 0 0 0 0 0 0 0 0
6 5 8 14 14 9 5 4 3 2 1 1 1 1 1 0 0 0 0 0 0 0 0 0 0 0 0 0 0 0 0 0 0 0 0 0 0 0 0 0 0 0 0
7 6 8 13 12 7 4 2 1 1 0 1 2 2 2 1 0 0 0 0 0 0 0 0 0 0 0 0 0 0 0 0 0 0 0 0 0 0 0 0 0 0 0
9 8 8 10 9 7 4 2 0 0 0 0 1 2 2 1 0 0 0 0 0 0 0 0 0 0 0 0 0 0 0 0 0 0 0 0 0 0 0 0 0 0 0
9 8 7 6 7 7 5 2 0 0 0 0 0 1 1 0 0 0 0 0 0 0 0 0 0 0 0 0 0 0 0 0 0 0 0 0 0 0 0 0 0 0 0
8 7 6 5 7 7 5 2 1 0 0 0 0 0 0 0 0 0 0 0 0 0 0 0 0 0 0 0 0 0 0 0 0 0 0 0 0 0 0 0 0 0 0
9 7 6 7 7 7 5 3 1 0 0 0 1 1 0 0 0 0 0 0 0 0 0 0 0 0 0 0 0 0 0 0 0 0 0 0 0 0 0 0 0 0 0
12 10 8 7 6 5 4 3 2 0 0 0 1 1 0 0 0 0 0 0 0 0 0 0 0 0 0 0 0 0 0 0 0 0 0 0 0 0 0 0 0 0 0
14 13 10 6 5 4 3 3 2 1 0 0 0 0 0 0 0 0 0 0 0 0 0 0 0 0 0 0 0 0 0 0 0 0 0 0 0 1 0 0 0 0 0
13 13 10 6 4 3 3 3 3 2 1 0 0 0 0 0 0 0 0 0 0 0 0 0 0 0 0 0 0 0 0 0 0 0 0 0 1 3 2 0 0 0 0
11 11 9 6 4 3 2 2 2 2 1 0 0 0 0 0 0 0 0 0 0 0 0 0 0 0 0 0 0 0 0 0 0 0 0 0 1 3 3 1 0 0 0
12 11 8 6 4 3 2 1 1 1 0 0 0 0 0 0 0 0 0 0 0 0 0 0 0 0 0 0 0 0 0 0 0 0 0 0 1 2 3 1 0 0 0
13 11 9 6 5 3 2 2 1 0 0 0 0 0 0 0 0 0 0 0 0 0 0 0 0 0 0 0 0 0 0 0 0 0 0 0 0 1 2 2 1 0 0
15 13 11 9 7 5 3 2 1 0 1 0 0 0 0 0 0 0 0 0 0 0 0 0 0 0 0 0 0 0 0 0 0 0 0 0 0 0 1 1 1 0 0
20 18 16 14 11 7 3 1 0 0 0 0 0 0 0 0 0 0 0 0 0 0 0 0 0 0 0 0 0 0 0 0 0 0 0 0 0 0 0 0 0 0 0
23 23 23 20 15 10 6 2 0 0 0 0 0 0 0 0 0 0 0 0 0 0 0 0 0 0 0 0 0 0 0 0 0 0 0 0 0 0 0 0 0 0 0
25 27 28 25 20 16 11 5 1 0 0 0 0 0 0 0 1 1 0 0 0 0 0 0 0 0 0 0 0 0 0 0 0 0 0 0 0 0 0 0 0 0 0
30 31 31 28 26 22 16 10 4 1 0 0 0 0 0 1 1 1 1 1 0 0 0 0 0 0 0 0 0 0 0 0 0 0 0 0 0 0 0 0 0 0 0
34 34 32 31 30 27 23 17 11 7 4 2 1 0 0 1 1 1 2 2 1 1 0 0 0 1 1 1 0 0 0 0 0 0 0 0 0 0 0 0 0 0 0
35 34 33 33 32 30 28 25 21 15 9 4 2 0 0 0 0 1 2 2 2 1 0 0 0 1 2 1 1 0 0 0 0 0 0 0 0 0 0 0 0 0 0
34 34 33 32 33 32 30 28 25 19 12 5 1 0 0 0 0 2 2 1 1 1 0 0 0 1 1 1 1 1 1 1 0 0 0 0 0 0 0 0 0 0 0
33 34 34 33 34 34 32 29 25 20 13 5 1 0 0 0 0 1 2 1 0 0 0 0 0 0 0 0 1 2 2 2 1 0 0 0 0 0 0 0 0 0 0

GEFSSE_con_prob3kmehi_162.txt.gz
EHI
0 1 3 3 2 2 1 2 3 3 3 2 1 0 0 0 0 0 0 0 0 0 0 0 0 0 0 0 0 0 0 0 0 0 0 0 0 0 0 0 0 0 0
1 2 3 2 1 1 2 2 2 2 2 2 1 0 0 0 0 0 0 0 0 0 0 0 0 0 0 0 0 0 0 0 0 0 0 0 0 0 0 0 0 0 0
3 3 3 2 1 1 2 2 1 1 1 1 0 0 0 0 0 0 0 0 0 0 0 0 0 0 0 0 0 0 0 1 1 0 0 0 0 0 0 0 1 0 0
3 3 4 3 3 3 3 2 1 0 0 0 0 0 0 0 0 0 0 0 0 0 0 0 0 0 0 0 0 0 0 1 1 0 0 0 0 0 0 0 0 0 0
3 4 5 5 4 3 3 2 1 0 0 0 0 0 0 0 0 0 0 0 0 0 0 0 0 0 0 0 0 0 0 0 0 0 0 0 0 0 0 0 0 0 0
2 3 5 5 4 3 2 1 0 0 0 0 0 0 0 0 0 0 0 0 0 0 0 0 0 0 0 0 0 0 0 0 0 0 0 0 0 0 0 0 0 0 0
1 2 4 5 5 4 2 0 0 0 1 0 0 0 0 0 0 0 0 0 0 0 0 0 0 0 0 0 0 0 0 0 0 0 0 0 0 0 0 0 0 0 0
0 2 4 6 5 4 2 0 0 0 0 0 0 0 0 0 0 0 0 0 0 0 0 0 0 0 0 0 0 0 1 1 0 0 0 0 0 0 0 0 0 0 1
1 2 4 5 5 3 1 0 0 0 0 0 0 0 0 0 0 0 0 0 0 0 0 0 0 0 0 0 0 0 1 1 0 0 0 0 0 0 0 0 0 0 1
3 4 5 5 4 2 1 0 0 0 0 0 0 0 0 0 0 0 0 0 0 0 0 0 0 0 0 0 0 0 1 1 0 0 0 0 0 0 0 0 0 0 1
6 6 6 5 3 1 0 0 0 0 0 0 0 0 0 0 0 0 0 0 0 0 0 0 0 0 0 0 0 0 0 0 0 0 0 0 0 0 0 0 0 0 0
10 9 7 5 2 0 0 0 0 0 0 0 0 0 0 0 0 0 0 0 0 0 0 0 0 0 0 0 0 0 0 0 0 0 0 0 0 0 0 0 0 0 0
13 11 9 7 4 1 0 0 0 0 0 0 0 0 0 0 0 0 0 0 0 0 0 0 0 0 0 0 0 0 0 0 0 0 0 0 0 0 0 0 0 0 0
15 13 10 9 7 3 1 0 0 0 0 0 0 0 0 0 0 0 0 0 0 0 0 0 0 0 0 0 0 0 0 0 0 0 0 0 0 0 0 0 0 0 0
17 15 12 9 8 4 2 1 1 1 0 0 0 0 0 0 0 0 0 0 0 0 0 0 0 0 0 0 0 0 0 0 0 0 0 0 0 0 0 0 0 0 0
17 16 13 11 9 5 3 2 2 2 1 1 0 0 0 0 0 0 0 0 0 0 0 0 0 0 0 0 0 0 0 0 0 0 0 0 0 0 0 0 0 0 0
16 15 14 12 10 7 4 2 2 2 2 1 1 0 1 1 1 1 0 0 0 0 0 0 0 0 0 0 0 0 0 0 0 0 0 0 0 0 0 0 0 0 0
19 19 18 15 13 9 6 3 1 1 1 1 1 1 2 2 2 2 1 0 0 1 1 0 0 0 0 0 0 0 0 0 0 0 0 0 0 0 0 0 0 1 1
28 28 26 23 18 13 8 5 2 1 0 0 0 1 2 3 3 3 1 1 1 2 2 1 1 1 0 0 0 0 0 0 0 0 0 0 0 0 1 0 0 0 0
35 35 34 31 26 21 15 11 8 4 2 1 1 2 3 3 3 3 3 2 2 2 3 3 2 2 1 1 1 1 0 0 0 0 0 0 0 0 0 0 0 0 1
38 40 42 39 36 32 27 22 17 10 4 3 4 5 5 5 4 3 3 3 3 3 3 3 4 4 3 3 4 3 1 0 1 1 0 0 0 0 0 0 0 0 1
43 45 47 46 45 43 38 31 24 16 8 5 6 7 8 7 6 6 5 5 5 5 5 6 7 8 8 8 7 5 2 1 1 1 0 0 0 0 0 0 0 0 1
46 46 46 48 50 49 44 36 30 25 17 12 10 9 9 9 8 9 8 7 7 6 7 9 12 13 13 12 11 8 4 2 1 1 0 0 0 0 0 0 0 0 0
43 42 43 47 51 52 47 40 37 33 27 21 14 10 10 9 9 9 9 9 9 8 9 12 14 16 17 15 13 11 7 4 3 2 1 0 0 0 0 0 0 0 0
38 40 44 50 53 53 49 44 40 36 29 22 16 13 12 12 10 8 8 9 10 11 12 14 15 16 16 16 15 13 10 7 4 2 1 1 0 0 0 0 1 0 0
35 39 46 53 55 54 51 46 41 34 27 20 16 14 14 14 12 8 7 9 11 12 14 16 15 15 15 16 16 14 10 8 5 2 1 1 0 0 0 0 1 0 0

GEFSSE_con_prob3kmehi_168.txt.gz
EHI
3 2 1 1 0 0 0 0 0 0 0 0 0 0 0 0 0 0 0 0 0 0 0 0 0 0 0 0 0 0 1 0 0 0 0 0 0 0 0 0 0 0 0
3 2 2 1 0 0 0 0 0 0 0 0 0 0 0 0 0 0 0 0 0 0 0 0 0 0 0 0 0 0 1 0 0 0 0 0 0 0 0 0 0 0 0
2 1 1 1 1 1 0 0 0 0 0 0 0 0 0 0 0 0 0 0 0 0 0 0 0 0 0 0 0 0 0 0 0 0 0 0 0 0 1 1 1 0 0
5 4 3 4 2 1 0 0 0 0 0 0 0 0 1 1 1 1 0 0 0 0 0 0 0 0 0 0 1 1 1 1 0 0 0 0 0 1 2 2 1 0 0
13 11 10 7 3 1 0 0 0 0 0 0 0 0 1 1 2 1 0 0 0 0 0 0 0 0 0 1 1 1 1 2 1 0 0 0 0 1 1 1 0 0 0
19 17 14 10 5 1 0 0 0 0 0 0 0 0 0 1 1 1 0 0 0 0 0 0 0 0 0 1 0 0 2 2 1 0 1 1 0 0 0 0 0 0 0
23 19 14 11 7 2 0 0 0 0 0 0 0 0 0 0 0 0 0 0 0 0 0 0 0 0 1 1 0 0 2 3 1 1 2 2 1 0 0 0 0 0 0
28 20 12 10 8 3 1 0 0 0 0 0 0 0 0 0 0 0 0 0 0 0 0 0 0 0 1 0 0 0 2 3 2 1 2 2 1 0 0 0 0 0 0
24 19 12 9 7 5 2 1 0 0 0 0 0 0 0 0 0 0 0 0 0 0 0 0 0 0 0 0 0 0 1 3 2 1 1 1 0 0 0 0 0 0 0
16 15 12 10 10 9 5 2 1 0 0 0 0 0 0 0 0 0 0 0 0 0 0 0 0 0 0 0 0 0 1 1 1 1 1 1 1 0 0 0 0 0 0
13 12 10 12 12 11 9 6 2 1 0 0 1 1 1 1 1 1 1 1 0 0 0 0 0 0 0 0 0 0 0 0 0 0 1 3 2 1 0 0 0 0 0
13 11 10 11 10 9 11 9 4 2 2 2 2 3 2 1 1 2 3 2 1 0 0 1 0 0 1 1 0 0 0 0 0 0 2 5 4 1 0 0 0 0 0
13 12 12 11 9 9 12 10 5 4 5 5 3 3 1 1 2 3 3 3 3 1 1 2 1 1 2 1 1 1 1 0 1 1 4 7 6 1 0 0 0 0 0
16 14 15 16 15 15 15 11 6 3 5 7 7 4 1 0 1 2 4 5 5 3 2 1 0 1 2 1 1 1 2 1 1 3 5 8 6 3 1 0 0 0 0
21 20 22 23 22 19 18 14 8 3 3 7 10 7 2 0 1 1 4 5 4 4 3 1 1 1 1 1 1 2 2 1 2 4 5 7 7 5 3 1 0 0 0
32 30 29 28 25 19 16 14 9 5 4 6 10 9 3 1 2 2 3 3 4 4 5 4 3 2 2 2 2 2 2 1 3 5 5 6 8 8 6 3 2 2 1
45 42 36 33 30 23 15 10 7 6 5 6 11 13 8 4 7 6 4 3 4 7 9 8 6 5 5 3 3 4 5 4 6 7 7 6 7 8 8 7 7 5 4
54 51 42 37 38 33 21 11 6 5 6 8 13 18 14 10 11 11 6 5 7 9 11 9 6 5 5 4 4 6 8 9 10 10 8 8 9 10 11 12 11 8 7
59 57 48 42 43 39 29 19 11 7 7 9 14 21 23 19 17 14 10 11 12 10 9 7 5 6 5 4 4 6 8 11 12 11 9 10 11 12 14 15 13 10 8
61 60 53 49 47 42 36 29 21 14 12 13 17 25 29 28 23 17 14 15 13 10 7 6 7 8 6 5 4 5 7 11 14 14 13 12 11 13 17 18 16 13 11
63 63 60 57 53 48 44 40 32 24 20 18 21 28 32 31 28 23 19 17 15 10 7 7 8 8 7 6 6 6 7 11 14 16 15 13 10 12 17 21 23 20 17
70 67 66 64 61 57 53 47 40 34 28 22 24 30 31 29 28 25 23 20 16 12 10 10 9 8 8 8 8 9 7 7 10 11 12 12 11 13 16 20 26 29 26
74 72 70 68 66 63 58 50 45 43 37 29 29 32 32 29 26 26 25 20 15 12 12 14 14 12 10 10 10 11 8 6 7 7 8 9 12 15 14 14 23 31 33
75 77 77 74 71 67 62 54 50 47 42 37 36 36 34 29 26 26 26 21 15 12 13 15 16 16 15 13 13 12 9 7 7 6 4 7 10 12 11 10 16 26 32
72 77 82 81 77 71 64 57 53 50 46 43 40 38 34 30 28 28 28 25 18 13 13 14 15 18 18 17 15 12 10 9 7 4 3 3 5 7 11 12 13 19 26
68 76 83 84 81 74 65 59 56 53 50 46 42 37 33 29 29 29 29 28 23 16 13 14 15 17 19 18 16 12 9 9 6 4 2 1 2 5 12 16 16 18 22

GEFSSE_con_prob3kmehi_174.txt.gz
EHI
1 3 6 8 7 3 0 0 1 3 5 6 5 4 3 2 1 0 0 0 0 0 0 0 0 0 0 0 0 0 0 0 0 0 1 0 1 1 1 0 0 0 0
2 4 6 7 6 4 1 0 1 3 4 5 4 3 2 1 0 0 0 0 0 0 0 0 0 0 0 0 0 0 0 0 0 0 1 0 0 0 0 0 0 0 0
3 3 4 5 5 3 1 0 1 2 3 3 2 1 0 0 0 0 0 0 0 0 0 0 0 0 0 0 0 0 0 0 0 0 0 0 0 0 0 0 0 0 0
2 1 2 4 4 2 1 0 1 2 2 2 1 0 0 0 0 0 0 0 0 0 0 0 0 0 0 0 0 0 0 0 0 0 0 0 0 0 0 0 0 0 0
1 0 2 4 4 3 2 2 1 1 1 1 0 0 0 0 0 0 0 0 0 0 0 0 0 0 0 0 0 1 1 1 0 0 0 0 0 0 0 0 0 0 0
0 1 3 6 5 4 4 4 3 1 0 0 0 0 0 0 1 2 1 1 0 0 1 1 0 0 0 0 0 1 1 1 0 0 0 0 0 0 0 0 0 0 0
1 2 4 7 7 6 5 3 2 0 0 0 0 0 0 0 2 3 3 2 1 0 1 1 0 0 0 0 0 0 1 1 1 0 0 0 0 0 0 0 0 0 0
2 3 4 6 7 6 5 3 1 0 0 0 0 0 0 0 1 2 2 2 1 0 1 1 0 0 0 0 0 0 1 1 1 0 0 0 1 2 1 0 0 0 0
3 3 4 5 5 6 6 4 1 0 0 0 0 0 0 0 0 1 1 1 0 0 0 0 0 0 0 0 0 0 0 0 0 0 0 1 3 3 1 0 0 0 0
5 4 3 3 4 5 5 4 1 0 0 0 0 0 0 0 0 0 0 0 0 0 0 0 0 1 0 0 0 0 0 0 0 0 0 2 4 4 1 0 0 0 0
6 5 4 4 4 3 2 1 0 0 0 0 0 0 0 0 0 0 0 0 0 0 0 0 0 0 0 0 0 0 0 0 0 0 0 2 5 4 1 0 0 0 0
10 9 7 6 5 3 1 0 0 0 0 0 0 0 0 0 0 0 0 0 0 0 0 0 0 0 0 0 0 0 0 0 0 0 1 4 7 6 3 1 1 0 0
15 14 12 10 7 4 2 1 1 0 0 0 0 0 0 0 0 0 0 0 0 0 0 0 0 0 0 0 0 0 0 0 0 0 2 7 10 9 6 3 2 1 0
19 18 15 12 9 6 4 2 1 0 0 0 0 0 0 1 1 1 0 0 0 0 0 0 0 0 0 0 0 0 0 1 1 0 2 8 11 10 8 5 3 2 1
25 22 18 15 12 11 7 4 2 1 0 0 0 0 0 1 2 2 1 0 0 0 0 0 0 0 0 0 0 0 0 1 2 1 1 7 11 12 10 6 4 2 1
33 29 23 19 16 14 10 6 3 2 1 1 0 0 0 2 3 2 2 1 1 1 1 0 0 0 0 0 0 0 0 1 2 1 1 4 10 13 13 10 6 4 2
35 33 29 23 17 13 9 6 4 2 2 1 1 1 1 2 4 3 3 3 2 2 2 1 1 1 0 0 0 0 0 1 2 2 1 2 5 10 13 12 9 7 5
33 33 32 26 17 11 7 4 3 1 1 1 3 3 2 3 4 3 3 3 3 3 2 1 1 1 0 0 0 0 0 1 2 2 1 1 2 4 7 10 10 9 8
31 32 32 27 20 12 6 3 2 1 0 1 3 4 3 3 3 4 3 3 3 3 2 1 1 1 0 0 0 0 0 0 1 1 1 0 1 2 2 4 7 7 7
34 33 32 30 25 16 8 4 2 1 1 1 2 3 3 3 4 5 5 4 4 3 3 1 0 0 0 0 0 0 0 0 0 0 0 0 1 1 1 1 3 4 5
39 37 35 34 29 21 13 8 5 3 3 3 3 3 4 4 6 7 8 7 5 4 3 2 0 0 0 0 0 0 0 0 0 0 0 0 0 0 0 0 0 1 2
45 41 38 36 31 26 19 12 8 5 4 4 5 7 8 8 9 10 11 9 5 3 3 1 0 1 1 1 0 0 0 0 0 0 0 0 0 0 0 0 0 0 0
49 46 42 39 35 31 25 18 13 9 5 3 3 6 9 12 12 12 12 9 4 3 2 1 1 3 4 3 1 0 0 0 0 0 0 0 0 0 0 0 0 0 0
55 52 47 44 40 36 32 28 23 16 8 3 1 3 7 11 12 13 11 8 4 1 1 1 3 4 6 5 3 1 0 0 0 0 0 0 0 0 0 0 0 0 0
59 57 54 50 46 42 38 35 31 22 13 7 5 4 6 8 11 12 11 8 4 2 1 2 4 5 6 7 5 3 1 0 0 0 0 0 0 0 0 0 0 0 0
61 60 59 56 50 45 40 37 33 25 17 12 8 7 6 7 8 10 9 8 6 4 3 4 5 5 6 7 6 4 3 1 0 0 0 0 0 0 0 0 0 0 0

GEFSSE_con_prob3kmehi_180.txt.gz
EHI
0 0 0 1 3 4 4 3 2 2 3 3 2 1 0 0 0 0 0 0 0 0 0 0 0 0 0 0 0 1 2 1 0 0 0 0 0 0 0 0 0 0 0
0 0 1 2 3 3 4 4 3 2 2 2 2 1 0 0 0 0 0 0 0 0 0 0 0 0 0 0 0 1 1 1 0 0 0 0 0 0 0 0 0 0 0
0 0 1 2 3 2 3 5 4 2 1 1 1 0 0 0 0 0 0 0 0 0 0 0 0 0 0 0 0 0 0 0 0 0 0 0 0 0 0 0 0 0 0
0 0 1 3 3 3 4 5 4 2 0 0 0 0 0 0 0 0 0 0 0 0 0 0 0 0 0 0 0 0 0 0 0 0 0 0 0 0 0 0 0 0 0
0 0 2 5 5 4 4 4 4 3 1 0 0 0 0 0 0 0 0 0 0 0 0 0 0 0 0 0 0 0 0 0 0 0 0 0 0 0 0 0 0 0 0
1 0 2 6 7 5 4 3 3 3 1 0 0 0 0 0 0 0 0 0 0 0 0 0 0 0 0 0 0 0 0 0 0 0 0 0 0 0 0 0 0 0 0
2 1 2 6 8 6 3 2 1 1 0 0 0 0 0 0 0 0 0 0 0 1 1 0 0 0 0 0 0 0 0 0 0 0 0 0 0 0 0 0 0 0 0
1 1 2 5 6 6 4 1 0 0 0 0 0 0 0 0 0 0 0 0 1 2 1 0 0 0 0 0 0 0 0 0 0 0 0 0 0 0 0 0 0 0 0
0 0 2 3 4 4 3 2 1 1 0 0 0 0 0 0 0 0 0 0 1 1 1 1 1 1 0 0 0 0 0 0 0 0 0 0 0 0 0 0 0 0 0
0 1 2 3 3 2 2 2 2 1 0 0 0 0 0 0 0 0 0 0 0 0 1 1 2 1 0 0 0 0 0 0 0 0 0 0 0 0 0 0 0 0 0
1 2 3 3 3 2 1 1 1 1 0 0 0 0 0 0 0 0 0 0 0 0 0 1 1 1 0 0 0 0 0 0 0 0 0 0 0 0 0 0 0 0 0
3 3 3 3 3 3 2 1 0 0 0 0 0 0 0 0 0 0 0 0 0 0 0 0 0 0 0 0 0 0 0 0 0 0 0 0 0 0 1 1 1 1 0
3 3 2 2 3 3 2 1 1 0 0 0 0 0 0 0 0 0 0 0 0 0 0 0 0 0 0 0 0 0 0 0 0 0 0 0 0 1 1 2 2 2 1
4 3 2 2 2 2 1 2 2 1 0 0 0 0 0 0 0 0 0 0 0 0 0 0 0 0 0 0 0 0 0 0 0 0 0 0 1 1 0 1 2 2 1
6 5 4 3 3 2 1 1 1 1 0 0 0 0 0 0 0 0 0 0 0 0 0 0 0 0 0 0 0 0 0 0 0 0 0 0 1 1 1 0 1 1 0
10 8 6 5 4 3 2 1 0 0 0 0 0 0 0 0 0 0 0 0 0 0 0 0 0 0 0 0 0 0 0 0 0 0 0 0 1 2 2 1 0 0 0
10 9 8 7 5 3 2 1 0 0 0 0 0 0 0 0 0 0 0 0 0 0 0 0 0 0 0 0 0 0 0 0 0 0 0 0 0 1 2 1 1 1 1
8 8 8 8 6 3 1 0 0 0 0 0 0 0 0 0 0 0 0 0 0 0 0 0 0 0 0 0 0 0 0 0 0 0 0 0 0 0 1 1 1 1 1
8 7 7 8 7 4 1 0 0 0 0 0 0 0 0 0 0 0 0 0 0 0 0 0 0 0 0 0 0 0 0 0 0 0 0 0 0 0 0 0 1 1 1
10 9 7 7 6 4 2 1 0 0 0 0 0 0 0 0 0 1 1 0 0 0 0 0 0 0 0 0 0 0 0 0 0 0 0 0 0 0 0 0 1 1 0
12 12 11 9 6 4 3 1 0 0 0 0 0 0 0 0 0 1 1 0 0 0 0 0 0 0 0 1 1 0 0 0 0 0 0 0 0 0 0 0 0 0 0
13 15 15 12 8 6 5 3 1 0 0 0 0 0 0 0 0 1 1 0 0 1 1 1 0 0 1 2 2 1 0 0 0 0 0 0 0 0 0 0 0 0 0
15 17 18 16 12 9 8 6 5 3 2 1 0 0 0 0 0 1 1 1 1 2 2 2 1 1 2 3 3 2 0 0 0 0 0 0 0 0 0 0 0 0 0
16 18 20 19 15 12 11 10 9 7 5 2 1 0 0 1 2 2 2 2 2 2 2 2 2 2 3 4 3 2 0 0 0 0 0 0 0 0 0 0 0 0 0
17 20 23 23 20 16 15 14 12 10 7 3 1 0 0 2 3 2 1 1 1 1 1 1 1 1 3 4 4 2 1 0 1 1 0 0 0 0 0 0 0 0 0
18 21 25 25 23 19 17 16 15 12 7 2 0 0 0 1 2 1 0 0 0 0 0 0 0 1 3 4 4 3 1 1 2 2 1 0 0 0 0 0 0 0 0

GEFSSE_con_prob3kmehi_186.txt.gz
EHI
0 0 0 0 0 0 0 0 1 1 1 0 0 0 0 0 0 0 1 0 0 0 0 0 0 0 0 0 0 0 0 1 2 2 1 0 0 0 0 0 0 0 0
0 0 0 0 0 0 0 0 0 0 0 0 0 0 0 0 0 1 1 1 0 0 0 0 0 0 0 0 0 0 0 1 2 2 1 0 0 0 0 0 0 0 0
0 0 0 0 0 0 0 0 0 0 0 0 0 0 0 0 1 2 2 1 0 0 0 0 0 0 0 0 0 0 0 0 1 1 0 0 0 0 0 0 0 0 0
0 0 0 0 0 0 0 0 0 0 0 0 0 0 0 0 1 1 1 0 0 0 0 0 0 0 0 0 0 0 0 0 0 0 0 0 0 0 0 0 0 0 0
0 0 1 0 0 0 0 0 0 0 0 0 0 0 0 0 0 0 0 0 0 0 0 0 0 0 0 0 0 0 0 0 0 0 0 0 0 0 0 0 0 0 0
0 0 0 0 0 0 0 0 0 0 0 0 0 0 0 0 0 0 0 0 0 0 0 0 0 0 0 0 0 0 0 0 1 0 0 0 0 0 0 0 0 0 0
0 0 0 0 0 0 0 0 0 0 0 0 0 0 0 0 0 0 0 0 0 0 0 0 0 0 0 0 0 0 0 0 0 0 0 0 0 0 0 0 0 0 0
0 0 1 0 0 0 0 0 0 0 0 0 0 0 0 0 0 0 0 0 0 0 0 0 0 0 0 0 0 0 0 0 0 0 0 0 0 0 0 0 0 0 0
0 0 0 0 0 0 0 0 0 0 0 0 0 0 0 0 0 0 0 0 0 0 0 0 0 0 0 0 0 0 0 0 0 0 0 0 0 0 0 0 0 0 0
1 0 0 0 0 0 0 0 0 0 0 0 0 0 0 0 0 0 0 0 0 0 0 0 0 0 0 0 0 0 0 0 0 0 0 0 0 0 0 0 0 0 0
3 2 1 1 1 0 0 0 0 0 0 0 0 0 0 0 0 0 0 1 1 1 0 0 0 0 0 0 0 0 0 0 0 0 0 0 0 0 0 0 0 0 0
6 6 5 4 3 1 0 0 0 0 0 0 0 0 0 0 0 0 0 1 2 1 1 1 0 0 1 0 0 0 0 0 0 0 0 0 0 0 0 0 0 0 0
9 10 8 6 5 3 1 0 0 0 0 0 0 0 0 0 0 0 0 1 1 1 1 0 0 0 0 0 0 0 0 0 0 0 1 1 0 0 0 0 0 0 0
9 10 9 8 6 5 3 1 0 0 0 0 0 0 0 0 0 0 0 0 0 1 0 0 0 0 0 0 0 0 0 0 0 1 2 2 1 1 1 0 0 0 0
9 10 10 9 7 6 4 2 0 0 0 0 0 0 0 0 0 0 0 0 0 0 0 0 0 0 0 0 0 0 0 0 0 1 2 3 3 2 2 1 1 0 0
10 11 12 11 9 7 4 1 0 0 0 0 0 0 0 1 1 1 2 1 0 0 0 0 0 0 0 0 0 0 0 0 0 0 1 2 3 3 4 3 3 2 1
13 14 15 14 12 8 3 1 0 0 0 0 0 0 1 2 2 3 3 2 1 0 0 0 0 0 0 0 0 0 0 0 0 0 0 1 2 3 5 6 5 5 4
17 18 18 17 15 11 5 2 0 0 0 0 0 1 2 3 3 3 3 3 2 1 0 0 0 0 0 0 0 0 0 0 0 0 0 1 1 3 6 8 7 7 6
19 20 22 22 18 13 8 5 2 1 0 0 1 2 3 3 4 3 4 4 3 2 1 0 1 1 0 0 0 0 0 0 0 0 0 0 1 2 5 8 8 8 7
21 23 26 26 22 16 11 8 5 2 1 1 1 2 3 4 5 5 5 6 6 4 2 1 2 3 1 0 0 0 0 0 0 0 0 0 1 2 3 4 7 7 7
27 29 31 30 26 21 16 11 7 4 3 2 2 1 3 5 6 7 8 9 9 8 5 3 3 3 2 1 1 0 0 0 0 0 0 0 0 0 0 2 5 6 7
31 32 34 33 29 26 21 15 8 5 5 5 4 4 6 7 8 10 11 11 12 12 9 7 4 3 3 2 2 1 0 0 0 0 0 1 1 0 0 1 3 6 7
30 31 34 35 33 31 28 21 13 9 9 8 7 7 9 10 11 11 11 12 13 14 12 9 5 3 3 3 3 2 1 1 1 1 1 1 1 1 1 0 2 5 8
27 29 34 39 39 38 36 30 24 18 12 10 10 10 11 12 10 9 10 12 14 15 12 8 4 3 3 3 3 3 2 2 3 3 2 2 2 1 1 1 1 4 6
26 29 36 44 47 46 42 38 34 25 17 13 13 15 16 14 10 7 9 13 15 13 9 5 5 5 4 5 4 4 4 4 4 4 3 3 3 1 1 1 2 3 4
26 29 37 45 50 50 46 42 38 30 21 17 17 20 20 16 10 8 9 14 15 12 7 5 6 7 8 8 6 5 4 4 4 4 4 3 3 1 1 1 2 3 5

GEFSSE_con_prob3kmehi_192.txt.gz
EHI
3 2 2 1 0 0 0 0 0 0 1 2 3 3 3 3 3 2 1 0 0 0 0 0 0 0 0 0 0 0 1 2 3 3 3 3 2 1 0 0 0 0 0
3 2 1 1 0 0 0 0 0 0 1 2 3 3 3 3 2 1 0 0 0 0 0 0 0 0 0 0 0 0 1 2 3 3 2 2 2 1 0 0 0 0 0
3 1 0 0 1 1 1 0 0 0 1 2 3 3 3 1 1 0 0 0 0 0 0 0 0 0 0 0 0 0 1 2 2 1 1 1 1 0 0 0 0 0 0
4 2 1 1 2 2 2 1 0 0 0 1 2 2 2 1 0 0 0 0 0 0 0 0 0 0 0 0 0 0 0 1 1 0 0 0 0 0 0 0 0 0 0
6 5 3 2 2 3 2 1 0 0 0 0 1 1 1 0 0 0 0 0 0 0 0 0 0 0 0 0 1 1 1 1 1 1 1 1 0 0 0 0 0 0 0
6 5 4 3 3 1 1 1 0 0 0 0 0 0 0 0 0 0 0 0 0 0 0 0 0 0 0 0 1 1 1 2 3 3 3 3 2 1 0 0 0 0 0
5 4 3 4 3 1 0 0 0 0 0 0 0 0 0 0 0 0 0 0 0 0 0 0 0 0 0 0 0 0 1 2 3 3 3 4 3 1 0 0 0 0 0
6 6 4 3 2 1 0 0 0 0 0 0 0 0 0 0 0 0 0 0 0 0 0 0 0 0 0 0 0 1 1 2 3 2 2 3 3 1 0 0 0 0 0
5 7 6 2 1 0 0 0 0 0 0 0 0 0 0 0 1 1 1 1 0 0 0 0 0 0 0 0 0 2 3 3 3 1 0 1 1 0 0 0 0 0 0
3 5 5 3 2 2 1 1 1 0 0 0 0 0 1 1 2 2 2 2 1 0 0 0 0 0 1 1 2 4 5 4 2 1 0 1 1 0 0 0 0 0 0
1 2 2 3 4 4 3 2 2 1 0 1 1 1 2 3 3 3 3 4 2 0 0 0 1 1 2 3 5 7 7 4 2 1 2 4 4 1 0 0 0 0 0
4 3 3 3 4 4 4 4 3 1 1 2 3 3 3 3 3 3 4 6 4 1 0 0 1 2 2 2 5 8 6 2 2 3 6 9 8 3 0 0 0 0 0
6 7 7 6 5 4 4 4 3 1 1 3 5 4 3 3 3 3 5 6 4 1 0 1 2 2 1 1 2 4 4 2 1 3 7 13 12 7 4 2 1 0 1
6 8 11 12 12 10 6 3 2 2 3 5 7 7 5 4 3 4 5 5 3 2 1 2 3 3 2 1 0 2 3 2 2 3 10 17 17 13 9 6 3 2 2
9 11 16 19 19 15 9 4 1 2 3 4 8 9 7 5 4 4 5 6 6 4 3 4 5 5 4 3 2 1 2 2 3 5 12 20 22 19 15 11 8 6 5
17 19 22 24 23 17 9 3 1 2 1 3 8 9 7 6 5 5 6 7 7 5 5 6 7 6 5 5 5 3 2 2 3 5 10 19 25 24 20 16 14 12 11
30 29 27 25 26 21 11 4 2 2 1 4 9 11 9 8 9 9 7 8 8 7 6 7 7 5 4 6 7 6 4 3 3 3 7 16 23 25 24 21 19 18 17
42 41 32 26 28 27 19 10 5 4 4 7 13 15 13 12 14 14 10 10 10 9 9 7 5 4 4 5 6 6 6 6 7 6 8 14 22 26 27 26 25 24 22
51 48 38 31 31 31 26 19 14 11 9 10 15 20 19 17 18 17 13 12 12 11 9 7 5 5 5 5 4 4 7 12 14 13 12 16 24 31 32 30 30 29 28
57 54 47 40 37 35 30 27 25 23 19 16 19 26 26 22 21 19 16 16 16 14 10 7 5 5 5 5 3 3 7 13 18 19 16 17 25 33 35 34 34 32 31
65 63 56 49 45 40 34 31 31 28 25 23 27 33 34 30 27 24 21 23 24 21 16 10 7 6 4 4 4 4 6 11 16 18 17 18 21 27 32 36 39 38 35
75 71 64 58 54 48 39 32 28 26 25 27 36 41 39 36 34 31 29 28 30 30 26 19 15 11 6 3 4 4 4 6 8 10 13 16 18 22 27 31 39 43 42
78 75 69 66 63 57 48 38 31 30 30 33 42 46 44 41 39 37 35 32 30 31 30 27 24 20 12 4 3 4 2 2 2 3 6 12 17 20 20 21 29 38 42
77 77 76 74 71 65 57 47 40 39 39 39 45 49 49 45 41 39 39 37 33 31 31 29 27 23 16 6 3 3 4 3 3 2 3 7 12 16 15 12 17 27 33
75 78 81 82 79 71 61 53 47 42 40 42 47 50 49 48 45 42 42 41 37 33 32 31 26 21 15 9 4 4 5 6 6 5 5 5 8 11 12 11 14 20 24
74 77 82 85 83 74 62 54 49 43 39 41 46 49 48 48 48 45 43 43 39 33 33 33 28 20 14 10 6 5 5 6 7 7 6 6 6 9 13 15 17 19 18

GEFSSE_con_prob3kmehi_198.txt.gz
EHI
0 2 7 9 7 4 3 2 2 3 5 5 5 6 5 4 3 3 2 1 0 0 0 1 2 3 3 2 2 2 1 2 2 3 2 2 2 1 1 1 1 0 0
1 2 7 9 8 5 2 1 1 2 4 4 4 4 5 4 3 2 2 1 0 0 0 0 1 2 2 1 1 1 0 1 1 2 1 1 1 0 0 1 0 0 0
2 2 5 9 9 6 3 1 1 2 3 3 3 3 4 3 2 1 1 1 0 0 0 0 1 1 1 0 0 0 0 0 0 0 0 0 0 0 1 1 0 0 0
4 2 3 7 8 6 4 3 2 2 3 3 3 3 3 3 2 0 0 0 0 0 0 0 0 0 0 0 0 0 0 0 0 0 0 0 0 1 2 1 0 0 0
4 2 3 7 8 6 4 3 2 1 2 2 2 3 3 2 1 0 0 0 0 0 0 0 0 0 0 0 0 0 0 0 0 0 0 0 0 1 2 1 0 0 0
1 1 3 7 9 7 5 3 1 1 1 1 2 2 2 1 0 0 0 0 0 0 0 0 0 0 0 0 0 0 0 0 0 0 0 0 0 1 1 0 0 0 0
0 0 3 7 10 8 5 2 1 1 1 1 2 1 1 0 0 0 0 0 0 0 0 0 0 0 0 0 0 0 0 0 0 0 0 0 1 1 1 0 0 0 0
0 0 2 5 7 5 4 2 1 1 1 1 1 1 0 0 0 0 0 0 0 0 0 0 0 0 0 0 0 0 0 0 0 0 0 0 1 2 3 1 1 0 0
0 0 1 2 3 3 3 3 2 1 1 0 0 0 1 1 0 0 0 0 0 0 0 0 0 0 0 0 0 0 0 0 0 0 0 0 1 3 4 3 2 1 0
1 0 0 0 1 1 1 2 2 1 0 0 0 1 2 2 1 1 0 0 0 0 0 0 0 0 0 0 0 1 0 0 0 0 0 0 2 5 5 3 2 1 0
2 1 0 0 0 0 0 1 1 0 0 0 0 1 1 1 1 2 1 1 0 0 0 0 0 0 0 0 0 0 0 0 0 0 0 1 4 6 5 3 2 1 0
4 3 1 1 0 0 0 0 0 0 0 0 0 0 1 1 1 2 3 2 1 0 0 0 0 0 0 0 0 0 0 0 0 0 0 3 7 9 9 6 4 2 1
5 4 3 2 1 0 0 0 0 0 0 0 0 0 1 2 2 1 2 2 1 0 0 0 0 0 0 0 0 0 0 0 0 0 2 6 11 14 13 11 8 5 4
5 6 5 5 3 2 1 0 0 0 0 0 0 0 1 2 2 1 1 1 0 0 0 0 0 0 0 0 0 0 0 0 0 0 3 9 15 18 17 14 11 7 6
6 8 9 8 6 5 2 1 0 0 0 0 0 0 0 1 1 0 0 0 0 0 0 0 0 0 0 0 0 0 0 0 0 0 2 9 16 20 18 15 11 9 7
9 10 11 10 8 6 4 1 0 0 0 0 0 0 1 1 0 0 0 0 0 0 0 0 0 0 0 0 0 0 0 0 0 0 1 5 13 19 21 18 15 12 10
15 14 12 9 5 5 3 1 0 0 0 0 0 1 2 2 1 0 0 0 0 0 0 0 0 0 0 0 0 0 0 0 0 0 1 2 6 14 21 22 21 18 17
17 16 12 7 4 4 3 1 0 1 1 1 0 1 3 4 3 1 0 0 0 0 0 0 0 0 0 0 0 0 0 1 1 1 1 1 2 6 13 21 25 25 24
17 16 14 10 6 5 4 1 0 0 0 0 0 2 5 7 6 3 1 0 0 0 0 0 0 0 0 0 0 0 0 1 2 1 2 2 2 3 5 12 20 24 24
20 20 18 14 10 8 6 5 2 1 0 0 1 4 8 11 11 7 3 2 2 1 0 0 0 0 0 0 0 0 0 1 1 0 1 1 2 3 3 6 9 12 17
30 27 25 21 16 12 11 10 8 4 1 0 1 5 11 15 16 12 6 4 3 1 0 0 0 0 0 0 0 0 0 0 0 0 0 0 1 1 2 2 2 3 7
39 35 31 27 21 17 16 14 12 8 3 1 2 5 11 18 20 17 11 8 5 2 1 1 1 0 0 0 0 0 0 0 0 0 0 0 0 0 1 1 1 2 3
44 41 37 33 28 23 20 17 17 14 10 6 4 5 11 17 20 19 17 14 10 6 3 3 2 1 1 0 0 0 0 0 0 0 0 0 0 0 0 0 1 3 4
48 47 45 41 37 32 26 23 22 21 17 11 6 5 8 13 17 19 20 19 16 11 8 5 3 2 1 0 0 0 0 0 0 0 0 0 0 0 0 0 0 2 3
50 53 53 48 43 40 35 29 27 26 20 13 7 5 7 10 14 18 21 21 20 16 12 7 4 2 1 0 0 0 0 0 0 0 0 0 0 0 0 0 0 0 1
51 56 57 52 46 44 40 32 28 26 20 12 8 7 7 8 12 18 21 21 20 19 13 8 5 2 1 0 0 0 0 0 0 0 0 0 0 0 0 0 0 0 0

GEFSSE_con_prob3kmehi_204.txt.gz
EHI
0 0 0 1 1 1 3 5 5 4 3 3 3 2 1 0 0 0 0 0 0 0 0 0 0 0 0 0 0 0 0 1 0 0 0 0 0 0 0 0 0 0 0
0 0 0 1 2 2 3 5 6 5 3 3 3 2 2 1 1 0 0 0 0 0 0 0 0 0 0 0 0 0 0 1 1 0 0 0 0 0 0 0 0 0 0
0 0 0 1 2 3 3 4 5 5 4 3 2 2 2 2 1 0 0 0 0 0 0 0 0 0 0 0 0 0 0 1 1 1 0 0 0 0 0 0 0 0 0
0 0 1 2 2 3 3 3 3 3 4 4 3 1 1 1 1 0 0 0 0 0 0 0 0 0 0 0 0 0 0 1 1 0 0 0 0 0 0 0 0 0 0
0 0 1 3 3 4 4 3 2 1 2 3 3 1 0 0 0 0 0 0 0 0 0 0 0 0 0 0 0 0 0 0 0 0 0 0 0 0 0 0 0 0 0
0 0 1 4 5 5 5 3 1 0 0 1 1 0 0 0 0 0 0 0 0 0 0 0 0 0 0 0 0 0 0 0 0 0 0 0 0 0 0 0 0 0 0
0 0 2 5 7 7 5 2 0 0 0 0 0 0 0 0 0 0 0 0 0 0 0 0 0 0 0 0 0 0 0 0 0 0 0 0 0 0 0 0 0 0 0
0 0 1 4 7 7 5 3 1 0 0 0 0 0 0 0 0 0 0 0 0 0 0 0 0 0 0 0 0 0 0 0 0 0 0 0 0 0 0 0 0 0 0
0 0 0 2 3 4 3 3 2 1 0 0 0 0 0 0 0 0 0 0 0 0 0 0 0 0 0 0 0 0 0 0 0 0 0 0 0 0 0 0 0 0 0
0 0 0 0 1 1 1 2 2 1 0 0 0 0 0 0 0 0 0 0 0 0 0 0 0 0 0 0 0 0 0 0 0 0 0 0 0 0 0 0 0 0 0
0 0 0 0 0 0 0 1 1 1 0 0 0 0 0 0 0 0 0 0 0 0 0 0 0 0 0 0 0 0 0 0 0 0 0 0 0 0 1 1 1 0 1
0 0 0 0 0 0 0 0 0 0 0 0 0 0 0 0 0 0 0 0 0 0 0 0 0 0 0 0 0 0 0 0 0 0 0 0 0 0 1 2 2 1 1
0 0 0 1 1 0 0 0 0 0 0 0 0 0 0 0 0 0 0 0 0 0 0 0 0 0 0 0 0 0 0 0 0 0 0 0 0 0 1 3 2 1 1
0 0 0 1 1 0 0 0 0 0 0 0 0 0 0 0 0 0 0 0 0 0 0 0 0 0 0 0 0 0 0 0 0 0 0 0 0 0 1 2 3 2 2
0 0 0 1 1 0 0 0 0 0 0 0 0 0 0 0 0 0 0 0 0 0 0 0 0 0 0 0 0 0 0 0 0 0 0 0 0 1 1 2 3 3 3
0 0 0 0 0 0 0 0 0 0 0 0 0 0 0 0 0 0 0 0 0 0 0 0 0 0 0 0 0 0 0 0 0 0 0 0 0 0 0 1 2 3 2
0 0 0 0 0 0 0 0 0 0 0 0 0 0 0 0 0 0 0 0 0 0 0 0 0 0 0 0 0 0 0 0 0 0 0 0 0 0 0 2 3 2 2
0 0 0 0 0 0 0 0 0 0 0 0 0 0 0 0 0 0 0 0 0 0 0 0 0 0 0 0 0 0 0 0 0 0 0 0 0 0 1 3 4 3 2
0 0 0 0 0 0 0 0 0 0 0 0 0 0 0 0 0 0 0 0 0 0 0 0 0 0 0 0 0 0 0 0 0 0 0 0 0 0 0 2 3 3 2
1 0 0 0 0 0 0 0 1 1 0 0 0 0 0 0 1 1 0 0 0 1 1 1 0 0 0 0 0 0 0 0 0 0 0 0 0 0 0 0 1 1 1
3 2 0 0 0 0 0 1 2 2 1 1 1 1 1 1 2 2 1 1 1 2 2 1 0 0 0 0 0 0 0 0 0 0 0 0 0 0 0 0 0 0 0
7 5 2 1 0 0 1 1 2 3 3 2 2 2 2 2 2 1 1 2 2 3 3 2 1 1 1 1 1 0 0 0 0 0 0 0 0 0 0 0 0 0 0
11 8 4 2 1 0 0 1 2 3 3 4 3 1 1 1 1 0 1 1 2 3 3 3 3 2 2 2 2 1 1 1 1 0 0 0 0 0 0 0 0 0 0
14 10 6 3 2 1 0 2 2 3 3 4 2 1 0 0 0 0 0 0 1 2 3 3 3 3 3 3 3 3 2 2 1 0 0 0 0 0 0 0 0 0 0
17 14 9 5 3 2 3 5 6 4 3 3 2 1 0 0 0 0 0 0 1 1 3 3 3 3 3 3 3 3 3 2 1 0 0 0 0 0 0 0 0 0 0
21 18 12 7 4 4 6 8 8 6 3 2 1 1 1 0 0 0 1 1 1 2 4 4 4 3 3 3 3 3 3 2 1 0 0 0 0 0 0 0 0 0 0

GEFSSE_con_prob3kmehi_210.txt.gz
EHI
0 0 0 0 0 0 1 0 0 0 1 2 2 1 0 0 0 0 0 0 0 0 0 0 0 0 0 0 1 2 2 1 1 1 0 0 0 0 0 0 0 0 0
0 0 0 0 0 1 1 0 0 0 0 1 1 0 0 0 0 0 0 0 0 0 0 0 0 0 0 0 0 1 1 0 0 0 0 0 0 0 0 0 0 0 0
0 0 0 1 1 1 1 0 0 0 0 0 0 0 0 0 0 0 0 0 0 0 0 0 0 0 0 0 0 0 0 0 0 0 0 0 0 0 0 0 0 0 0
0 0 1 2 1 1 1 0 0 0 0 0 0 0 0 0 0 0 0 0 0 0 0 0 0 0 0 0 0 0 0 0 1 1 0 0 0 0 0 0 0 0 0
0 0 1 2 1 1 0 0 0 0 0 0 0 0 0 0 0 0 0 0 0 0 0 0 0 0 0 0 0 1 1 1 2 1 0 0 0 0 0 0 0 0 0
0 0 0 1 1 0 0 0 0 0 0 0 0 0 0 0 0 0 0 0 0 0 0 0 0 0 0 0 0 1 1 1 1 1 0 0 0 0 0 0 0 0 0
0 0 1 1 1 0 0 0 0 0 0 0 0 0 0 0 0 0 0 0 0 0 0 0 0 0 0 0 0 0 1 1 1 0 0 0 1 1 1 0 0 0 0
0 0 1 1 1 0 0 0 0 0 0 0 0 0 0 0 0 0 0 0 0 0 0 0 0 0 0 0 0 0 0 1 0 0 0 0 1 1 1 0 1 1 0
1 1 1 0 0 0 0 0 0 0 0 0 0 0 0 0 0 0 0 0 0 0 0 0 0 0 0 0 0 0 0 0 0 0 0 0 1 1 0 0 1 1 1
0 0 0 0 0 0 0 0 0 0 0 0 0 0 0 0 0 0 0 0 0 0 0 0 0 0 0 0 0 0 0 0 0 0 0 0 0 0 0 0 1 1 0
0 0 0 0 0 0 0 0 0 0 0 0 0 0 1 1 0 0 0 0 0 0 0 0 0 0 0 0 0 0 0 0 0 0 0 0 0 0 0 0 0 0 0
0 0 0 0 0 0 0 0 0 0 0 0 0 1 2 2 1 1 1 1 0 0 0 0 0 0 0 0 0 1 0 0 0 0 0 0 0 0 0 0 0 0 1
0 0 1 1 1 0 0 0 0 0 0 0 0 1 2 2 2 2 2 1 0 0 0 0 0 0 0 0 0 0 0 0 0 0 0 0 0 0 0 1 2 2 2
1 1 2 2 2 1 1 0 0 0 0 0 0 0 1 1 1 1 1 1 0 0 0 0 0 0 0 0 0 0 0 0 0 0 0 0 0 0 1 2 2 3 3
2 1 2 3 3 3 2 1 0 0 0 0 0 0 0 0 1 1 1 0 0 0 0 1 0 0 0 0 0 0 0 0 0 0 0 0 1 1 1 1 2 3 3
3 3 3 4 3 3 3 2 1 1 0 0 0 1 1 1 2 4 3 1 0 1 1 1 1 0 0 0 0 0 0 0 0 1 1 1 2 1 1 1 1 2 3
5 5 5 4 4 3 3 3 2 1 0 0 0 1 2 3 4 5 5 3 2 2 3 3 2 2 1 1 1 1 1 1 1 2 2 1 1 2 2 2 2 2 3
6 6 5 3 3 4 4 4 3 3 3 2 2 2 4 5 5 5 5 5 4 4 5 4 3 4 3 3 3 3 2 2 2 2 2 1 1 1 3 5 4 3 3
7 7 5 4 4 4 5 5 5 5 6 6 4 4 5 5 5 4 4 4 4 4 4 3 3 3 4 5 4 3 2 2 1 1 1 1 1 1 2 5 6 5 4
9 9 9 8 7 5 5 6 7 6 6 6 5 5 5 4 3 3 3 2 2 2 1 1 1 3 5 6 3 2 1 1 0 0 0 1 1 1 2 3 4 3 3
14 14 14 14 12 9 7 7 6 5 4 4 4 4 4 3 2 2 2 3 3 2 2 2 3 5 6 6 4 1 0 0 0 0 0 1 2 2 2 2 2 2 1
20 20 19 18 17 14 10 8 6 4 3 3 3 3 2 1 1 2 3 4 4 5 6 7 9 9 9 9 8 4 1 1 1 0 0 1 1 1 1 1 1 1 0
26 24 21 21 21 19 15 10 7 5 3 2 2 3 3 2 2 3 4 6 7 8 9 12 12 13 13 13 12 9 4 2 1 1 1 1 1 0 0 0 0 1 1
26 24 23 25 26 26 22 16 12 9 4 3 3 3 4 3 3 4 7 11 13 13 14 14 13 14 16 15 15 13 9 5 4 3 2 1 1 2 1 1 1 2 4
23 25 26 28 29 31 28 23 19 13 7 6 6 6 6 5 4 5 7 12 14 15 16 15 13 15 16 15 15 15 12 9 7 6 3 2 2 2 2 2 2 4 6
22 26 28 29 31 33 31 26 23 17 10 9 9 9 8 6 4 5 7 9 11 13 15 17 15 15 15 14 14 13 13 11 10 8 5 3 2 2 3 3 3 5 6

GEFSSE_con_prob3kmehi_216.txt.gz
EHI
2 2 3 2 0 0 0 1 1 1 0 0 1 2 2 1 0 1 2 1 0 0 0 0 1 2 3 2 1 0 1 1 1 0 0 0 0 0 0 0 0 1 2
2 2 4 3 1 0 0 0 0 0 0 0 0 1 1 0 0 1 1 1 0 0 0 0 1 2 3 2 1 0 0 0 0 0 0 0 0 0 0 0 0 1 2
1 1 3 3 1 0 0 0 0 0 0 0 0 0 0 0 0 0 0 0 0 0 0 0 0 1 2 1 0 0 0 0 0 0 0 0 0 0 0 0 1 2 3
1 1 3 3 1 0 0 0 0 0 0 0 0 0 1 0 0 0 0 0 0 0 0 0 0 0 0 0 0 0 0 0 1 1 1 0 0 0 0 0 1 2 2
2 2 3 3 2 1 0 0 0 0 0 0 0 0 0 0 0 0 0 0 0 0 0 0 0 0 0 0 0 0 0 0 1 2 1 1 1 1 0 0 0 1 1
5 4 5 6 4 2 1 0 0 0 0 0 0 0 0 0 0 0 0 0 0 0 0 0 0 0 0 0 1 1 0 0 1 1 1 2 2 1 0 0 0 0 0
7 6 6 8 7 4 1 0 0 0 0 0 0 0 1 1 0 0 0 0 0 0 0 0 0 0 0 0 1 1 1 1 1 1 1 2 4 5 3 1 0 0 0
8 7 6 8 7 3 1 1 1 1 1 1 1 1 2 2 1 0 0 0 0 0 1 1 1 1 0 0 0 1 1 1 1 1 1 2 7 9 5 2 1 0 0
9 7 5 5 4 2 1 1 2 2 2 2 2 3 3 3 2 1 1 1 1 1 1 2 3 2 1 0 0 0 1 1 0 0 0 2 7 9 7 3 1 1 0
6 6 4 2 1 0 0 2 3 3 3 3 3 4 4 3 3 4 3 3 3 3 3 3 3 3 3 3 4 3 2 1 0 0 1 4 8 9 7 4 3 2 1
4 3 2 1 0 0 1 3 4 4 4 3 3 4 3 2 3 4 5 5 5 4 3 3 4 5 5 7 10 9 5 2 1 1 3 8 13 12 9 5 4 3 3
3 2 0 0 0 0 2 4 5 5 6 5 4 4 3 2 2 3 6 7 6 5 4 5 6 7 6 7 10 11 7 3 2 2 7 14 19 17 12 8 5 3 3
3 2 1 1 1 1 2 4 4 4 7 7 6 7 7 4 2 2 5 7 7 6 6 7 8 7 5 4 6 8 6 3 2 3 9 19 23 19 14 10 7 4 4
4 3 4 6 7 5 3 2 2 2 4 6 8 9 9 7 4 2 3 4 6 7 8 9 9 8 5 3 3 5 5 3 1 2 10 20 23 18 13 11 10 8 6
9 7 8 12 13 9 4 2 1 1 1 5 9 9 8 7 6 4 4 5 5 6 9 10 9 8 7 4 2 2 3 3 1 2 9 18 21 17 13 13 12 12 12
22 17 15 17 17 12 5 2 2 1 1 6 11 13 11 9 10 9 9 9 8 8 10 11 9 7 7 6 3 2 2 3 3 4 8 16 20 18 18 16 16 17 17
35 30 23 21 20 15 7 4 3 2 2 6 13 17 16 15 15 14 13 13 12 11 13 14 11 7 6 6 6 5 4 6 7 7 9 14 16 16 17 19 21 21 21
45 39 28 20 20 17 10 5 4 4 4 7 13 19 21 18 16 15 14 13 12 12 14 14 12 9 7 7 9 9 9 10 12 11 11 13 14 12 12 17 22 24 24
52 47 33 24 22 18 11 8 6 7 7 9 14 20 22 19 16 15 15 15 13 12 12 10 10 11 11 9 9 11 13 15 16 14 12 12 14 13 12 13 18 20 20
58 54 44 36 30 22 13 10 8 8 8 8 13 21 22 17 17 18 19 20 17 14 12 10 10 14 16 14 11 11 15 18 19 17 13 12 13 14 16 17 19 17 15
64 63 56 49 42 31 20 13 10 7 5 5 12 22 24 18 16 18 19 20 21 19 17 14 13 16 19 19 15 12 12 14 17 17 14 12 11 12 16 22 25 23 19
71 70 64 59 54 41 28 18 11 7 6 6 14 25 28 22 17 15 16 17 18 20 20 18 17 19 20 20 18 13 9 9 9 10 12 13 11 12 14 19 28 32 30
72 71 67 67 65 52 35 23 17 13 12 13 21 28 30 25 20 16 16 17 17 19 21 21 21 22 20 18 17 14 12 10 6 5 8 12 14 15 14 14 22 33 37
70 69 70 73 72 61 45 31 25 22 17 18 24 29 29 25 21 20 21 23 22 21 21 21 23 23 18 14 15 16 16 15 10 6 6 10 15 17 15 13 18 27 33
67 70 74 77 75 67 54 42 35 27 20 21 27 31 32 29 25 23 25 29 28 23 20 22 24 23 16 12 13 17 19 19 16 11 8 8 11 15 17 18 21 25 28
65 70 76 79 76 68 58 49 40 30 24 25 31 35 36 33 28 24 25 30 29 25 21 23 25 23 17 12 12 16 21 21 18 14 11 9 10 14 19 24 26 27 29

GEFSSE_con_prob3kmehi_222.txt.gz
EHI
0 1 4 4 4 4 6 7 6 5 6 8 7 6 5 7 7 5 3 1 0 0 0 0 0 0 1 0 1 2 2 3 3 3 1 0 1 2 3 3 3 1 1
0 1 3 3 3 4 5 6 6 6 7 7 6 6 5 5 6 5 3 1 0 0 0 0 0 0 1 0 0 1 1 2 2 2 1 0 0 1 1 2 2 1 1
0 0 1 2 3 4 6 6 6 6 7 6 6 6 6 5 5 5 4 1 0 0 0 0 0 0 0 0 0 0 0 1 1 1 1 0 0 0 0 0 0 0 0
0 0 1 2 3 5 7 7 6 6 5 6 6 6 6 7 6 5 3 1 0 0 0 0 0 0 0 0 0 0 0 0 0 0 0 0 0 0 0 0 0 0 0
0 0 1 2 3 5 7 7 6 4 4 4 4 4 5 7 6 4 2 0 0 0 0 0 0 0 0 0 0 0 0 0 0 0 0 0 0 0 0 0 0 0 0
0 0 0 2 3 3 4 5 5 4 3 2 3 3 4 4 4 2 0 0 0 0 0 0 0 0 0 0 0 0 0 0 0 0 0 0 0 0 0 0 0 0 0
0 0 1 2 2 1 1 2 2 2 2 1 2 3 3 3 2 1 0 1 0 0 0 0 0 0 0 0 0 0 0 0 0 0 0 0 0 0 0 0 0 0 0
1 0 1 2 1 0 0 1 1 1 1 0 1 2 3 3 1 0 0 0 0 0 0 0 0 0 0 0 0 0 0 0 0 0 0 0 0 0 1 1 1 1 0
1 1 1 1 0 0 0 1 1 1 1 1 1 2 3 3 1 0 0 0 0 1 1 1 1 0 0 1 1 1 1 0 0 0 0 0 0 1 4 5 3 1 1
1 1 0 0 0 0 0 1 2 2 2 2 2 2 4 3 1 0 0 0 1 2 2 2 2 1 2 2 3 3 2 1 0 0 0 0 1 2 6 7 5 2 1
1 1 0 0 0 0 0 0 1 2 2 1 1 1 2 2 0 0 0 1 2 4 4 4 4 4 4 3 3 4 2 1 0 0 0 1 2 4 7 9 8 5 2
3 1 1 1 0 0 0 0 0 1 1 0 0 0 0 0 0 0 0 1 3 4 4 3 4 5 3 1 1 2 1 0 0 0 0 2 4 7 8 10 11 8 5
4 2 1 0 0 0 0 0 0 0 0 0 0 0 0 0 0 0 0 1 1 1 1 1 2 2 1 0 0 1 0 0 0 0 1 4 7 8 9 10 11 10 8
5 3 1 0 0 0 0 0 0 0 0 0 0 0 1 1 0 0 0 0 0 0 0 0 0 0 0 0 0 1 0 0 0 0 1 4 7 7 8 10 10 10 10
7 5 2 1 0 0 0 0 0 0 0 0 0 1 3 3 1 0 0 0 0 0 0 0 0 0 0 0 0 0 0 0 0 0 1 3 6 9 10 10 10 10 10
12 10 7 5 3 1 0 0 0 0 0 0 1 2 4 5 3 1 0 0 0 0 0 0 0 0 0 0 0 0 0 0 0 0 0 2 6 11 13 13 13 12 11
19 17 13 10 7 3 1 0 0 0 0 0 1 2 5 5 4 2 0 0 1 1 0 0 0 0 0 0 0 0 0 0 0 0 0 0 3 8 12 15 16 14 12
24 20 16 13 9 4 1 0 0 0 0 0 0 2 4 6 6 4 2 1 1 1 0 0 0 1 1 0 0 0 0 0 0 0 0 1 1 3 7 13 16 14 12
23 20 15 12 8 3 1 0 0 1 1 1 0 1 2 4 6 5 3 1 1 1 0 0 0 1 1 0 0 0 0 0 0 1 1 2 2 1 3 7 10 11 12
25 23 18 13 9 4 2 2 0 1 2 1 0 0 1 3 5 5 2 0 0 0 0 0 0 1 1 0 0 0 0 0 0 1 2 3 3 3 2 3 3 6 9
32 29 24 19 13 8 5 3 2 1 1 1 0 0 1 2 4 4 1 0 0 0 0 0 0 0 0 0 0 0 0 0 0 1 1 2 2 2 2 2 1 2 4
39 35 30 25 19 13 8 4 3 1 0 0 0 0 1 2 4 3 2 1 0 0 0 1 1 0 0 0 0 0 0 0 0 0 0 1 1 1 1 2 2 2 2
42 39 35 32 27 18 11 7 5 4 2 0 0 0 1 2 3 4 4 3 2 1 0 0 1 1 0 0 0 0 0 0 1 0 0 0 0 0 0 1 1 1 1
45 43 39 37 34 26 18 14 10 7 3 1 0 0 1 1 3 5 6 5 4 3 3 2 1 0 0 0 0 0 0 0 0 0 0 0 0 0 0 1 0 0 0
49 47 43 41 40 33 26 21 16 10 4 1 1 1 0 0 2 5 6 6 7 8 8 6 3 1 0 0 0 0 0 0 0 0 0 0 0 0 0 0 0 0 0
52 50 47 45 42 37 31 25 19 11 5 2 2 2 1 0 2 5 6 7 9 11 11 9 5 2 1 0 0 0 0 1 1 1 0 0 0 0 0 0 0 0 0

GEFSSE_con_prob3kmehi_228.txt.gz
EHI
3 3 4 5 8 9 8 8 8 7 6 6 5 4 3 3 4 5 5 4 3 3 3 3 3 3 3 3 3 3 3 3 3 3 3 3 3 3 1 0 0 1 2
3 3 4 6 8 9 9 9 8 6 6 5 4 3 3 3 3 4 4 3 3 3 3 3 3 3 3 3 3 3 3 3 3 3 3 3 3 3 2 1 0 1 2
3 3 3 5 7 7 8 9 7 5 4 4 4 4 4 4 3 3 3 3 3 3 3 3 3 3 3 3 3 3 3 3 3 3 1 1 2 3 2 1 0 1 2
3 3 3 4 5 5 6 8 7 5 4 4 4 6 6 4 3 3 3 3 3 3 3 2 1 1 2 2 2 2 2 3 3 2 1 0 1 1 2 2 1 1 2
3 3 3 3 4 5 6 8 7 5 5 6 6 7 7 5 3 3 3 3 3 3 3 2 1 1 1 1 1 1 1 1 2 2 1 0 0 0 1 2 1 1 2
3 3 3 3 4 6 8 9 8 6 5 6 6 7 6 5 3 3 3 3 3 3 3 3 2 2 1 0 0 0 0 0 1 1 0 1 1 1 1 2 2 1 1
3 3 3 4 4 6 8 8 8 7 5 5 6 6 6 5 4 3 3 3 3 3 3 3 3 2 1 0 0 0 0 0 0 0 1 2 2 2 3 3 3 3 2
3 3 4 4 5 5 6 6 7 6 5 5 6 6 5 4 3 3 3 3 3 3 3 3 3 2 1 0 0 0 0 0 0 1 2 2 2 3 4 3 3 3 3
3 3 3 4 4 4 4 4 5 5 4 4 5 4 4 3 3 3 3 3 3 3 3 2 2 2 1 0 0 0 0 0 1 2 3 3 2 3 4 4 3 3 3
3 3 3 3 3 3 3 3 3 4 3 3 4 3 3 3 3 3 3 3 3 2 1 1 1 1 1 0 0 0 0 1 2 2 3 3 3 3 4 3 3 3 3
4 3 3 3 3 3 3 3 3 3 3 3 3 3 3 3 3 3 3 3 2 1 0 0 0 1 1 0 0 1 1 2 1 2 3 3 3 3 3 3 3 3 3
5 4 3 3 3 3 3 3 3 3 3 3 3 3 3 3 3 3 3 3 2 1 1 1 1 1 1 0 0 1 2 2 2 2 3 3 3 3 3 3 3 3 4
6 4 3 3 3 2 2 2 2 2 2 3 3 3 3 2 2 2 2 2 2 2 2 2 2 1 0 0 0 1 1 1 2 3 3 3 3 3 3 3 3 4 5
6 5 3 2 1 1 1 1 1 1 1 1 3 3 2 1 0 1 1 1 2 2 2 1 1 1 0 0 0 0 0 0 2 3 3 3 3 3 3 3 3 4 5
6 5 3 1 0 0 0 0 0 0 0 1 2 2 1 0 0 0 0 0 1 1 1 1 1 0 0 0 1 1 1 1 2 3 3 3 3 3 3 3 4 4 5
6 4 3 2 1 1 1 0 0 0 0 0 1 1 0 0 0 0 0 0 0 1 1 2 2 1 1 1 2 2 2 3 3 3 3 3 3 3 3 4 4 4 5
4 4 3 2 1 1 1 0 0 0 0 0 0 0 0 0 0 0 0 0 0 1 2 3 3 3 2 2 2 3 3 3 3 3 3 3 3 3 3 4 4 4 4
3 3 2 1 0 1 1 0 0 0 0 0 0 0 0 0 0 0 0 0 0 1 3 3 3 3 3 2 2 2 3 3 3 3 3 3 3 3 3 3 4 3 3
4 3 3 1 0 0 0 0 0 0 0 0 0 0 0 0 0 0 0 0 1 2 3 3 3 3 3 2 2 3 3 3 3 3 3 3 3 4 4 4 4 4 4
6 5 5 3 1 1 1 0 0 0 0 0 0 0 0 0 0 0 1 1 2 3 3 3 3 3 3 3 3 3 3 3 3 3 3 3 4 4 5 5 5 5 5
8 7 6 5 4 3 2 1 0 0 0 0 0 0 0 1 1 1 2 3 3 3 3 3 3 3 3 3 3 3 3 3 3 3 3 3 3 4 4 4 4 4 4
12 11 8 7 5 4 3 2 1 0 0 0 0 0 0 1 2 2 3 3 3 3 3 3 3 3 3 3 3 3 3 3 3 3 3 3 3 3 3 3 3 3 3
17 14 10 8 7 6 4 4 3 2 2 1 1 1 1 1 2 3 3 3 3 3 3 3 3 3 3 3 3 3 3 3 3 3 3 3 3 3 3 3 3 3 3
20 17 12 10 8 7 6 6 7 6 4 3 2 2 2 2 3 3 3 3 3 3 3 3 3 3 3 3 3 3 3 3 3 3 3 3 3 3 3 3 3 3 3
19 18 14 12 10 9 8 8 9 8 6 4 4 4 3 3 3 3 3 3 3 4 4 4 3 3 3 3 3 3 3 3 3 3 3 3 3 3 3 3 3 3 3
18 17 15 13 12 11 10 9 9 8 6 5 4 4 4 3 3 3 3 3 4 5 5 5 4 3 3 3 3 3 3 3 3 3 3 3 3 3 2 2 3 3 3

GEFSSE_con_prob3kmehi_234.txt.gz
EHI
0 1 1 2 2 1 0 1 1 0 0 0 1 2 3 1 0 1 0 0 0 0 0 0 1 2 2 1 0 0 0 0 0 0 0 0 0 0 0 0 0 0 1
0 0 1 2 2 1 1 2 2 1 0 0 0 1 1 0 0 1 0 0 0 0 0 0 0 1 1 0 0 0 0 0 0 0 0 0 0 0 0 0 0 1 1
0 0 1 2 3 2 3 4 3 1 0 0 0 0 0 0 0 0 0 0 0 0 0 0 0 0 0 0 0 0 0 0 0 0 0 0 0 0 0 0 1 1 1
0 0 0 2 2 3 4 4 3 2 1 0 0 1 0 0 0 0 0 0 0 0 0 0 0 0 0 0 0 0 0 0 0 0 0 0 0 0 0 0 0 0 0
0 0 1 2 3 3 3 4 3 2 1 0 0 0 0 0 0 1 1 0 0 0 0 0 0 0 0 0 0 0 0 0 0 0 0 0 0 0 0 0 0 0 0
0 0 1 2 2 2 2 2 1 1 0 0 0 0 0 0 0 1 1 0 0 0 0 0 0 0 0 0 0 0 1 1 0 0 0 0 0 0 0 0 0 0 0
0 0 0 1 1 0 1 1 1 0 0 0 0 0 0 0 0 1 1 0 0 0 0 0 0 0 0 0 0 0 1 1 0 0 0 0 0 0 0 0 1 0 0
0 0 0 0 0 0 1 1 1 0 0 0 0 1 0 0 0 0 0 0 0 0 0 0 0 0 0 0 0 0 1 1 0 0 0 0 0 0 0 0 0 0 0
0 0 0 0 0 0 1 1 1 0 0 0 0 0 0 0 0 0 0 0 0 0 0 0 0 0 0 0 0 0 0 0 0 0 0 0 0 0 0 0 0 0 0
0 0 0 0 0 0 1 1 0 0 0 0 0 0 0 0 0 0 0 0 0 0 0 0 0 0 0 0 0 0 0 0 0 0 0 0 0 0 0 0 0 0 0
0 0 0 0 0 0 0 0 0 0 0 0 0 0 0 0 0 0 0 1 0 0 0 0 0 0 0 0 0 0 0 0 0 0 0 1 1 0 0 0 0 0 0
0 0 0 0 0 0 0 0 0 0 0 0 0 0 0 0 0 0 0 0 0 0 0 0 0 0 0 0 0 0 0 0 0 0 1 2 2 1 0 0 0 0 0
0 0 0 0 0 0 0 0 0 0 0 0 0 0 0 0 0 0 0 0 0 0 0 0 1 0 0 0 0 0 0 0 0 0 1 3 3 1 0 0 0 0 1
1 0 0 0 0 0 0 0 0 0 1 1 0 0 0 0 0 0 0 0 0 0 0 0 0 0 0 0 0 0 0 0 0 0 1 3 2 1 0 0 0 0 1
1 0 0 0 0 0 0 0 0 0 0 1 1 1 0 1 1 0 0 0 0 0 0 0 0 0 0 0 0 0 0 0 0 0 1 2 3 2 0 0 0 0 1
1 0 0 0 0 0 0 0 0 0 0 1 1 1 0 1 2 1 1 0 0 1 1 1 0 0 0 0 0 0 0 0 0 0 0 2 4 4 2 1 0 0 0
0 0 0 0 0 0 0 0 0 0 0 0 0 0 0 1 2 2 2 1 1 2 2 1 1 0 0 0 0 0 0 0 0 0 0 1 4 5 5 3 1 1 1
1 1 0 0 0 0 0 0 0 0 0 0 0 0 0 0 1 1 2 2 2 3 2 1 1 0 0 0 0 0 0 1 1 1 1 1 2 3 5 4 3 3 3
3 3 3 3 2 1 1 1 1 1 0 0 0 0 0 0 0 1 1 2 2 2 2 1 1 0 0 0 0 0 0 0 0 0 0 0 1 2 3 4 4 3 3
6 8 8 7 5 3 2 2 2 1 0 0 0 0 0 0 1 2 2 2 2 3 3 2 1 0 0 1 1 1 0 0 0 0 0 0 0 2 3 3 3 2 2
12 13 12 10 8 5 4 3 3 1 0 0 0 0 0 1 1 2 2 3 3 5 5 2 1 0 1 2 2 2 1 0 0 0 0 0 0 1 2 2 2 2 2
19 17 14 12 11 9 7 5 3 2 1 1 1 1 2 3 3 2 2 2 3 4 4 3 3 2 3 4 5 3 1 0 0 0 0 0 0 0 1 1 1 2 3
23 18 14 14 15 13 10 7 6 5 4 3 3 4 5 5 5 3 2 2 3 4 5 6 6 6 6 7 7 5 3 2 1 0 0 0 0 0 0 1 1 2 5
21 17 15 17 17 15 14 12 11 10 7 5 5 5 6 7 6 5 3 4 5 6 8 9 9 8 8 7 7 7 6 5 3 1 0 0 0 0 0 0 1 3 6
18 17 18 21 22 21 19 17 16 14 11 9 8 8 8 9 8 8 7 9 10 10 11 11 11 10 8 7 7 7 8 7 5 3 1 0 0 0 0 0 0 2 5
18 17 20 25 28 27 23 19 17 16 15 13 12 11 11 11 11 10 11 13 13 12 12 11 11 11 9 7 7 8 8 8 6 4 2 1 0 0 0 0 0 2 4

GEFSSE_con_prob3kmehi_240.txt.gz
EHI
3 4 3 2 1 0 0 0 0 2 4 6 8 11 12 11 7 3 1 0 0 0 1 1 1 2 2 1 2 2 1 2 3 4 3 1 1 0 0 1 1 1 0
3 3 3 2 0 0 0 0 0 2 4 5 6 9 11 9 5 2 0 0 0 0 0 0 0 1 1 0 1 1 0 1 1 1 1 1 1 1 1 1 2 1 0
2 2 2 1 0 0 0 0 0 1 2 3 5 8 9 5 2 1 0 0 0 0 0 0 0 0 0 0 0 0 0 0 0 0 0 0 0 1 1 2 1 0 0
2 2 3 2 1 0 0 1 1 1 1 2 4 6 5 2 1 0 0 0 0 0 0 0 0 0 0 0 0 0 0 0 0 0 0 0 0 1 1 1 0 0 0
3 4 5 4 3 1 0 1 1 1 1 1 2 3 2 0 0 0 0 0 0 0 0 0 0 0 0 0 0 0 0 0 0 0 1 1 2 2 2 1 0 0 0
3 4 6 6 4 1 0 1 1 0 0 0 0 0 0 0 0 0 0 0 0 0 0 0 0 0 0 0 1 1 0 0 0 1 2 3 4 5 4 2 1 0 0
2 3 5 6 4 1 0 0 0 0 0 0 1 1 0 1 1 0 0 0 0 0 0 0 0 0 0 1 2 2 1 1 1 1 1 3 5 6 6 4 2 0 0
2 3 4 5 4 2 1 0 0 0 0 1 2 2 1 2 1 0 0 0 0 0 0 0 0 0 0 1 3 3 2 3 3 1 0 3 7 8 7 4 2 0 0
3 3 4 5 4 2 1 1 0 0 0 1 1 1 2 2 1 0 0 0 0 0 0 0 0 0 1 2 3 3 4 6 5 2 1 4 9 10 7 4 2 1 0
4 3 3 4 4 2 2 2 2 1 1 1 1 1 1 1 0 1 1 1 1 1 0 0 0 1 2 3 3 3 4 5 3 1 1 5 11 11 7 4 3 1 0
3 2 2 2 3 2 2 2 3 3 2 2 3 3 2 0 0 1 3 4 4 4 3 2 2 3 4 3 3 4 4 2 1 1 3 9 14 12 8 6 4 2 1
1 1 1 1 2 3 4 4 3 2 3 4 5 6 4 2 1 1 4 7 8 8 6 6 6 6 5 4 4 5 4 3 1 1 6 15 18 13 9 7 5 2 0
1 0 0 1 2 5 5 4 2 1 3 5 6 6 5 3 3 2 4 7 9 9 8 8 9 7 5 4 4 6 6 4 2 2 8 18 20 15 11 9 7 3 1
2 1 0 3 7 10 8 4 1 1 2 4 6 6 5 5 5 4 4 5 7 8 8 7 6 6 5 4 5 7 7 5 3 4 9 17 21 18 14 11 8 5 3
5 3 3 7 13 15 11 5 1 1 1 4 7 7 6 6 6 5 4 4 5 6 6 4 4 4 4 4 5 6 7 6 6 6 10 16 20 19 16 13 10 6 5
13 11 10 12 15 15 10 4 1 2 3 6 8 7 6 5 6 5 4 5 5 6 6 6 5 5 4 5 5 5 6 6 7 8 9 13 17 19 18 16 14 9 7
26 24 18 14 13 12 7 3 2 3 4 7 8 8 7 6 6 5 4 5 5 5 7 9 8 6 5 6 6 6 6 7 7 7 8 10 14 18 20 21 21 18 15
37 34 24 15 15 14 9 5 4 3 3 6 9 9 8 8 7 6 5 5 4 4 6 9 8 5 5 6 7 7 7 8 9 7 7 8 12 17 21 25 29 28 25
46 42 30 22 21 19 13 9 5 3 3 6 9 10 10 8 7 7 8 8 6 5 6 6 5 4 5 6 6 7 8 10 10 7 6 7 12 18 22 26 30 30 27
55 50 40 33 31 25 17 11 7 5 5 6 9 12 13 11 9 9 11 12 10 7 7 5 4 5 6 7 6 6 8 10 10 8 7 7 13 19 22 27 30 25 22
62 58 51 45 41 33 21 13 10 10 10 10 11 17 20 17 14 14 14 14 12 11 9 8 8 9 9 9 7 7 7 8 8 10 10 10 12 16 20 28 33 29 25
65 62 58 54 50 42 28 17 14 15 15 13 14 21 26 25 21 18 18 17 15 15 14 14 15 12 9 8 8 7 6 6 7 9 13 14 13 15 18 25 33 36 35
63 62 62 61 57 49 36 23 19 19 17 16 19 26 30 30 26 21 21 22 20 19 19 20 20 14 9 7 7 7 7 6 6 9 12 14 17 19 18 18 24 32 38
58 59 62 64 61 54 42 30 23 21 19 19 23 28 31 32 30 25 23 25 24 21 20 21 18 14 11 8 7 9 10 9 8 7 8 10 14 19 18 12 13 22 31
51 54 59 63 63 57 46 33 25 23 21 23 26 30 31 32 32 30 28 29 28 25 22 19 16 15 13 10 9 9 10 11 9 6 4 5 8 13 14 11 10 16 22
47 50 57 62 63 58 47 35 26 24 23 24 29 33 31 32 33 32 33 33 30 27 24 19 15 16 15 13 10 9 8 9 9 5 3 3 4 8 11 12 12 14 16